<?xml version="1.0" encoding="UTF-8" standalone="no" ?>
<gpx xmlns="http://www.topografix.com/GPX/1/1" xmlns:xsi="http://www.w3.org/2001/XMLSchema-instance" xsi:schemaLocation="http://www.topografix.com/GPX/1/1 http://www.topografix.com/GPX/1/1/gpx.xsd" version="1.1" creator="VisuGPX - https://www.visugpx.com">
  <metadata>
    <name>Boisset, Montarcher</name>
    <desc><![CDATA[Départ de boisset St Priest pour une boucle passant par Montarcher via le pied du bon dieu]]></desc>
  </metadata>
  <trk>
    <name><![CDATA[Boisset, Montarcher_1]]></name>
    <trkseg>
      <trkpt lat="45.51182" lon="4.09578">
        <ele>631</ele>
        <time>2009-11-29T06:10:53Z</time>
      </trkpt>
      <trkpt lat="45.51202" lon="4.09597">
        <ele>636.8</ele>
        <time>2009-11-29T06:11:21Z</time>
      </trkpt>
      <trkpt lat="45.51213" lon="4.09606">
        <ele>637.9</ele>
        <time>2009-11-29T06:11:26Z</time>
      </trkpt>
      <trkpt lat="45.51228" lon="4.09598">
        <ele>638.5</ele>
        <time>2009-11-29T06:11:32Z</time>
      </trkpt>
      <trkpt lat="45.51243" lon="4.09591">
        <ele>638.2</ele>
        <time>2009-11-29T06:11:37Z</time>
      </trkpt>
      <trkpt lat="45.51251" lon="4.09578">
        <ele>637.9</ele>
        <time>2009-11-29T06:11:43Z</time>
      </trkpt>
      <trkpt lat="45.51256" lon="4.09562">
        <ele>639.8</ele>
        <time>2009-11-29T06:11:48Z</time>
      </trkpt>
      <trkpt lat="45.51256" lon="4.09546">
        <ele>640.3</ele>
        <time>2009-11-29T06:11:53Z</time>
      </trkpt>
      <trkpt lat="45.51257" lon="4.0953">
        <ele>640.8</ele>
        <time>2009-11-29T06:11:57Z</time>
      </trkpt>
      <trkpt lat="45.51258" lon="4.09512">
        <ele>640.5</ele>
        <time>2009-11-29T06:12:02Z</time>
      </trkpt>
      <trkpt lat="45.51259" lon="4.09495">
        <ele>640.8</ele>
        <time>2009-11-29T06:12:06Z</time>
      </trkpt>
      <trkpt lat="45.5126" lon="4.0948">
        <ele>639.3</ele>
        <time>2009-11-29T06:12:10Z</time>
      </trkpt>
      <trkpt lat="45.51263" lon="4.09464">
        <ele>638.8</ele>
        <time>2009-11-29T06:12:15Z</time>
      </trkpt>
      <trkpt lat="45.51268" lon="4.09447">
        <ele>638.2</ele>
        <time>2009-11-29T06:12:19Z</time>
      </trkpt>
      <trkpt lat="45.51271" lon="4.09432">
        <ele>638</ele>
        <time>2009-11-29T06:12:22Z</time>
      </trkpt>
      <trkpt lat="45.51274" lon="4.09417">
        <ele>637</ele>
        <time>2009-11-29T06:12:26Z</time>
      </trkpt>
      <trkpt lat="45.51277" lon="4.09401">
        <ele>636.3</ele>
        <time>2009-11-29T06:12:29Z</time>
      </trkpt>
      <trkpt lat="45.5128" lon="4.09383">
        <ele>635.5</ele>
        <time>2009-11-29T06:12:31Z</time>
      </trkpt>
      <trkpt lat="45.51282" lon="4.09369">
        <ele>635</ele>
        <time>2009-11-29T06:12:34Z</time>
      </trkpt>
      <trkpt lat="45.51285" lon="4.09354">
        <ele>634</ele>
        <time>2009-11-29T06:12:36Z</time>
      </trkpt>
      <trkpt lat="45.51288" lon="4.09339">
        <ele>633.5</ele>
        <time>2009-11-29T06:12:38Z</time>
      </trkpt>
      <trkpt lat="45.51292" lon="4.09322">
        <ele>633.5</ele>
        <time>2009-11-29T06:12:40Z</time>
      </trkpt>
      <trkpt lat="45.51296" lon="4.09305">
        <ele>633.3</ele>
        <time>2009-11-29T06:12:43Z</time>
      </trkpt>
      <trkpt lat="45.51301" lon="4.09288">
        <ele>632.5</ele>
        <time>2009-11-29T06:12:47Z</time>
      </trkpt>
      <trkpt lat="45.51306" lon="4.0927">
        <ele>632.5</ele>
        <time>2009-11-29T06:12:50Z</time>
      </trkpt>
      <trkpt lat="45.51307" lon="4.09252">
        <ele>632.3</ele>
        <time>2009-11-29T06:12:55Z</time>
      </trkpt>
      <trkpt lat="45.51303" lon="4.09238">
        <ele>631.7</ele>
        <time>2009-11-29T06:12:59Z</time>
      </trkpt>
      <trkpt lat="45.51305" lon="4.09222">
        <ele>630.3</ele>
        <time>2009-11-29T06:13:02Z</time>
      </trkpt>
      <trkpt lat="45.51313" lon="4.0921">
        <ele>630.8</ele>
        <time>2009-11-29T06:13:07Z</time>
      </trkpt>
      <trkpt lat="45.51324" lon="4.09201">
        <ele>630.9</ele>
        <time>2009-11-29T06:13:13Z</time>
      </trkpt>
      <trkpt lat="45.51339" lon="4.09197">
        <ele>631.9</ele>
        <time>2009-11-29T06:13:20Z</time>
      </trkpt>
      <trkpt lat="45.51353" lon="4.09193">
        <ele>632.6</ele>
        <time>2009-11-29T06:13:27Z</time>
      </trkpt>
      <trkpt lat="45.51367" lon="4.09189">
        <ele>633.4</ele>
        <time>2009-11-29T06:13:32Z</time>
      </trkpt>
      <trkpt lat="45.51383" lon="4.09186">
        <ele>633.7</ele>
        <time>2009-11-29T06:13:39Z</time>
      </trkpt>
      <trkpt lat="45.51399" lon="4.09182">
        <ele>633.5</ele>
        <time>2009-11-29T06:13:45Z</time>
      </trkpt>
      <trkpt lat="45.51413" lon="4.09177">
        <ele>633.6</ele>
        <time>2009-11-29T06:13:51Z</time>
      </trkpt>
      <trkpt lat="45.51428" lon="4.09169">
        <ele>633.8</ele>
        <time>2009-11-29T06:13:56Z</time>
      </trkpt>
      <trkpt lat="45.51443" lon="4.09165">
        <ele>634.4</ele>
        <time>2009-11-29T06:14:01Z</time>
      </trkpt>
      <trkpt lat="45.51458" lon="4.09161">
        <ele>634.9</ele>
        <time>2009-11-29T06:14:06Z</time>
      </trkpt>
      <trkpt lat="45.51473" lon="4.09155">
        <ele>634.9</ele>
        <time>2009-11-29T06:14:11Z</time>
      </trkpt>
      <trkpt lat="45.51487" lon="4.09149">
        <ele>634.9</ele>
        <time>2009-11-29T06:14:16Z</time>
      </trkpt>
      <trkpt lat="45.51503" lon="4.09144">
        <ele>635.1</ele>
        <time>2009-11-29T06:14:21Z</time>
      </trkpt>
      <trkpt lat="45.51517" lon="4.09138">
        <ele>635.6</ele>
        <time>2009-11-29T06:14:26Z</time>
      </trkpt>
      <trkpt lat="45.51532" lon="4.09132">
        <ele>636.3</ele>
        <time>2009-11-29T06:14:31Z</time>
      </trkpt>
      <trkpt lat="45.51547" lon="4.09126">
        <ele>636.6</ele>
        <time>2009-11-29T06:14:36Z</time>
      </trkpt>
      <trkpt lat="45.51563" lon="4.09119">
        <ele>637</ele>
        <time>2009-11-29T06:14:41Z</time>
      </trkpt>
      <trkpt lat="45.51578" lon="4.09113">
        <ele>637.1</ele>
        <time>2009-11-29T06:14:46Z</time>
      </trkpt>
      <trkpt lat="45.51594" lon="4.09107">
        <ele>637.5</ele>
        <time>2009-11-29T06:14:51Z</time>
      </trkpt>
      <trkpt lat="45.51611" lon="4.09102">
        <ele>637.4</ele>
        <time>2009-11-29T06:14:56Z</time>
      </trkpt>
      <trkpt lat="45.51627" lon="4.09097">
        <ele>637</ele>
        <time>2009-11-29T06:15:01Z</time>
      </trkpt>
      <trkpt lat="45.51642" lon="4.09092">
        <ele>637</ele>
        <time>2009-11-29T06:15:05Z</time>
      </trkpt>
      <trkpt lat="45.51659" lon="4.09087">
        <ele>636.1</ele>
        <time>2009-11-29T06:15:10Z</time>
      </trkpt>
      <trkpt lat="45.51674" lon="4.09081">
        <ele>635.6</ele>
        <time>2009-11-29T06:15:15Z</time>
      </trkpt>
      <trkpt lat="45.51689" lon="4.09075">
        <ele>634.5</ele>
        <time>2009-11-29T06:15:20Z</time>
      </trkpt>
      <trkpt lat="45.51705" lon="4.09069">
        <ele>633.3</ele>
        <time>2009-11-29T06:15:23Z</time>
      </trkpt>
      <trkpt lat="45.51723" lon="4.09064">
        <ele>633</ele>
        <time>2009-11-29T06:15:27Z</time>
      </trkpt>
      <trkpt lat="45.51739" lon="4.09059">
        <ele>632.5</ele>
        <time>2009-11-29T06:15:31Z</time>
      </trkpt>
      <trkpt lat="45.51754" lon="4.09055">
        <ele>632</ele>
        <time>2009-11-29T06:15:34Z</time>
      </trkpt>
      <trkpt lat="45.5177" lon="4.09052">
        <ele>631.7</ele>
        <time>2009-11-29T06:15:37Z</time>
      </trkpt>
      <trkpt lat="45.51787" lon="4.09048">
        <ele>631.5</ele>
        <time>2009-11-29T06:15:41Z</time>
      </trkpt>
      <trkpt lat="45.51805" lon="4.09044">
        <ele>630.7</ele>
        <time>2009-11-29T06:15:46Z</time>
      </trkpt>
      <trkpt lat="45.51823" lon="4.09037">
        <ele>629</ele>
        <time>2009-11-29T06:15:49Z</time>
      </trkpt>
      <trkpt lat="45.51839" lon="4.0903">
        <ele>628.3</ele>
        <time>2009-11-29T06:15:52Z</time>
      </trkpt>
      <trkpt lat="45.5185" lon="4.09021">
        <ele>628</ele>
        <time>2009-11-29T06:15:55Z</time>
      </trkpt>
      <trkpt lat="45.51848" lon="4.09004">
        <ele>627.5</ele>
        <time>2009-11-29T06:16:00Z</time>
      </trkpt>
      <trkpt lat="45.51844" lon="4.08989">
        <ele>628</ele>
        <time>2009-11-29T06:16:03Z</time>
      </trkpt>
      <trkpt lat="45.5184" lon="4.08974">
        <ele>628.5</ele>
        <time>2009-11-29T06:16:07Z</time>
      </trkpt>
      <trkpt lat="45.51837" lon="4.08957">
        <ele>629.3</ele>
        <time>2009-11-29T06:16:12Z</time>
      </trkpt>
      <trkpt lat="45.51834" lon="4.08942">
        <ele>630.3</ele>
        <time>2009-11-29T06:16:16Z</time>
      </trkpt>
      <trkpt lat="45.5183" lon="4.08928">
        <ele>630.8</ele>
        <time>2009-11-29T06:16:19Z</time>
      </trkpt>
      <trkpt lat="45.51827" lon="4.08911">
        <ele>632</ele>
        <time>2009-11-29T06:16:24Z</time>
      </trkpt>
      <trkpt lat="45.51824" lon="4.08897">
        <ele>633.2</ele>
        <time>2009-11-29T06:16:28Z</time>
      </trkpt>
      <trkpt lat="45.5182" lon="4.08882">
        <ele>634.8</ele>
        <time>2009-11-29T06:16:31Z</time>
      </trkpt>
      <trkpt lat="45.51815" lon="4.08867">
        <ele>635.9</ele>
        <time>2009-11-29T06:16:36Z</time>
      </trkpt>
      <trkpt lat="45.51811" lon="4.08854">
        <ele>637</ele>
        <time>2009-11-29T06:16:41Z</time>
      </trkpt>
      <trkpt lat="45.51804" lon="4.08839">
        <ele>637.8</ele>
        <time>2009-11-29T06:16:46Z</time>
      </trkpt>
      <trkpt lat="45.51798" lon="4.08824">
        <ele>638.5</ele>
        <time>2009-11-29T06:16:51Z</time>
      </trkpt>
      <trkpt lat="45.51792" lon="4.08809">
        <ele>639.5</ele>
        <time>2009-11-29T06:16:56Z</time>
      </trkpt>
      <trkpt lat="45.51785" lon="4.08794">
        <ele>640</ele>
        <time>2009-11-29T06:17:01Z</time>
      </trkpt>
      <trkpt lat="45.51779" lon="4.08779">
        <ele>640.5</ele>
        <time>2009-11-29T06:17:06Z</time>
      </trkpt>
      <trkpt lat="45.51772" lon="4.08764">
        <ele>641.7</ele>
        <time>2009-11-29T06:17:11Z</time>
      </trkpt>
      <trkpt lat="45.51765" lon="4.08749">
        <ele>642.6</ele>
        <time>2009-11-29T06:17:18Z</time>
      </trkpt>
      <trkpt lat="45.51758" lon="4.08734">
        <ele>643.4</ele>
        <time>2009-11-29T06:17:23Z</time>
      </trkpt>
      <trkpt lat="45.51752" lon="4.0872">
        <ele>644</ele>
        <time>2009-11-29T06:17:28Z</time>
      </trkpt>
      <trkpt lat="45.51747" lon="4.08705">
        <ele>644.9</ele>
        <time>2009-11-29T06:17:33Z</time>
      </trkpt>
      <trkpt lat="45.51745" lon="4.08696">
        <ele>644.7</ele>
        <time>2009-11-29T06:17:47Z</time>
      </trkpt>
      <trkpt lat="45.51737" lon="4.08676">
        <ele>645.8</ele>
        <time>2009-11-29T06:18:01Z</time>
      </trkpt>
      <trkpt lat="45.51732" lon="4.0866">
        <ele>647.1</ele>
        <time>2009-11-29T06:18:06Z</time>
      </trkpt>
      <trkpt lat="45.51727" lon="4.08644">
        <ele>647.6</ele>
        <time>2009-11-29T06:18:11Z</time>
      </trkpt>
      <trkpt lat="45.51722" lon="4.08627">
        <ele>648</ele>
        <time>2009-11-29T06:18:16Z</time>
      </trkpt>
      <trkpt lat="45.51716" lon="4.0861">
        <ele>648.3</ele>
        <time>2009-11-29T06:18:19Z</time>
      </trkpt>
      <trkpt lat="45.51709" lon="4.08593">
        <ele>648.8</ele>
        <time>2009-11-29T06:18:23Z</time>
      </trkpt>
      <trkpt lat="45.517" lon="4.08577">
        <ele>649.8</ele>
        <time>2009-11-29T06:18:28Z</time>
      </trkpt>
      <trkpt lat="45.51689" lon="4.08564">
        <ele>650</ele>
        <time>2009-11-29T06:18:31Z</time>
      </trkpt>
      <trkpt lat="45.51674" lon="4.08552">
        <ele>650</ele>
        <time>2009-11-29T06:18:35Z</time>
      </trkpt>
      <trkpt lat="45.51661" lon="4.0854">
        <ele>649.5</ele>
        <time>2009-11-29T06:18:40Z</time>
      </trkpt>
      <trkpt lat="45.51648" lon="4.08528">
        <ele>649</ele>
        <time>2009-11-29T06:18:43Z</time>
      </trkpt>
      <trkpt lat="45.51637" lon="4.08519">
        <ele>649</ele>
        <time>2009-11-29T06:18:46Z</time>
      </trkpt>
      <trkpt lat="45.51623" lon="4.08508">
        <ele>648.5</ele>
        <time>2009-11-29T06:18:50Z</time>
      </trkpt>
      <trkpt lat="45.51612" lon="4.08506">
        <ele>648.5</ele>
        <time>2009-11-29T06:18:58Z</time>
      </trkpt>
      <trkpt lat="45.51597" lon="4.08494">
        <ele>649.3</ele>
        <time>2009-11-29T06:19:06Z</time>
      </trkpt>
      <trkpt lat="45.51585" lon="4.08484">
        <ele>649.5</ele>
        <time>2009-11-29T06:19:10Z</time>
      </trkpt>
      <trkpt lat="45.51572" lon="4.08474">
        <ele>649.5</ele>
        <time>2009-11-29T06:19:14Z</time>
      </trkpt>
      <trkpt lat="45.51562" lon="4.08464">
        <ele>649.7</ele>
        <time>2009-11-29T06:19:17Z</time>
      </trkpt>
      <trkpt lat="45.51552" lon="4.08452">
        <ele>650</ele>
        <time>2009-11-29T06:19:22Z</time>
      </trkpt>
      <trkpt lat="45.51542" lon="4.0844">
        <ele>650.5</ele>
        <time>2009-11-29T06:19:25Z</time>
      </trkpt>
      <trkpt lat="45.51534" lon="4.08428">
        <ele>650.5</ele>
        <time>2009-11-29T06:19:29Z</time>
      </trkpt>
      <trkpt lat="45.51525" lon="4.08416">
        <ele>651.5</ele>
        <time>2009-11-29T06:19:34Z</time>
      </trkpt>
      <trkpt lat="45.51517" lon="4.08402">
        <ele>651.5</ele>
        <time>2009-11-29T06:19:38Z</time>
      </trkpt>
      <trkpt lat="45.51509" lon="4.08389">
        <ele>651.8</ele>
        <time>2009-11-29T06:19:41Z</time>
      </trkpt>
      <trkpt lat="45.515" lon="4.08377">
        <ele>652</ele>
        <time>2009-11-29T06:19:46Z</time>
      </trkpt>
      <trkpt lat="45.51491" lon="4.08361">
        <ele>652.7</ele>
        <time>2009-11-29T06:19:50Z</time>
      </trkpt>
      <trkpt lat="45.51483" lon="4.08345">
        <ele>653</ele>
        <time>2009-11-29T06:19:53Z</time>
      </trkpt>
      <trkpt lat="45.51474" lon="4.08328">
        <ele>653.3</ele>
        <time>2009-11-29T06:19:57Z</time>
      </trkpt>
      <trkpt lat="45.51466" lon="4.08312">
        <ele>653.2</ele>
        <time>2009-11-29T06:20:02Z</time>
      </trkpt>
      <trkpt lat="45.51458" lon="4.08296">
        <ele>654</ele>
        <time>2009-11-29T06:20:05Z</time>
      </trkpt>
      <trkpt lat="45.51451" lon="4.0828">
        <ele>654.5</ele>
        <time>2009-11-29T06:20:09Z</time>
      </trkpt>
      <trkpt lat="45.51443" lon="4.08264">
        <ele>654.9</ele>
        <time>2009-11-29T06:20:14Z</time>
      </trkpt>
      <trkpt lat="45.51435" lon="4.08248">
        <ele>655.8</ele>
        <time>2009-11-29T06:20:18Z</time>
      </trkpt>
      <trkpt lat="45.51428" lon="4.08232">
        <ele>656.5</ele>
        <time>2009-11-29T06:20:21Z</time>
      </trkpt>
      <trkpt lat="45.51421" lon="4.08216">
        <ele>657</ele>
        <time>2009-11-29T06:20:25Z</time>
      </trkpt>
      <trkpt lat="45.51414" lon="4.08201">
        <ele>657.9</ele>
        <time>2009-11-29T06:20:30Z</time>
      </trkpt>
      <trkpt lat="45.51406" lon="4.08186">
        <ele>658.9</ele>
        <time>2009-11-29T06:20:35Z</time>
      </trkpt>
      <trkpt lat="45.51396" lon="4.08173">
        <ele>660.1</ele>
        <time>2009-11-29T06:20:40Z</time>
      </trkpt>
      <trkpt lat="45.51386" lon="4.08159">
        <ele>661.4</ele>
        <time>2009-11-29T06:20:47Z</time>
      </trkpt>
      <trkpt lat="45.51378" lon="4.08144">
        <ele>662.8</ele>
        <time>2009-11-29T06:20:51Z</time>
      </trkpt>
      <trkpt lat="45.51372" lon="4.0813">
        <ele>663.4</ele>
        <time>2009-11-29T06:20:56Z</time>
      </trkpt>
      <trkpt lat="45.51366" lon="4.08116">
        <ele>664.5</ele>
        <time>2009-11-29T06:21:01Z</time>
      </trkpt>
      <trkpt lat="45.5136" lon="4.08101">
        <ele>665.4</ele>
        <time>2009-11-29T06:21:07Z</time>
      </trkpt>
      <trkpt lat="45.51355" lon="4.08084">
        <ele>666.8</ele>
        <time>2009-11-29T06:21:12Z</time>
      </trkpt>
      <trkpt lat="45.51349" lon="4.08066">
        <ele>667.2</ele>
        <time>2009-11-29T06:21:17Z</time>
      </trkpt>
      <trkpt lat="45.51346" lon="4.08048">
        <ele>667.2</ele>
        <time>2009-11-29T06:21:20Z</time>
      </trkpt>
      <trkpt lat="45.51344" lon="4.08031">
        <ele>667.3</ele>
        <time>2009-11-29T06:21:24Z</time>
      </trkpt>
      <trkpt lat="45.51341" lon="4.08015">
        <ele>666.8</ele>
        <time>2009-11-29T06:21:28Z</time>
      </trkpt>
      <trkpt lat="45.51337" lon="4.08001">
        <ele>666.3</ele>
        <time>2009-11-29T06:21:31Z</time>
      </trkpt>
      <trkpt lat="45.5133" lon="4.07986">
        <ele>665.8</ele>
        <time>2009-11-29T06:21:34Z</time>
      </trkpt>
      <trkpt lat="45.51322" lon="4.07971">
        <ele>665.3</ele>
        <time>2009-11-29T06:21:37Z</time>
      </trkpt>
      <trkpt lat="45.51312" lon="4.07955">
        <ele>665</ele>
        <time>2009-11-29T06:21:40Z</time>
      </trkpt>
      <trkpt lat="45.51303" lon="4.0794">
        <ele>664.5</ele>
        <time>2009-11-29T06:21:43Z</time>
      </trkpt>
      <trkpt lat="45.51295" lon="4.07924">
        <ele>664</ele>
        <time>2009-11-29T06:21:45Z</time>
      </trkpt>
      <trkpt lat="45.51287" lon="4.07909">
        <ele>663.5</ele>
        <time>2009-11-29T06:21:47Z</time>
      </trkpt>
      <trkpt lat="45.51279" lon="4.07894">
        <ele>663.5</ele>
        <time>2009-11-29T06:21:48Z</time>
      </trkpt>
      <trkpt lat="45.51271" lon="4.0788">
        <ele>663</ele>
        <time>2009-11-29T06:21:50Z</time>
      </trkpt>
      <trkpt lat="45.51264" lon="4.07866">
        <ele>663</ele>
        <time>2009-11-29T06:21:52Z</time>
      </trkpt>
      <trkpt lat="45.51256" lon="4.07853">
        <ele>663</ele>
        <time>2009-11-29T06:21:55Z</time>
      </trkpt>
      <trkpt lat="45.51248" lon="4.0784">
        <ele>663</ele>
        <time>2009-11-29T06:21:57Z</time>
      </trkpt>
      <trkpt lat="45.51238" lon="4.07828">
        <ele>662.5</ele>
        <time>2009-11-29T06:21:59Z</time>
      </trkpt>
      <trkpt lat="45.51229" lon="4.07817">
        <ele>662.5</ele>
        <time>2009-11-29T06:22:00Z</time>
      </trkpt>
      <trkpt lat="45.51221" lon="4.07805">
        <ele>662.5</ele>
        <time>2009-11-29T06:22:02Z</time>
      </trkpt>
      <trkpt lat="45.51214" lon="4.07791">
        <ele>662</ele>
        <time>2009-11-29T06:22:04Z</time>
      </trkpt>
      <trkpt lat="45.51207" lon="4.07778">
        <ele>661.5</ele>
        <time>2009-11-29T06:22:06Z</time>
      </trkpt>
      <trkpt lat="45.51201" lon="4.07764">
        <ele>661</ele>
        <time>2009-11-29T06:22:09Z</time>
      </trkpt>
      <trkpt lat="45.51195" lon="4.0775">
        <ele>660.5</ele>
        <time>2009-11-29T06:22:11Z</time>
      </trkpt>
      <trkpt lat="45.5119" lon="4.07735">
        <ele>660</ele>
        <time>2009-11-29T06:22:13Z</time>
      </trkpt>
      <trkpt lat="45.51186" lon="4.07719">
        <ele>660</ele>
        <time>2009-11-29T06:22:14Z</time>
      </trkpt>
      <trkpt lat="45.51182" lon="4.07703">
        <ele>659</ele>
        <time>2009-11-29T06:22:16Z</time>
      </trkpt>
      <trkpt lat="45.5118" lon="4.07686">
        <ele>659</ele>
        <time>2009-11-29T06:22:18Z</time>
      </trkpt>
      <trkpt lat="45.51178" lon="4.07668">
        <ele>658.5</ele>
        <time>2009-11-29T06:22:21Z</time>
      </trkpt>
      <trkpt lat="45.51176" lon="4.07648">
        <ele>657.3</ele>
        <time>2009-11-29T06:22:24Z</time>
      </trkpt>
      <trkpt lat="45.51173" lon="4.07629">
        <ele>656.5</ele>
        <time>2009-11-29T06:22:27Z</time>
      </trkpt>
      <trkpt lat="45.51171" lon="4.07614">
        <ele>656</ele>
        <time>2009-11-29T06:22:28Z</time>
      </trkpt>
      <trkpt lat="45.51168" lon="4.07599">
        <ele>655.5</ele>
        <time>2009-11-29T06:22:30Z</time>
      </trkpt>
      <trkpt lat="45.51166" lon="4.07585">
        <ele>655</ele>
        <time>2009-11-29T06:22:32Z</time>
      </trkpt>
      <trkpt lat="45.51166" lon="4.07571">
        <ele>654.5</ele>
        <time>2009-11-29T06:22:35Z</time>
      </trkpt>
      <trkpt lat="45.51168" lon="4.07556">
        <ele>653.5</ele>
        <time>2009-11-29T06:22:37Z</time>
      </trkpt>
      <trkpt lat="45.51171" lon="4.0754">
        <ele>652.5</ele>
        <time>2009-11-29T06:22:39Z</time>
      </trkpt>
      <trkpt lat="45.51177" lon="4.07525">
        <ele>651</ele>
        <time>2009-11-29T06:22:41Z</time>
      </trkpt>
      <trkpt lat="45.51182" lon="4.07511">
        <ele>650.5</ele>
        <time>2009-11-29T06:22:42Z</time>
      </trkpt>
      <trkpt lat="45.51185" lon="4.07496">
        <ele>650</ele>
        <time>2009-11-29T06:22:44Z</time>
      </trkpt>
      <trkpt lat="45.51185" lon="4.07481">
        <ele>649.5</ele>
        <time>2009-11-29T06:22:46Z</time>
      </trkpt>
      <trkpt lat="45.51184" lon="4.07465">
        <ele>648.5</ele>
        <time>2009-11-29T06:22:49Z</time>
      </trkpt>
      <trkpt lat="45.51184" lon="4.0745">
        <ele>648.5</ele>
        <time>2009-11-29T06:22:51Z</time>
      </trkpt>
      <trkpt lat="45.51184" lon="4.07433">
        <ele>647.8</ele>
        <time>2009-11-29T06:22:53Z</time>
      </trkpt>
      <trkpt lat="45.51184" lon="4.07414">
        <ele>646.8</ele>
        <time>2009-11-29T06:22:56Z</time>
      </trkpt>
      <trkpt lat="45.51176" lon="4.07396">
        <ele>646</ele>
        <time>2009-11-29T06:22:59Z</time>
      </trkpt>
      <trkpt lat="45.51161" lon="4.07382">
        <ele>645.5</ele>
        <time>2009-11-29T06:23:02Z</time>
      </trkpt>
      <trkpt lat="45.51148" lon="4.07368">
        <ele>645.5</ele>
        <time>2009-11-29T06:23:05Z</time>
      </trkpt>
      <trkpt lat="45.51141" lon="4.07353">
        <ele>646</ele>
        <time>2009-11-29T06:23:07Z</time>
      </trkpt>
      <trkpt lat="45.51136" lon="4.07336">
        <ele>645.5</ele>
        <time>2009-11-29T06:23:08Z</time>
      </trkpt>
      <trkpt lat="45.5113" lon="4.07318">
        <ele>644.5</ele>
        <time>2009-11-29T06:23:10Z</time>
      </trkpt>
      <trkpt lat="45.51126" lon="4.073">
        <ele>644</ele>
        <time>2009-11-29T06:23:12Z</time>
      </trkpt>
      <trkpt lat="45.51124" lon="4.07282">
        <ele>644</ele>
        <time>2009-11-29T06:23:14Z</time>
      </trkpt>
      <trkpt lat="45.51122" lon="4.07264">
        <ele>644</ele>
        <time>2009-11-29T06:23:17Z</time>
      </trkpt>
      <trkpt lat="45.5112" lon="4.07245">
        <ele>643.5</ele>
        <time>2009-11-29T06:23:19Z</time>
      </trkpt>
      <trkpt lat="45.51117" lon="4.07225">
        <ele>642</ele>
        <time>2009-11-29T06:23:21Z</time>
      </trkpt>
      <trkpt lat="45.51113" lon="4.07201">
        <ele>640.5</ele>
        <time>2009-11-29T06:23:22Z</time>
      </trkpt>
      <trkpt lat="45.51111" lon="4.07176">
        <ele>640</ele>
        <time>2009-11-29T06:23:24Z</time>
      </trkpt>
      <trkpt lat="45.51112" lon="4.0715">
        <ele>639</ele>
        <time>2009-11-29T06:23:26Z</time>
      </trkpt>
      <trkpt lat="45.51113" lon="4.07124">
        <ele>638.5</ele>
        <time>2009-11-29T06:23:29Z</time>
      </trkpt>
      <trkpt lat="45.51114" lon="4.07077">
        <ele>637</ele>
        <time>2009-11-29T06:23:33Z</time>
      </trkpt>
      <trkpt lat="45.51108" lon="4.07056">
        <ele>637</ele>
        <time>2009-11-29T06:23:35Z</time>
      </trkpt>
      <trkpt lat="45.51103" lon="4.07036">
        <ele>636.5</ele>
        <time>2009-11-29T06:23:36Z</time>
      </trkpt>
      <trkpt lat="45.51098" lon="4.07016">
        <ele>636.5</ele>
        <time>2009-11-29T06:23:38Z</time>
      </trkpt>
      <trkpt lat="45.51094" lon="4.06998">
        <ele>636.5</ele>
        <time>2009-11-29T06:23:40Z</time>
      </trkpt>
      <trkpt lat="45.5109" lon="4.06982">
        <ele>636.5</ele>
        <time>2009-11-29T06:23:43Z</time>
      </trkpt>
      <trkpt lat="45.51086" lon="4.06967">
        <ele>636</ele>
        <time>2009-11-29T06:23:45Z</time>
      </trkpt>
      <trkpt lat="45.51083" lon="4.06951">
        <ele>636</ele>
        <time>2009-11-29T06:23:47Z</time>
      </trkpt>
      <trkpt lat="45.51078" lon="4.06934">
        <ele>636</ele>
        <time>2009-11-29T06:23:50Z</time>
      </trkpt>
      <trkpt lat="45.51071" lon="4.06918">
        <ele>635.8</ele>
        <time>2009-11-29T06:23:54Z</time>
      </trkpt>
      <trkpt lat="45.51065" lon="4.06902">
        <ele>635</ele>
        <time>2009-11-29T06:23:59Z</time>
      </trkpt>
      <trkpt lat="45.51063" lon="4.06886">
        <ele>634.3</ele>
        <time>2009-11-29T06:24:02Z</time>
      </trkpt>
      <trkpt lat="45.51068" lon="4.0687">
        <ele>632.5</ele>
        <time>2009-11-29T06:24:06Z</time>
      </trkpt>
      <trkpt lat="45.51075" lon="4.06855">
        <ele>630.7</ele>
        <time>2009-11-29T06:24:09Z</time>
      </trkpt>
      <trkpt lat="45.51081" lon="4.06837">
        <ele>628.8</ele>
        <time>2009-11-29T06:24:13Z</time>
      </trkpt>
      <trkpt lat="45.51087" lon="4.06817">
        <ele>628</ele>
        <time>2009-11-29T06:24:16Z</time>
      </trkpt>
      <trkpt lat="45.51093" lon="4.06798">
        <ele>627.5</ele>
        <time>2009-11-29T06:24:19Z</time>
      </trkpt>
      <trkpt lat="45.51098" lon="4.06778">
        <ele>626.8</ele>
        <time>2009-11-29T06:24:22Z</time>
      </trkpt>
      <trkpt lat="45.51103" lon="4.06759">
        <ele>626.8</ele>
        <time>2009-11-29T06:24:25Z</time>
      </trkpt>
      <trkpt lat="45.51108" lon="4.0674">
        <ele>626.5</ele>
        <time>2009-11-29T06:24:28Z</time>
      </trkpt>
      <trkpt lat="45.51111" lon="4.06722">
        <ele>625.8</ele>
        <time>2009-11-29T06:24:31Z</time>
      </trkpt>
      <trkpt lat="45.51112" lon="4.06705">
        <ele>625.5</ele>
        <time>2009-11-29T06:24:34Z</time>
      </trkpt>
      <trkpt lat="45.51116" lon="4.06689">
        <ele>624.3</ele>
        <time>2009-11-29T06:24:37Z</time>
      </trkpt>
      <trkpt lat="45.51125" lon="4.06674">
        <ele>623.2</ele>
        <time>2009-11-29T06:24:40Z</time>
      </trkpt>
      <trkpt lat="45.51134" lon="4.06659">
        <ele>621.5</ele>
        <time>2009-11-29T06:24:43Z</time>
      </trkpt>
      <trkpt lat="45.51148" lon="4.06645">
        <ele>619.3</ele>
        <time>2009-11-29T06:24:46Z</time>
      </trkpt>
      <trkpt lat="45.5116" lon="4.06632">
        <ele>617.5</ele>
        <time>2009-11-29T06:24:49Z</time>
      </trkpt>
      <trkpt lat="45.51165" lon="4.0662">
        <ele>617.5</ele>
        <time>2009-11-29T06:24:51Z</time>
      </trkpt>
      <trkpt lat="45.5117" lon="4.06599">
        <ele>616.8</ele>
        <time>2009-11-29T06:24:53Z</time>
      </trkpt>
      <trkpt lat="45.51177" lon="4.0658">
        <ele>615.3</ele>
        <time>2009-11-29T06:24:56Z</time>
      </trkpt>
      <trkpt lat="45.51185" lon="4.06564">
        <ele>614</ele>
        <time>2009-11-29T06:24:58Z</time>
      </trkpt>
      <trkpt lat="45.51193" lon="4.06551">
        <ele>612.5</ele>
        <time>2009-11-29T06:25:00Z</time>
      </trkpt>
      <trkpt lat="45.512" lon="4.06538">
        <ele>611.5</ele>
        <time>2009-11-29T06:25:02Z</time>
      </trkpt>
      <trkpt lat="45.51208" lon="4.06524">
        <ele>610.5</ele>
        <time>2009-11-29T06:25:05Z</time>
      </trkpt>
      <trkpt lat="45.51215" lon="4.0651">
        <ele>610</ele>
        <time>2009-11-29T06:25:07Z</time>
      </trkpt>
      <trkpt lat="45.51222" lon="4.06494">
        <ele>609.3</ele>
        <time>2009-11-29T06:25:09Z</time>
      </trkpt>
      <trkpt lat="45.51235" lon="4.06482">
        <ele>609</ele>
        <time>2009-11-29T06:25:12Z</time>
      </trkpt>
      <trkpt lat="45.51251" lon="4.06474">
        <ele>609.2</ele>
        <time>2009-11-29T06:25:15Z</time>
      </trkpt>
      <trkpt lat="45.51261" lon="4.06463">
        <ele>608.3</ele>
        <time>2009-11-29T06:25:18Z</time>
      </trkpt>
      <trkpt lat="45.51269" lon="4.06448">
        <ele>608.5</ele>
        <time>2009-11-29T06:25:21Z</time>
      </trkpt>
      <trkpt lat="45.51278" lon="4.06436">
        <ele>608.7</ele>
        <time>2009-11-29T06:25:26Z</time>
      </trkpt>
      <trkpt lat="45.5129" lon="4.06427">
        <ele>608.6</ele>
        <time>2009-11-29T06:25:33Z</time>
      </trkpt>
      <trkpt lat="45.51284" lon="4.06422">
        <ele>609.2</ele>
        <time>2009-11-29T06:25:40Z</time>
      </trkpt>
      <trkpt lat="45.51271" lon="4.06431">
        <ele>609.5</ele>
        <time>2009-11-29T06:25:49Z</time>
      </trkpt>
      <trkpt lat="45.51257" lon="4.0643">
        <ele>610.2</ele>
        <time>2009-11-29T06:25:57Z</time>
      </trkpt>
      <trkpt lat="45.51247" lon="4.06416">
        <ele>612</ele>
        <time>2009-11-29T06:26:03Z</time>
      </trkpt>
      <trkpt lat="45.51239" lon="4.06403">
        <ele>612.9</ele>
        <time>2009-11-29T06:26:08Z</time>
      </trkpt>
      <trkpt lat="45.51233" lon="4.06388">
        <ele>613.8</ele>
        <time>2009-11-29T06:26:13Z</time>
      </trkpt>
      <trkpt lat="45.51232" lon="4.06374">
        <ele>614.8</ele>
        <time>2009-11-29T06:26:18Z</time>
      </trkpt>
      <trkpt lat="45.51236" lon="4.06358">
        <ele>615.9</ele>
        <time>2009-11-29T06:26:24Z</time>
      </trkpt>
      <trkpt lat="45.51239" lon="4.06342">
        <ele>617.3</ele>
        <time>2009-11-29T06:26:29Z</time>
      </trkpt>
      <trkpt lat="45.51239" lon="4.06326">
        <ele>618.9</ele>
        <time>2009-11-29T06:26:36Z</time>
      </trkpt>
      <trkpt lat="45.5124" lon="4.06311">
        <ele>621.5</ele>
        <time>2009-11-29T06:26:42Z</time>
      </trkpt>
      <trkpt lat="45.51237" lon="4.06297">
        <ele>624</ele>
        <time>2009-11-29T06:26:49Z</time>
      </trkpt>
      <trkpt lat="45.51235" lon="4.06281">
        <ele>625</ele>
        <time>2009-11-29T06:26:56Z</time>
      </trkpt>
      <trkpt lat="45.51234" lon="4.06266">
        <ele>625.5</ele>
        <time>2009-11-29T06:27:04Z</time>
      </trkpt>
      <trkpt lat="45.51234" lon="4.0625">
        <ele>624.9</ele>
        <time>2009-11-29T06:27:13Z</time>
      </trkpt>
      <trkpt lat="45.51234" lon="4.06236">
        <ele>624.2</ele>
        <time>2009-11-29T06:27:23Z</time>
      </trkpt>
      <trkpt lat="45.51234" lon="4.0622">
        <ele>623.5</ele>
        <time>2009-11-29T06:27:31Z</time>
      </trkpt>
      <trkpt lat="45.51234" lon="4.06203">
        <ele>623.1</ele>
        <time>2009-11-29T06:27:37Z</time>
      </trkpt>
      <trkpt lat="45.51233" lon="4.06187">
        <ele>624.1</ele>
        <time>2009-11-29T06:27:44Z</time>
      </trkpt>
      <trkpt lat="45.51232" lon="4.06172">
        <ele>624.9</ele>
        <time>2009-11-29T06:27:49Z</time>
      </trkpt>
      <trkpt lat="45.51231" lon="4.06157">
        <ele>625.9</ele>
        <time>2009-11-29T06:27:54Z</time>
      </trkpt>
      <trkpt lat="45.5123" lon="4.06141">
        <ele>627</ele>
        <time>2009-11-29T06:28:01Z</time>
      </trkpt>
      <trkpt lat="45.5123" lon="4.06126">
        <ele>627.5</ele>
        <time>2009-11-29T06:28:06Z</time>
      </trkpt>
      <trkpt lat="45.51234" lon="4.06111">
        <ele>626.6</ele>
        <time>2009-11-29T06:28:11Z</time>
      </trkpt>
      <trkpt lat="45.51237" lon="4.06097">
        <ele>627</ele>
        <time>2009-11-29T06:28:17Z</time>
      </trkpt>
      <trkpt lat="45.51238" lon="4.06079">
        <ele>627.3</ele>
        <time>2009-11-29T06:28:22Z</time>
      </trkpt>
      <trkpt lat="45.51241" lon="4.06063">
        <ele>627.8</ele>
        <time>2009-11-29T06:28:27Z</time>
      </trkpt>
      <trkpt lat="45.51245" lon="4.06048">
        <ele>628.3</ele>
        <time>2009-11-29T06:28:31Z</time>
      </trkpt>
      <trkpt lat="45.5125" lon="4.06031">
        <ele>628.2</ele>
        <time>2009-11-29T06:28:34Z</time>
      </trkpt>
      <trkpt lat="45.51254" lon="4.06014">
        <ele>628</ele>
        <time>2009-11-29T06:28:38Z</time>
      </trkpt>
      <trkpt lat="45.51258" lon="4.05996">
        <ele>628</ele>
        <time>2009-11-29T06:28:43Z</time>
      </trkpt>
      <trkpt lat="45.51261" lon="4.05979">
        <ele>628.5</ele>
        <time>2009-11-29T06:28:46Z</time>
      </trkpt>
      <trkpt lat="45.51265" lon="4.05962">
        <ele>628.5</ele>
        <time>2009-11-29T06:28:50Z</time>
      </trkpt>
      <trkpt lat="45.51268" lon="4.05947">
        <ele>629</ele>
        <time>2009-11-29T06:28:54Z</time>
      </trkpt>
      <trkpt lat="45.51271" lon="4.0593">
        <ele>628.5</ele>
        <time>2009-11-29T06:28:57Z</time>
      </trkpt>
      <trkpt lat="45.51275" lon="4.05912">
        <ele>628</ele>
        <time>2009-11-29T06:29:00Z</time>
      </trkpt>
      <trkpt lat="45.5128" lon="4.05895">
        <ele>628.5</ele>
        <time>2009-11-29T06:29:03Z</time>
      </trkpt>
      <trkpt lat="45.51284" lon="4.05878">
        <ele>628.3</ele>
        <time>2009-11-29T06:29:06Z</time>
      </trkpt>
      <trkpt lat="45.51286" lon="4.05862">
        <ele>627.8</ele>
        <time>2009-11-29T06:29:09Z</time>
      </trkpt>
      <trkpt lat="45.51288" lon="4.05847">
        <ele>628.6</ele>
        <time>2009-11-29T06:29:12Z</time>
      </trkpt>
      <trkpt lat="45.5129" lon="4.0583">
        <ele>629.6</ele>
        <time>2009-11-29T06:29:17Z</time>
      </trkpt>
      <trkpt lat="45.51292" lon="4.05813">
        <ele>630.8</ele>
        <time>2009-11-29T06:29:21Z</time>
      </trkpt>
      <trkpt lat="45.51294" lon="4.05797">
        <ele>631</ele>
        <time>2009-11-29T06:29:25Z</time>
      </trkpt>
      <trkpt lat="45.51296" lon="4.05782">
        <ele>631</ele>
        <time>2009-11-29T06:29:30Z</time>
      </trkpt>
      <trkpt lat="45.51297" lon="4.05766">
        <ele>631.2</ele>
        <time>2009-11-29T06:29:33Z</time>
      </trkpt>
      <trkpt lat="45.51296" lon="4.0575">
        <ele>631.9</ele>
        <time>2009-11-29T06:29:38Z</time>
      </trkpt>
      <trkpt lat="45.51292" lon="4.05735">
        <ele>633</ele>
        <time>2009-11-29T06:29:42Z</time>
      </trkpt>
      <trkpt lat="45.51288" lon="4.0572">
        <ele>634</ele>
        <time>2009-11-29T06:29:47Z</time>
      </trkpt>
      <trkpt lat="45.51284" lon="4.05704">
        <ele>635.1</ele>
        <time>2009-11-29T06:29:52Z</time>
      </trkpt>
      <trkpt lat="45.51283" lon="4.05688">
        <ele>636</ele>
        <time>2009-11-29T06:29:57Z</time>
      </trkpt>
      <trkpt lat="45.51284" lon="4.05671">
        <ele>636</ele>
        <time>2009-11-29T06:30:01Z</time>
      </trkpt>
      <trkpt lat="45.51286" lon="4.05656">
        <ele>636.5</ele>
        <time>2009-11-29T06:30:05Z</time>
      </trkpt>
      <trkpt lat="45.51285" lon="4.0564">
        <ele>637.3</ele>
        <time>2009-11-29T06:30:10Z</time>
      </trkpt>
      <trkpt lat="45.51284" lon="4.05625">
        <ele>637.6</ele>
        <time>2009-11-29T06:30:15Z</time>
      </trkpt>
      <trkpt lat="45.51282" lon="4.0561">
        <ele>638.5</ele>
        <time>2009-11-29T06:30:22Z</time>
      </trkpt>
      <trkpt lat="45.51277" lon="4.05596">
        <ele>638.9</ele>
        <time>2009-11-29T06:30:29Z</time>
      </trkpt>
      <trkpt lat="45.5127" lon="4.05582">
        <ele>639.3</ele>
        <time>2009-11-29T06:30:35Z</time>
      </trkpt>
      <trkpt lat="45.51259" lon="4.05572">
        <ele>640.6</ele>
        <time>2009-11-29T06:30:42Z</time>
      </trkpt>
      <trkpt lat="45.51247" lon="4.05561">
        <ele>640.9</ele>
        <time>2009-11-29T06:30:49Z</time>
      </trkpt>
      <trkpt lat="45.51237" lon="4.05549">
        <ele>640.2</ele>
        <time>2009-11-29T06:30:56Z</time>
      </trkpt>
      <trkpt lat="45.51229" lon="4.05535">
        <ele>640</ele>
        <time>2009-11-29T06:31:02Z</time>
      </trkpt>
      <trkpt lat="45.51222" lon="4.05522">
        <ele>641.7</ele>
        <time>2009-11-29T06:31:09Z</time>
      </trkpt>
      <trkpt lat="45.51212" lon="4.05509">
        <ele>643.6</ele>
        <time>2009-11-29T06:31:18Z</time>
      </trkpt>
      <trkpt lat="45.51204" lon="4.05496">
        <ele>645</ele>
        <time>2009-11-29T06:31:25Z</time>
      </trkpt>
      <trkpt lat="45.51197" lon="4.05482">
        <ele>646.8</ele>
        <time>2009-11-29T06:31:32Z</time>
      </trkpt>
      <trkpt lat="45.51192" lon="4.05468">
        <ele>648.5</ele>
        <time>2009-11-29T06:31:39Z</time>
      </trkpt>
      <trkpt lat="45.51186" lon="4.05453">
        <ele>648.8</ele>
        <time>2009-11-29T06:31:48Z</time>
      </trkpt>
      <trkpt lat="45.51177" lon="4.05443">
        <ele>652.3</ele>
        <time>2009-11-29T06:31:56Z</time>
      </trkpt>
      <trkpt lat="45.51166" lon="4.05429">
        <ele>653.5</ele>
        <time>2009-11-29T06:32:01Z</time>
      </trkpt>
      <trkpt lat="45.51158" lon="4.05412">
        <ele>653.5</ele>
        <time>2009-11-29T06:32:04Z</time>
      </trkpt>
      <trkpt lat="45.51149" lon="4.05397">
        <ele>653.5</ele>
        <time>2009-11-29T06:32:07Z</time>
      </trkpt>
      <trkpt lat="45.51138" lon="4.05381">
        <ele>653</ele>
        <time>2009-11-29T06:32:10Z</time>
      </trkpt>
      <trkpt lat="45.51128" lon="4.05366">
        <ele>653</ele>
        <time>2009-11-29T06:32:12Z</time>
      </trkpt>
      <trkpt lat="45.51122" lon="4.05353">
        <ele>653</ele>
        <time>2009-11-29T06:32:14Z</time>
      </trkpt>
      <trkpt lat="45.51115" lon="4.05338">
        <ele>653</ele>
        <time>2009-11-29T06:32:17Z</time>
      </trkpt>
      <trkpt lat="45.51108" lon="4.05322">
        <ele>653.5</ele>
        <time>2009-11-29T06:32:19Z</time>
      </trkpt>
      <trkpt lat="45.51102" lon="4.05305">
        <ele>654</ele>
        <time>2009-11-29T06:32:21Z</time>
      </trkpt>
      <trkpt lat="45.51096" lon="4.05288">
        <ele>654</ele>
        <time>2009-11-29T06:32:22Z</time>
      </trkpt>
      <trkpt lat="45.51089" lon="4.05272">
        <ele>654</ele>
        <time>2009-11-29T06:32:24Z</time>
      </trkpt>
      <trkpt lat="45.51082" lon="4.05255">
        <ele>654.5</ele>
        <time>2009-11-29T06:32:26Z</time>
      </trkpt>
      <trkpt lat="45.51073" lon="4.05239">
        <ele>654.5</ele>
        <time>2009-11-29T06:32:29Z</time>
      </trkpt>
      <trkpt lat="45.51064" lon="4.05224">
        <ele>654</ele>
        <time>2009-11-29T06:32:31Z</time>
      </trkpt>
      <trkpt lat="45.51054" lon="4.05208">
        <ele>654</ele>
        <time>2009-11-29T06:32:33Z</time>
      </trkpt>
      <trkpt lat="45.51046" lon="4.0519">
        <ele>654</ele>
        <time>2009-11-29T06:32:35Z</time>
      </trkpt>
      <trkpt lat="45.51038" lon="4.05167">
        <ele>654</ele>
        <time>2009-11-29T06:32:36Z</time>
      </trkpt>
      <trkpt lat="45.51035" lon="4.0514">
        <ele>653</ele>
        <time>2009-11-29T06:32:38Z</time>
      </trkpt>
      <trkpt lat="45.51035" lon="4.05112">
        <ele>653</ele>
        <time>2009-11-29T06:32:40Z</time>
      </trkpt>
      <trkpt lat="45.51035" lon="4.05086">
        <ele>653.5</ele>
        <time>2009-11-29T06:32:43Z</time>
      </trkpt>
      <trkpt lat="45.51034" lon="4.0506">
        <ele>653.5</ele>
        <time>2009-11-29T06:32:45Z</time>
      </trkpt>
      <trkpt lat="45.51032" lon="4.05034">
        <ele>653.5</ele>
        <time>2009-11-29T06:32:47Z</time>
      </trkpt>
      <trkpt lat="45.5103" lon="4.05015">
        <ele>654</ele>
        <time>2009-11-29T06:32:48Z</time>
      </trkpt>
      <trkpt lat="45.51024" lon="4.05">
        <ele>654</ele>
        <time>2009-11-29T06:32:51Z</time>
      </trkpt>
      <trkpt lat="45.51017" lon="4.04987">
        <ele>653.9</ele>
        <time>2009-11-29T06:32:55Z</time>
      </trkpt>
      <trkpt lat="45.51009" lon="4.04977">
        <ele>654.4</ele>
        <time>2009-11-29T06:33:01Z</time>
      </trkpt>
      <trkpt lat="45.51" lon="4.04962">
        <ele>655.4</ele>
        <time>2009-11-29T06:33:09Z</time>
      </trkpt>
      <trkpt lat="45.50994" lon="4.0495">
        <ele>656</ele>
        <time>2009-11-29T06:33:16Z</time>
      </trkpt>
      <trkpt lat="45.5099" lon="4.04935">
        <ele>657</ele>
        <time>2009-11-29T06:33:23Z</time>
      </trkpt>
      <trkpt lat="45.50987" lon="4.04921">
        <ele>658</ele>
        <time>2009-11-29T06:33:30Z</time>
      </trkpt>
      <trkpt lat="45.50983" lon="4.04907">
        <ele>658.7</ele>
        <time>2009-11-29T06:33:39Z</time>
      </trkpt>
      <trkpt lat="45.50976" lon="4.04893">
        <ele>659.5</ele>
        <time>2009-11-29T06:33:48Z</time>
      </trkpt>
      <trkpt lat="45.5097" lon="4.04879">
        <ele>660.5</ele>
        <time>2009-11-29T06:33:58Z</time>
      </trkpt>
      <trkpt lat="45.50963" lon="4.04865">
        <ele>661.6</ele>
        <time>2009-11-29T06:34:08Z</time>
      </trkpt>
      <trkpt lat="45.50954" lon="4.04853">
        <ele>663.4</ele>
        <time>2009-11-29T06:34:19Z</time>
      </trkpt>
      <trkpt lat="45.50946" lon="4.0484">
        <ele>666.7</ele>
        <time>2009-11-29T06:34:29Z</time>
      </trkpt>
      <trkpt lat="45.50939" lon="4.04827">
        <ele>670.8</ele>
        <time>2009-11-29T06:34:40Z</time>
      </trkpt>
      <trkpt lat="45.5093" lon="4.04814">
        <ele>673.8</ele>
        <time>2009-11-29T06:34:50Z</time>
      </trkpt>
      <trkpt lat="45.50921" lon="4.04802">
        <ele>678.2</ele>
        <time>2009-11-29T06:35:01Z</time>
      </trkpt>
      <trkpt lat="45.50911" lon="4.04791">
        <ele>680.2</ele>
        <time>2009-11-29T06:35:12Z</time>
      </trkpt>
      <trkpt lat="45.509" lon="4.04781">
        <ele>682.1</ele>
        <time>2009-11-29T06:35:22Z</time>
      </trkpt>
      <trkpt lat="45.5089" lon="4.04771">
        <ele>682.4</ele>
        <time>2009-11-29T06:35:30Z</time>
      </trkpt>
      <trkpt lat="45.50879" lon="4.04761">
        <ele>682.9</ele>
        <time>2009-11-29T06:35:37Z</time>
      </trkpt>
      <trkpt lat="45.50866" lon="4.04753">
        <ele>683.4</ele>
        <time>2009-11-29T06:35:46Z</time>
      </trkpt>
      <trkpt lat="45.50852" lon="4.04748">
        <ele>684.9</ele>
        <time>2009-11-29T06:35:53Z</time>
      </trkpt>
      <trkpt lat="45.50838" lon="4.04739">
        <ele>686.6</ele>
        <time>2009-11-29T06:36:02Z</time>
      </trkpt>
      <trkpt lat="45.50828" lon="4.04727">
        <ele>688</ele>
        <time>2009-11-29T06:36:09Z</time>
      </trkpt>
      <trkpt lat="45.50822" lon="4.04712">
        <ele>688.9</ele>
        <time>2009-11-29T06:36:14Z</time>
      </trkpt>
      <trkpt lat="45.50816" lon="4.04697">
        <ele>689.2</ele>
        <time>2009-11-29T06:36:19Z</time>
      </trkpt>
      <trkpt lat="45.50808" lon="4.04687">
        <ele>690.3</ele>
        <time>2009-11-29T06:36:25Z</time>
      </trkpt>
      <trkpt lat="45.50798" lon="4.04675">
        <ele>691</ele>
        <time>2009-11-29T06:36:30Z</time>
      </trkpt>
      <trkpt lat="45.50788" lon="4.04664">
        <ele>692.2</ele>
        <time>2009-11-29T06:36:37Z</time>
      </trkpt>
      <trkpt lat="45.50777" lon="4.04653">
        <ele>694</ele>
        <time>2009-11-29T06:36:43Z</time>
      </trkpt>
      <trkpt lat="45.50766" lon="4.04645">
        <ele>695.4</ele>
        <time>2009-11-29T06:36:50Z</time>
      </trkpt>
      <trkpt lat="45.50755" lon="4.04635">
        <ele>697.1</ele>
        <time>2009-11-29T06:36:57Z</time>
      </trkpt>
      <trkpt lat="45.50744" lon="4.04625">
        <ele>697.8</ele>
        <time>2009-11-29T06:37:04Z</time>
      </trkpt>
      <trkpt lat="45.50733" lon="4.04616">
        <ele>698.9</ele>
        <time>2009-11-29T06:37:10Z</time>
      </trkpt>
      <trkpt lat="45.50723" lon="4.04603">
        <ele>698.9</ele>
        <time>2009-11-29T06:37:17Z</time>
      </trkpt>
      <trkpt lat="45.50715" lon="4.0459">
        <ele>698.8</ele>
        <time>2009-11-29T06:37:24Z</time>
      </trkpt>
      <trkpt lat="45.50707" lon="4.04579">
        <ele>698.5</ele>
        <time>2009-11-29T06:37:29Z</time>
      </trkpt>
      <trkpt lat="45.50697" lon="4.04565">
        <ele>697.7</ele>
        <time>2009-11-29T06:37:36Z</time>
      </trkpt>
      <trkpt lat="45.50687" lon="4.04554">
        <ele>696.6</ele>
        <time>2009-11-29T06:37:43Z</time>
      </trkpt>
      <trkpt lat="45.50675" lon="4.04545">
        <ele>696.5</ele>
        <time>2009-11-29T06:37:52Z</time>
      </trkpt>
      <trkpt lat="45.50665" lon="4.04532">
        <ele>697.8</ele>
        <time>2009-11-29T06:38:00Z</time>
      </trkpt>
      <trkpt lat="45.50665" lon="4.04517">
        <ele>696.8</ele>
        <time>2009-11-29T06:38:07Z</time>
      </trkpt>
      <trkpt lat="45.50669" lon="4.04502">
        <ele>695</ele>
        <time>2009-11-29T06:38:14Z</time>
      </trkpt>
      <trkpt lat="45.50672" lon="4.04486">
        <ele>697</ele>
        <time>2009-11-29T06:38:19Z</time>
      </trkpt>
      <trkpt lat="45.50667" lon="4.04471">
        <ele>697.9</ele>
        <time>2009-11-29T06:38:25Z</time>
      </trkpt>
      <trkpt lat="45.50659" lon="4.04458">
        <ele>699.5</ele>
        <time>2009-11-29T06:38:32Z</time>
      </trkpt>
      <trkpt lat="45.50649" lon="4.04445">
        <ele>700</ele>
        <time>2009-11-29T06:38:39Z</time>
      </trkpt>
      <trkpt lat="45.50639" lon="4.04433">
        <ele>700</ele>
        <time>2009-11-29T06:38:45Z</time>
      </trkpt>
      <trkpt lat="45.5063" lon="4.0442">
        <ele>701.7</ele>
        <time>2009-11-29T06:38:51Z</time>
      </trkpt>
      <trkpt lat="45.50624" lon="4.04405">
        <ele>703.9</ele>
        <time>2009-11-29T06:38:57Z</time>
      </trkpt>
      <trkpt lat="45.50619" lon="4.0439">
        <ele>705.5</ele>
        <time>2009-11-29T06:39:03Z</time>
      </trkpt>
      <trkpt lat="45.50614" lon="4.04375">
        <ele>707.4</ele>
        <time>2009-11-29T06:39:08Z</time>
      </trkpt>
      <trkpt lat="45.5061" lon="4.04361">
        <ele>708.8</ele>
        <time>2009-11-29T06:39:13Z</time>
      </trkpt>
      <trkpt lat="45.50603" lon="4.04347">
        <ele>710.7</ele>
        <time>2009-11-29T06:39:19Z</time>
      </trkpt>
      <trkpt lat="45.50592" lon="4.04335">
        <ele>711</ele>
        <time>2009-11-29T06:39:25Z</time>
      </trkpt>
      <trkpt lat="45.50583" lon="4.04324">
        <ele>711.5</ele>
        <time>2009-11-29T06:39:30Z</time>
      </trkpt>
      <trkpt lat="45.50574" lon="4.04311">
        <ele>711.3</ele>
        <time>2009-11-29T06:39:35Z</time>
      </trkpt>
      <trkpt lat="45.50564" lon="4.04299">
        <ele>711.4</ele>
        <time>2009-11-29T06:39:40Z</time>
      </trkpt>
      <trkpt lat="45.50554" lon="4.04287">
        <ele>711.5</ele>
        <time>2009-11-29T06:39:45Z</time>
      </trkpt>
      <trkpt lat="45.50541" lon="4.04279">
        <ele>711.5</ele>
        <time>2009-11-29T06:39:50Z</time>
      </trkpt>
      <trkpt lat="45.50527" lon="4.04275">
        <ele>711.1</ele>
        <time>2009-11-29T06:40:04Z</time>
      </trkpt>
      <trkpt lat="45.50515" lon="4.04264">
        <ele>711.4</ele>
        <time>2009-11-29T06:40:18Z</time>
      </trkpt>
      <trkpt lat="45.50508" lon="4.04251">
        <ele>713</ele>
        <time>2009-11-29T06:40:24Z</time>
      </trkpt>
      <trkpt lat="45.50499" lon="4.04238">
        <ele>715.2</ele>
        <time>2009-11-29T06:40:32Z</time>
      </trkpt>
      <trkpt lat="45.50491" lon="4.04226">
        <ele>717.5</ele>
        <time>2009-11-29T06:40:41Z</time>
      </trkpt>
      <trkpt lat="45.50484" lon="4.04215">
        <ele>721.3</ele>
        <time>2009-11-29T06:40:46Z</time>
      </trkpt>
      <trkpt lat="45.5047" lon="4.04195">
        <ele>724.1</ele>
        <time>2009-11-29T06:41:50Z</time>
      </trkpt>
      <trkpt lat="45.50462" lon="4.04182">
        <ele>726.9</ele>
        <time>2009-11-29T06:41:59Z</time>
      </trkpt>
      <trkpt lat="45.50455" lon="4.04169">
        <ele>728.8</ele>
        <time>2009-11-29T06:42:08Z</time>
      </trkpt>
      <trkpt lat="45.5045" lon="4.04155">
        <ele>732.2</ele>
        <time>2009-11-29T06:42:18Z</time>
      </trkpt>
      <trkpt lat="45.50444" lon="4.04139">
        <ele>734.8</ele>
        <time>2009-11-29T06:42:27Z</time>
      </trkpt>
      <trkpt lat="45.50438" lon="4.04125">
        <ele>735.9</ele>
        <time>2009-11-29T06:42:34Z</time>
      </trkpt>
      <trkpt lat="45.50431" lon="4.04111">
        <ele>737.9</ele>
        <time>2009-11-29T06:42:43Z</time>
      </trkpt>
      <trkpt lat="45.50423" lon="4.04097">
        <ele>740.3</ele>
        <time>2009-11-29T06:42:51Z</time>
      </trkpt>
      <trkpt lat="45.50415" lon="4.04085">
        <ele>741.8</ele>
        <time>2009-11-29T06:43:00Z</time>
      </trkpt>
      <trkpt lat="45.50406" lon="4.04074">
        <ele>742.5</ele>
        <time>2009-11-29T06:43:11Z</time>
      </trkpt>
      <trkpt lat="45.50393" lon="4.04064">
        <ele>743.4</ele>
        <time>2009-11-29T06:43:21Z</time>
      </trkpt>
      <trkpt lat="45.5038" lon="4.04055">
        <ele>744</ele>
        <time>2009-11-29T06:43:29Z</time>
      </trkpt>
      <trkpt lat="45.50368" lon="4.04047">
        <ele>744.1</ele>
        <time>2009-11-29T06:43:38Z</time>
      </trkpt>
      <trkpt lat="45.50355" lon="4.04039">
        <ele>744.1</ele>
        <time>2009-11-29T06:43:46Z</time>
      </trkpt>
      <trkpt lat="45.50343" lon="4.04029">
        <ele>746.1</ele>
        <time>2009-11-29T06:43:54Z</time>
      </trkpt>
      <trkpt lat="45.50331" lon="4.04018">
        <ele>749.4</ele>
        <time>2009-11-29T06:44:03Z</time>
      </trkpt>
      <trkpt lat="45.50324" lon="4.04004">
        <ele>752.8</ele>
        <time>2009-11-29T06:44:12Z</time>
      </trkpt>
      <trkpt lat="45.50318" lon="4.03991">
        <ele>753.1</ele>
        <time>2009-11-29T06:44:21Z</time>
      </trkpt>
      <trkpt lat="45.50313" lon="4.03977">
        <ele>754.2</ele>
        <time>2009-11-29T06:44:30Z</time>
      </trkpt>
      <trkpt lat="45.50317" lon="4.03959">
        <ele>757.8</ele>
        <time>2009-11-29T06:44:39Z</time>
      </trkpt>
      <trkpt lat="45.50316" lon="4.0394">
        <ele>763.8</ele>
        <time>2009-11-29T06:44:43Z</time>
      </trkpt>
      <trkpt lat="45.5032" lon="4.03932">
        <ele>762.5</ele>
        <time>2009-11-29T06:47:30Z</time>
      </trkpt>
      <trkpt lat="45.50323" lon="4.03915">
        <ele>765.2</ele>
        <time>2009-11-29T06:47:35Z</time>
      </trkpt>
      <trkpt lat="45.50323" lon="4.03899">
        <ele>764.7</ele>
        <time>2009-11-29T06:47:42Z</time>
      </trkpt>
      <trkpt lat="45.50326" lon="4.03882">
        <ele>764.9</ele>
        <time>2009-11-29T06:47:49Z</time>
      </trkpt>
      <trkpt lat="45.50328" lon="4.03867">
        <ele>765.3</ele>
        <time>2009-11-29T06:47:54Z</time>
      </trkpt>
      <trkpt lat="45.50333" lon="4.03853">
        <ele>765.8</ele>
        <time>2009-11-29T06:48:01Z</time>
      </trkpt>
      <trkpt lat="45.50339" lon="4.03841">
        <ele>765.7</ele>
        <time>2009-11-29T06:48:08Z</time>
      </trkpt>
      <trkpt lat="45.50345" lon="4.03827">
        <ele>766.8</ele>
        <time>2009-11-29T06:48:15Z</time>
      </trkpt>
      <trkpt lat="45.50351" lon="4.03812">
        <ele>767.2</ele>
        <time>2009-11-29T06:48:24Z</time>
      </trkpt>
      <trkpt lat="45.50351" lon="4.03797">
        <ele>770.5</ele>
        <time>2009-11-29T06:48:31Z</time>
      </trkpt>
      <trkpt lat="45.50343" lon="4.03784">
        <ele>772</ele>
        <time>2009-11-29T06:48:39Z</time>
      </trkpt>
      <trkpt lat="45.50341" lon="4.03769">
        <ele>773.6</ele>
        <time>2009-11-29T06:48:45Z</time>
      </trkpt>
      <trkpt lat="45.50338" lon="4.03754">
        <ele>776.2</ele>
        <time>2009-11-29T06:48:50Z</time>
      </trkpt>
      <trkpt lat="45.50338" lon="4.03738">
        <ele>776.5</ele>
        <time>2009-11-29T06:48:56Z</time>
      </trkpt>
      <trkpt lat="45.50338" lon="4.03722">
        <ele>776.5</ele>
        <time>2009-11-29T06:49:01Z</time>
      </trkpt>
      <trkpt lat="45.50338" lon="4.03707">
        <ele>776.5</ele>
        <time>2009-11-29T06:49:06Z</time>
      </trkpt>
      <trkpt lat="45.50336" lon="4.03691">
        <ele>776</ele>
        <time>2009-11-29T06:49:12Z</time>
      </trkpt>
      <trkpt lat="45.50337" lon="4.03676">
        <ele>776.6</ele>
        <time>2009-11-29T06:49:17Z</time>
      </trkpt>
      <trkpt lat="45.50339" lon="4.0366">
        <ele>778.4</ele>
        <time>2009-11-29T06:49:22Z</time>
      </trkpt>
      <trkpt lat="45.50343" lon="4.03646">
        <ele>779.4</ele>
        <time>2009-11-29T06:49:27Z</time>
      </trkpt>
      <trkpt lat="45.50349" lon="4.03632">
        <ele>780</ele>
        <time>2009-11-29T06:49:32Z</time>
      </trkpt>
      <trkpt lat="45.50358" lon="4.03619">
        <ele>779.3</ele>
        <time>2009-11-29T06:49:39Z</time>
      </trkpt>
      <trkpt lat="45.50367" lon="4.03607">
        <ele>779.6</ele>
        <time>2009-11-29T06:49:44Z</time>
      </trkpt>
      <trkpt lat="45.50374" lon="4.03594">
        <ele>781.4</ele>
        <time>2009-11-29T06:49:51Z</time>
      </trkpt>
      <trkpt lat="45.50383" lon="4.03581">
        <ele>785.2</ele>
        <time>2009-11-29T06:49:59Z</time>
      </trkpt>
      <trkpt lat="45.50392" lon="4.03569">
        <ele>787.3</ele>
        <time>2009-11-29T06:50:07Z</time>
      </trkpt>
      <trkpt lat="45.50402" lon="4.03558">
        <ele>788.3</ele>
        <time>2009-11-29T06:50:14Z</time>
      </trkpt>
      <trkpt lat="45.50411" lon="4.03546">
        <ele>788.7</ele>
        <time>2009-11-29T06:50:22Z</time>
      </trkpt>
      <trkpt lat="45.50416" lon="4.03531">
        <ele>789.1</ele>
        <time>2009-11-29T06:50:30Z</time>
      </trkpt>
      <trkpt lat="45.50421" lon="4.03517">
        <ele>790</ele>
        <time>2009-11-29T06:50:39Z</time>
      </trkpt>
      <trkpt lat="45.50429" lon="4.03505">
        <ele>789.1</ele>
        <time>2009-11-29T06:50:48Z</time>
      </trkpt>
      <trkpt lat="45.50439" lon="4.03492">
        <ele>792.6</ele>
        <time>2009-11-29T06:50:57Z</time>
      </trkpt>
      <trkpt lat="45.5045" lon="4.03481">
        <ele>793.6</ele>
        <time>2009-11-29T06:51:06Z</time>
      </trkpt>
      <trkpt lat="45.5046" lon="4.03471">
        <ele>793.8</ele>
        <time>2009-11-29T06:51:16Z</time>
      </trkpt>
      <trkpt lat="45.5047" lon="4.0346">
        <ele>794.2</ele>
        <time>2009-11-29T06:51:25Z</time>
      </trkpt>
      <trkpt lat="45.5048" lon="4.03448">
        <ele>795.3</ele>
        <time>2009-11-29T06:51:34Z</time>
      </trkpt>
      <trkpt lat="45.50488" lon="4.03436">
        <ele>796.9</ele>
        <time>2009-11-29T06:51:44Z</time>
      </trkpt>
      <trkpt lat="45.50498" lon="4.03425">
        <ele>798.9</ele>
        <time>2009-11-29T06:51:53Z</time>
      </trkpt>
      <trkpt lat="45.50507" lon="4.03413">
        <ele>800.3</ele>
        <time>2009-11-29T06:52:02Z</time>
      </trkpt>
      <trkpt lat="45.50514" lon="4.03399">
        <ele>802.8</ele>
        <time>2009-11-29T06:52:11Z</time>
      </trkpt>
      <trkpt lat="45.50519" lon="4.03383">
        <ele>804.9</ele>
        <time>2009-11-29T06:52:21Z</time>
      </trkpt>
      <trkpt lat="45.5052" lon="4.03368">
        <ele>807.8</ele>
        <time>2009-11-29T06:52:31Z</time>
      </trkpt>
      <trkpt lat="45.50514" lon="4.03355">
        <ele>810.1</ele>
        <time>2009-11-29T06:52:42Z</time>
      </trkpt>
      <trkpt lat="45.50503" lon="4.03345">
        <ele>813.3</ele>
        <time>2009-11-29T06:52:56Z</time>
      </trkpt>
      <trkpt lat="45.50491" lon="4.03336">
        <ele>814.5</ele>
        <time>2009-11-29T06:53:11Z</time>
      </trkpt>
      <trkpt lat="45.50478" lon="4.03326">
        <ele>816</ele>
        <time>2009-11-29T06:53:23Z</time>
      </trkpt>
      <trkpt lat="45.50467" lon="4.03316">
        <ele>818.5</ele>
        <time>2009-11-29T06:53:34Z</time>
      </trkpt>
      <trkpt lat="45.50457" lon="4.03306">
        <ele>820.5</ele>
        <time>2009-11-29T06:53:46Z</time>
      </trkpt>
      <trkpt lat="45.50453" lon="4.03291">
        <ele>827.9</ele>
        <time>2009-11-29T06:53:57Z</time>
      </trkpt>
      <trkpt lat="45.50455" lon="4.03276">
        <ele>833</ele>
        <time>2009-11-29T06:54:05Z</time>
      </trkpt>
      <trkpt lat="45.50457" lon="4.03261">
        <ele>835.9</ele>
        <time>2009-11-29T06:54:14Z</time>
      </trkpt>
      <trkpt lat="45.50459" lon="4.03247">
        <ele>837.1</ele>
        <time>2009-11-29T06:54:26Z</time>
      </trkpt>
      <trkpt lat="45.50462" lon="4.03231">
        <ele>840.1</ele>
        <time>2009-11-29T06:54:35Z</time>
      </trkpt>
      <trkpt lat="45.50454" lon="4.03217">
        <ele>842.5</ele>
        <time>2009-11-29T06:54:44Z</time>
      </trkpt>
      <trkpt lat="45.50443" lon="4.03209">
        <ele>844.4</ele>
        <time>2009-11-29T06:54:54Z</time>
      </trkpt>
      <trkpt lat="45.50435" lon="4.03195">
        <ele>846.2</ele>
        <time>2009-11-29T06:55:02Z</time>
      </trkpt>
      <trkpt lat="45.50429" lon="4.03181">
        <ele>847.7</ele>
        <time>2009-11-29T06:55:10Z</time>
      </trkpt>
      <trkpt lat="45.50425" lon="4.03167">
        <ele>849</ele>
        <time>2009-11-29T06:55:17Z</time>
      </trkpt>
      <trkpt lat="45.50423" lon="4.03151">
        <ele>851.2</ele>
        <time>2009-11-29T06:55:24Z</time>
      </trkpt>
      <trkpt lat="45.50424" lon="4.03136">
        <ele>851.5</ele>
        <time>2009-11-29T06:55:31Z</time>
      </trkpt>
      <trkpt lat="45.50427" lon="4.0312">
        <ele>852.5</ele>
        <time>2009-11-29T06:55:37Z</time>
      </trkpt>
      <trkpt lat="45.50431" lon="4.03105">
        <ele>852.8</ele>
        <time>2009-11-29T06:55:44Z</time>
      </trkpt>
      <trkpt lat="45.50436" lon="4.0309">
        <ele>853.9</ele>
        <time>2009-11-29T06:55:51Z</time>
      </trkpt>
      <trkpt lat="45.5044" lon="4.03075">
        <ele>854.1</ele>
        <time>2009-11-29T06:55:59Z</time>
      </trkpt>
      <trkpt lat="45.50445" lon="4.0306">
        <ele>855.4</ele>
        <time>2009-11-29T06:56:07Z</time>
      </trkpt>
      <trkpt lat="45.50449" lon="4.03044">
        <ele>855.6</ele>
        <time>2009-11-29T06:56:14Z</time>
      </trkpt>
      <trkpt lat="45.50449" lon="4.0304">
        <ele>855</ele>
        <time>2009-11-29T06:56:27Z</time>
      </trkpt>
      <trkpt lat="45.5043" lon="4.03041">
        <ele>857.1</ele>
        <time>2009-11-29T06:56:42Z</time>
      </trkpt>
      <trkpt lat="45.50415" lon="4.03042">
        <ele>858.8</ele>
        <time>2009-11-29T06:56:54Z</time>
      </trkpt>
      <trkpt lat="45.504" lon="4.03044">
        <ele>860.3</ele>
        <time>2009-11-29T06:57:05Z</time>
      </trkpt>
      <trkpt lat="45.50385" lon="4.03048">
        <ele>861.2</ele>
        <time>2009-11-29T06:57:15Z</time>
      </trkpt>
      <trkpt lat="45.5037" lon="4.03051">
        <ele>862.6</ele>
        <time>2009-11-29T06:57:25Z</time>
      </trkpt>
      <trkpt lat="45.50356" lon="4.03056">
        <ele>864</ele>
        <time>2009-11-29T06:57:36Z</time>
      </trkpt>
      <trkpt lat="45.50342" lon="4.03062">
        <ele>865.9</ele>
        <time>2009-11-29T06:57:48Z</time>
      </trkpt>
      <trkpt lat="45.50327" lon="4.03067">
        <ele>865.7</ele>
        <time>2009-11-29T06:57:59Z</time>
      </trkpt>
      <trkpt lat="45.50314" lon="4.03071">
        <ele>864.3</ele>
        <time>2009-11-29T06:58:11Z</time>
      </trkpt>
      <trkpt lat="45.503" lon="4.03078">
        <ele>865.2</ele>
        <time>2009-11-29T06:58:23Z</time>
      </trkpt>
      <trkpt lat="45.50287" lon="4.03083">
        <ele>867.5</ele>
        <time>2009-11-29T06:58:34Z</time>
      </trkpt>
      <trkpt lat="45.50272" lon="4.03087">
        <ele>870</ele>
        <time>2009-11-29T06:58:46Z</time>
      </trkpt>
      <trkpt lat="45.50257" lon="4.03091">
        <ele>872.7</ele>
        <time>2009-11-29T06:58:58Z</time>
      </trkpt>
      <trkpt lat="45.50244" lon="4.03096">
        <ele>873.5</ele>
        <time>2009-11-29T06:59:10Z</time>
      </trkpt>
      <trkpt lat="45.50229" lon="4.03101">
        <ele>874.8</ele>
        <time>2009-11-29T06:59:22Z</time>
      </trkpt>
      <trkpt lat="45.50214" lon="4.03104">
        <ele>875.5</ele>
        <time>2009-11-29T06:59:34Z</time>
      </trkpt>
      <trkpt lat="45.50198" lon="4.03104">
        <ele>877.1</ele>
        <time>2009-11-29T06:59:45Z</time>
      </trkpt>
      <trkpt lat="45.50184" lon="4.03103">
        <ele>880.4</ele>
        <time>2009-11-29T06:59:54Z</time>
      </trkpt>
      <trkpt lat="45.50169" lon="4.03099">
        <ele>884.4</ele>
        <time>2009-11-29T07:00:04Z</time>
      </trkpt>
      <trkpt lat="45.50155" lon="4.03092">
        <ele>886.9</ele>
        <time>2009-11-29T07:00:13Z</time>
      </trkpt>
      <trkpt lat="45.50141" lon="4.03086">
        <ele>888</ele>
        <time>2009-11-29T07:00:25Z</time>
      </trkpt>
      <trkpt lat="45.50124" lon="4.03083">
        <ele>887.7</ele>
        <time>2009-11-29T07:00:41Z</time>
      </trkpt>
      <trkpt lat="45.50118" lon="4.03076">
        <ele>889.9</ele>
        <time>2009-11-29T07:00:51Z</time>
      </trkpt>
      <trkpt lat="45.50109" lon="4.03065">
        <ele>888.8</ele>
        <time>2009-11-29T07:01:26Z</time>
      </trkpt>
      <trkpt lat="45.50099" lon="4.03053">
        <ele>889.3</ele>
        <time>2009-11-29T07:01:32Z</time>
      </trkpt>
      <trkpt lat="45.50091" lon="4.03041">
        <ele>889.8</ele>
        <time>2009-11-29T07:01:38Z</time>
      </trkpt>
      <trkpt lat="45.50082" lon="4.03027">
        <ele>890.8</ele>
        <time>2009-11-29T07:01:44Z</time>
      </trkpt>
      <trkpt lat="45.50073" lon="4.03014">
        <ele>891.5</ele>
        <time>2009-11-29T07:01:50Z</time>
      </trkpt>
      <trkpt lat="45.50066" lon="4.03002">
        <ele>891.7</ele>
        <time>2009-11-29T07:01:56Z</time>
      </trkpt>
      <trkpt lat="45.50057" lon="4.02988">
        <ele>892</ele>
        <time>2009-11-29T07:02:02Z</time>
      </trkpt>
      <trkpt lat="45.50049" lon="4.02973">
        <ele>892.5</ele>
        <time>2009-11-29T07:02:07Z</time>
      </trkpt>
      <trkpt lat="45.50043" lon="4.02959">
        <ele>892.8</ele>
        <time>2009-11-29T07:02:12Z</time>
      </trkpt>
      <trkpt lat="45.50037" lon="4.02945">
        <ele>893</ele>
        <time>2009-11-29T07:02:17Z</time>
      </trkpt>
      <trkpt lat="45.5003" lon="4.0293">
        <ele>893.3</ele>
        <time>2009-11-29T07:02:22Z</time>
      </trkpt>
      <trkpt lat="45.50024" lon="4.02915">
        <ele>893.4</ele>
        <time>2009-11-29T07:02:27Z</time>
      </trkpt>
      <trkpt lat="45.50018" lon="4.029">
        <ele>893.5</ele>
        <time>2009-11-29T07:02:32Z</time>
      </trkpt>
      <trkpt lat="45.50011" lon="4.02885">
        <ele>894.3</ele>
        <time>2009-11-29T07:02:37Z</time>
      </trkpt>
      <trkpt lat="45.50006" lon="4.0287">
        <ele>896.3</ele>
        <time>2009-11-29T07:02:43Z</time>
      </trkpt>
      <trkpt lat="45.50002" lon="4.02856">
        <ele>898</ele>
        <time>2009-11-29T07:02:49Z</time>
      </trkpt>
      <trkpt lat="45.49994" lon="4.02843">
        <ele>898.4</ele>
        <time>2009-11-29T07:02:56Z</time>
      </trkpt>
      <trkpt lat="45.49987" lon="4.0283">
        <ele>898.9</ele>
        <time>2009-11-29T07:03:02Z</time>
      </trkpt>
      <trkpt lat="45.49976" lon="4.02819">
        <ele>901.4</ele>
        <time>2009-11-29T07:03:09Z</time>
      </trkpt>
      <trkpt lat="45.49963" lon="4.02811">
        <ele>903.5</ele>
        <time>2009-11-29T07:03:19Z</time>
      </trkpt>
      <trkpt lat="45.4995" lon="4.02805">
        <ele>905.6</ele>
        <time>2009-11-29T07:03:33Z</time>
      </trkpt>
      <trkpt lat="45.4994" lon="4.02798">
        <ele>907.1</ele>
        <time>2009-11-29T07:03:42Z</time>
      </trkpt>
      <trkpt lat="45.49926" lon="4.0279">
        <ele>909.1</ele>
        <time>2009-11-29T07:04:20Z</time>
      </trkpt>
      <trkpt lat="45.49915" lon="4.02782">
        <ele>910.7</ele>
        <time>2009-11-29T07:04:51Z</time>
      </trkpt>
      <trkpt lat="45.49907" lon="4.02768">
        <ele>912</ele>
        <time>2009-11-29T07:05:04Z</time>
      </trkpt>
      <trkpt lat="45.499" lon="4.02755">
        <ele>912.8</ele>
        <time>2009-11-29T07:05:11Z</time>
      </trkpt>
      <trkpt lat="45.49888" lon="4.02744">
        <ele>913.3</ele>
        <time>2009-11-29T07:05:33Z</time>
      </trkpt>
      <trkpt lat="45.4988" lon="4.02733">
        <ele>916.5</ele>
        <time>2009-11-29T07:05:45Z</time>
      </trkpt>
      <trkpt lat="45.49873" lon="4.0272">
        <ele>918</ele>
        <time>2009-11-29T07:05:57Z</time>
      </trkpt>
      <trkpt lat="45.49864" lon="4.02709">
        <ele>922.6</ele>
        <time>2009-11-29T07:06:08Z</time>
      </trkpt>
      <trkpt lat="45.49854" lon="4.02697">
        <ele>924.6</ele>
        <time>2009-11-29T07:06:17Z</time>
      </trkpt>
      <trkpt lat="45.49845" lon="4.02687">
        <ele>927</ele>
        <time>2009-11-29T07:06:22Z</time>
      </trkpt>
      <trkpt lat="45.49838" lon="4.02672">
        <ele>929</ele>
        <time>2009-11-29T07:06:50Z</time>
      </trkpt>
      <trkpt lat="45.49829" lon="4.02659">
        <ele>932.2</ele>
        <time>2009-11-29T07:07:00Z</time>
      </trkpt>
      <trkpt lat="45.49818" lon="4.02648">
        <ele>933.2</ele>
        <time>2009-11-29T07:07:11Z</time>
      </trkpt>
      <trkpt lat="45.49808" lon="4.02638">
        <ele>934.5</ele>
        <time>2009-11-29T07:07:20Z</time>
      </trkpt>
      <trkpt lat="45.49795" lon="4.02628">
        <ele>935.2</ele>
        <time>2009-11-29T07:07:27Z</time>
      </trkpt>
      <trkpt lat="45.49782" lon="4.02623">
        <ele>936.9</ele>
        <time>2009-11-29T07:07:35Z</time>
      </trkpt>
      <trkpt lat="45.49766" lon="4.02621">
        <ele>938.1</ele>
        <time>2009-11-29T07:07:44Z</time>
      </trkpt>
      <trkpt lat="45.49751" lon="4.02621">
        <ele>939.5</ele>
        <time>2009-11-29T07:07:51Z</time>
      </trkpt>
      <trkpt lat="45.49736" lon="4.02623">
        <ele>941</ele>
        <time>2009-11-29T07:08:00Z</time>
      </trkpt>
      <trkpt lat="45.49722" lon="4.02615">
        <ele>943.9</ele>
        <time>2009-11-29T07:08:11Z</time>
      </trkpt>
      <trkpt lat="45.4971" lon="4.02606">
        <ele>945.8</ele>
        <time>2009-11-29T07:08:22Z</time>
      </trkpt>
      <trkpt lat="45.497" lon="4.02595">
        <ele>947.8</ele>
        <time>2009-11-29T07:08:33Z</time>
      </trkpt>
      <trkpt lat="45.49691" lon="4.02583">
        <ele>949.7</ele>
        <time>2009-11-29T07:08:45Z</time>
      </trkpt>
      <trkpt lat="45.49684" lon="4.0257">
        <ele>951.4</ele>
        <time>2009-11-29T07:08:57Z</time>
      </trkpt>
      <trkpt lat="45.49679" lon="4.02555">
        <ele>951.5</ele>
        <time>2009-11-29T07:09:08Z</time>
      </trkpt>
      <trkpt lat="45.49684" lon="4.0254">
        <ele>951.7</ele>
        <time>2009-11-29T07:09:18Z</time>
      </trkpt>
      <trkpt lat="45.49686" lon="4.02524">
        <ele>951.5</ele>
        <time>2009-11-29T07:09:29Z</time>
      </trkpt>
      <trkpt lat="45.49685" lon="4.0251">
        <ele>952.5</ele>
        <time>2009-11-29T07:09:39Z</time>
      </trkpt>
      <trkpt lat="45.49679" lon="4.02496">
        <ele>953.7</ele>
        <time>2009-11-29T07:09:51Z</time>
      </trkpt>
      <trkpt lat="45.49673" lon="4.02481">
        <ele>954.4</ele>
        <time>2009-11-29T07:10:03Z</time>
      </trkpt>
      <trkpt lat="45.49669" lon="4.02467">
        <ele>954.6</ele>
        <time>2009-11-29T07:10:16Z</time>
      </trkpt>
      <trkpt lat="45.49667" lon="4.02453">
        <ele>952.6</ele>
        <time>2009-11-29T07:10:27Z</time>
      </trkpt>
      <trkpt lat="45.49667" lon="4.02438">
        <ele>951.3</ele>
        <time>2009-11-29T07:10:38Z</time>
      </trkpt>
      <trkpt lat="45.49671" lon="4.02423">
        <ele>950.9</ele>
        <time>2009-11-29T07:10:49Z</time>
      </trkpt>
      <trkpt lat="45.49676" lon="4.0241">
        <ele>952.2</ele>
        <time>2009-11-29T07:11:01Z</time>
      </trkpt>
      <trkpt lat="45.49684" lon="4.02396">
        <ele>952</ele>
        <time>2009-11-29T07:11:15Z</time>
      </trkpt>
      <trkpt lat="45.49685" lon="4.02382">
        <ele>954.3</ele>
        <time>2009-11-29T07:11:29Z</time>
      </trkpt>
      <trkpt lat="45.49686" lon="4.02368">
        <ele>957.2</ele>
        <time>2009-11-29T07:11:41Z</time>
      </trkpt>
      <trkpt lat="45.49686" lon="4.02353">
        <ele>959.3</ele>
        <time>2009-11-29T07:11:51Z</time>
      </trkpt>
      <trkpt lat="45.49687" lon="4.02338">
        <ele>960.4</ele>
        <time>2009-11-29T07:12:01Z</time>
      </trkpt>
      <trkpt lat="45.49685" lon="4.02323">
        <ele>962.3</ele>
        <time>2009-11-29T07:12:11Z</time>
      </trkpt>
      <trkpt lat="45.49685" lon="4.02308">
        <ele>964.4</ele>
        <time>2009-11-29T07:12:19Z</time>
      </trkpt>
      <trkpt lat="45.49684" lon="4.02291">
        <ele>967.4</ele>
        <time>2009-11-29T07:12:28Z</time>
      </trkpt>
      <trkpt lat="45.49679" lon="4.02276">
        <ele>968.9</ele>
        <time>2009-11-29T07:12:36Z</time>
      </trkpt>
      <trkpt lat="45.49674" lon="4.02262">
        <ele>969.8</ele>
        <time>2009-11-29T07:12:44Z</time>
      </trkpt>
      <trkpt lat="45.49674" lon="4.02245">
        <ele>970.7</ele>
        <time>2009-11-29T07:12:51Z</time>
      </trkpt>
      <trkpt lat="45.49676" lon="4.02228">
        <ele>973</ele>
        <time>2009-11-29T07:12:56Z</time>
      </trkpt>
      <trkpt lat="45.49677" lon="4.02212">
        <ele>974.6</ele>
        <time>2009-11-29T07:13:03Z</time>
      </trkpt>
      <trkpt lat="45.49678" lon="4.02196">
        <ele>975.9</ele>
        <time>2009-11-29T07:13:08Z</time>
      </trkpt>
      <trkpt lat="45.49679" lon="4.0218">
        <ele>977.3</ele>
        <time>2009-11-29T07:13:14Z</time>
      </trkpt>
      <trkpt lat="45.49677" lon="4.02164">
        <ele>978.3</ele>
        <time>2009-11-29T07:13:19Z</time>
      </trkpt>
      <trkpt lat="45.49672" lon="4.02149">
        <ele>979</ele>
        <time>2009-11-29T07:13:24Z</time>
      </trkpt>
      <trkpt lat="45.49666" lon="4.02136">
        <ele>979.5</ele>
        <time>2009-11-29T07:13:29Z</time>
      </trkpt>
      <trkpt lat="45.49659" lon="4.02122">
        <ele>980.1</ele>
        <time>2009-11-29T07:13:36Z</time>
      </trkpt>
      <trkpt lat="45.49654" lon="4.02106">
        <ele>981</ele>
        <time>2009-11-29T07:13:41Z</time>
      </trkpt>
      <trkpt lat="45.49649" lon="4.02092">
        <ele>981.6</ele>
        <time>2009-11-29T07:13:46Z</time>
      </trkpt>
      <trkpt lat="45.49644" lon="4.02076">
        <ele>983.4</ele>
        <time>2009-11-29T07:13:51Z</time>
      </trkpt>
      <trkpt lat="45.4964" lon="4.0206">
        <ele>983.3</ele>
        <time>2009-11-29T07:13:55Z</time>
      </trkpt>
      <trkpt lat="45.49637" lon="4.02045">
        <ele>983.7</ele>
        <time>2009-11-29T07:14:00Z</time>
      </trkpt>
      <trkpt lat="45.49637" lon="4.0203">
        <ele>984.5</ele>
        <time>2009-11-29T07:14:04Z</time>
      </trkpt>
      <trkpt lat="45.49637" lon="4.02015">
        <ele>985.2</ele>
        <time>2009-11-29T07:14:07Z</time>
      </trkpt>
      <trkpt lat="45.49638" lon="4.01999">
        <ele>986.1</ele>
        <time>2009-11-29T07:14:12Z</time>
      </trkpt>
      <trkpt lat="45.4964" lon="4.01982">
        <ele>987.5</ele>
        <time>2009-11-29T07:14:17Z</time>
      </trkpt>
      <trkpt lat="45.49642" lon="4.01965">
        <ele>988.8</ele>
        <time>2009-11-29T07:14:22Z</time>
      </trkpt>
      <trkpt lat="45.49644" lon="4.01949">
        <ele>989.9</ele>
        <time>2009-11-29T07:14:27Z</time>
      </trkpt>
      <trkpt lat="45.49647" lon="4.01933">
        <ele>991</ele>
        <time>2009-11-29T07:14:32Z</time>
      </trkpt>
      <trkpt lat="45.49649" lon="4.01917">
        <ele>991.8</ele>
        <time>2009-11-29T07:14:37Z</time>
      </trkpt>
      <trkpt lat="45.4965" lon="4.01901">
        <ele>992.1</ele>
        <time>2009-11-29T07:14:42Z</time>
      </trkpt>
      <trkpt lat="45.4965" lon="4.01883">
        <ele>992.8</ele>
        <time>2009-11-29T07:14:47Z</time>
      </trkpt>
      <trkpt lat="45.49648" lon="4.01867">
        <ele>993.5</ele>
        <time>2009-11-29T07:14:52Z</time>
      </trkpt>
      <trkpt lat="45.49644" lon="4.01852">
        <ele>995</ele>
        <time>2009-11-29T07:14:57Z</time>
      </trkpt>
      <trkpt lat="45.49638" lon="4.01837">
        <ele>997.2</ele>
        <time>2009-11-29T07:15:03Z</time>
      </trkpt>
      <trkpt lat="45.49631" lon="4.01821">
        <ele>998.7</ele>
        <time>2009-11-29T07:15:08Z</time>
      </trkpt>
      <trkpt lat="45.49624" lon="4.01807">
        <ele>1000.5</ele>
        <time>2009-11-29T07:15:15Z</time>
      </trkpt>
      <trkpt lat="45.49617" lon="4.01795">
        <ele>1003.2</ele>
        <time>2009-11-29T07:15:21Z</time>
      </trkpt>
      <trkpt lat="45.49609" lon="4.01781">
        <ele>1005.4</ele>
        <time>2009-11-29T07:15:27Z</time>
      </trkpt>
      <trkpt lat="45.49602" lon="4.01768">
        <ele>1006.4</ele>
        <time>2009-11-29T07:15:34Z</time>
      </trkpt>
      <trkpt lat="45.49595" lon="4.01755">
        <ele>1007.4</ele>
        <time>2009-11-29T07:15:40Z</time>
      </trkpt>
      <trkpt lat="45.49588" lon="4.01741">
        <ele>1008.5</ele>
        <time>2009-11-29T07:15:45Z</time>
      </trkpt>
      <trkpt lat="45.49581" lon="4.01728">
        <ele>1009.4</ele>
        <time>2009-11-29T07:15:51Z</time>
      </trkpt>
      <trkpt lat="45.49573" lon="4.01714">
        <ele>1009.8</ele>
        <time>2009-11-29T07:15:57Z</time>
      </trkpt>
      <trkpt lat="45.49565" lon="4.017">
        <ele>1010.8</ele>
        <time>2009-11-29T07:16:03Z</time>
      </trkpt>
      <trkpt lat="45.49555" lon="4.01687">
        <ele>1012.1</ele>
        <time>2009-11-29T07:16:10Z</time>
      </trkpt>
      <trkpt lat="45.49545" lon="4.01676">
        <ele>1013</ele>
        <time>2009-11-29T07:16:17Z</time>
      </trkpt>
      <trkpt lat="45.49536" lon="4.01664">
        <ele>1015.4</ele>
        <time>2009-11-29T07:16:27Z</time>
      </trkpt>
      <trkpt lat="45.49526" lon="4.01652">
        <ele>1017.4</ele>
        <time>2009-11-29T07:16:38Z</time>
      </trkpt>
      <trkpt lat="45.49518" lon="4.0164">
        <ele>1018</ele>
        <time>2009-11-29T07:16:51Z</time>
      </trkpt>
      <trkpt lat="45.49507" lon="4.01629">
        <ele>1019.3</ele>
        <time>2009-11-29T07:17:04Z</time>
      </trkpt>
      <trkpt lat="45.49495" lon="4.0162">
        <ele>1021.2</ele>
        <time>2009-11-29T07:17:17Z</time>
      </trkpt>
      <trkpt lat="45.49481" lon="4.01617">
        <ele>1022.2</ele>
        <time>2009-11-29T07:17:33Z</time>
      </trkpt>
      <trkpt lat="45.49468" lon="4.01611">
        <ele>1024.3</ele>
        <time>2009-11-29T07:17:48Z</time>
      </trkpt>
      <trkpt lat="45.49454" lon="4.01605">
        <ele>1027.4</ele>
        <time>2009-11-29T07:18:00Z</time>
      </trkpt>
      <trkpt lat="45.4944" lon="4.01601">
        <ele>1033.2</ele>
        <time>2009-11-29T07:18:11Z</time>
      </trkpt>
      <trkpt lat="45.49427" lon="4.01596">
        <ele>1035.3</ele>
        <time>2009-11-29T07:18:23Z</time>
      </trkpt>
      <trkpt lat="45.49413" lon="4.0159">
        <ele>1036.5</ele>
        <time>2009-11-29T07:18:34Z</time>
      </trkpt>
      <trkpt lat="45.494" lon="4.01582">
        <ele>1038.3</ele>
        <time>2009-11-29T07:18:44Z</time>
      </trkpt>
      <trkpt lat="45.49388" lon="4.01571">
        <ele>1037.9</ele>
        <time>2009-11-29T07:18:53Z</time>
      </trkpt>
      <trkpt lat="45.4938" lon="4.01558">
        <ele>1038</ele>
        <time>2009-11-29T07:19:02Z</time>
      </trkpt>
      <trkpt lat="45.49374" lon="4.01542">
        <ele>1038.5</ele>
        <time>2009-11-29T07:19:08Z</time>
      </trkpt>
      <trkpt lat="45.4937" lon="4.01527">
        <ele>1037.9</ele>
        <time>2009-11-29T07:19:13Z</time>
      </trkpt>
      <trkpt lat="45.49367" lon="4.01511">
        <ele>1038.1</ele>
        <time>2009-11-29T07:19:18Z</time>
      </trkpt>
      <trkpt lat="45.49363" lon="4.01496">
        <ele>1038</ele>
        <time>2009-11-29T07:19:23Z</time>
      </trkpt>
      <trkpt lat="45.49358" lon="4.01481">
        <ele>1038.1</ele>
        <time>2009-11-29T07:19:28Z</time>
      </trkpt>
      <trkpt lat="45.49352" lon="4.01468">
        <ele>1038.8</ele>
        <time>2009-11-29T07:19:35Z</time>
      </trkpt>
      <trkpt lat="45.49346" lon="4.01453">
        <ele>1039.1</ele>
        <time>2009-11-29T07:19:42Z</time>
      </trkpt>
      <trkpt lat="45.49338" lon="4.01438">
        <ele>1039.3</ele>
        <time>2009-11-29T07:19:49Z</time>
      </trkpt>
      <trkpt lat="45.49325" lon="4.01424">
        <ele>1044.1</ele>
        <time>2009-11-29T07:19:54Z</time>
      </trkpt>
      <trkpt lat="45.49321" lon="4.01422">
        <ele>1047.2</ele>
        <time>2009-11-29T07:20:15Z</time>
      </trkpt>
      <trkpt lat="45.493" lon="4.0141">
        <ele>1047.2</ele>
        <time>2009-11-29T07:20:51Z</time>
      </trkpt>
      <trkpt lat="45.49284" lon="4.01409">
        <ele>1047</ele>
        <time>2009-11-29T07:20:55Z</time>
      </trkpt>
      <trkpt lat="45.49269" lon="4.01405">
        <ele>1047</ele>
        <time>2009-11-29T07:21:00Z</time>
      </trkpt>
      <trkpt lat="45.49255" lon="4.01392">
        <ele>1047.3</ele>
        <time>2009-11-29T07:21:04Z</time>
      </trkpt>
      <trkpt lat="45.49243" lon="4.0138">
        <ele>1048</ele>
        <time>2009-11-29T07:21:07Z</time>
      </trkpt>
      <trkpt lat="45.49232" lon="4.01368">
        <ele>1047.5</ele>
        <time>2009-11-29T07:21:10Z</time>
      </trkpt>
      <trkpt lat="45.49222" lon="4.01356">
        <ele>1047.8</ele>
        <time>2009-11-29T07:21:13Z</time>
      </trkpt>
      <trkpt lat="45.49212" lon="4.01344">
        <ele>1048.3</ele>
        <time>2009-11-29T07:21:16Z</time>
      </trkpt>
      <trkpt lat="45.49203" lon="4.01331">
        <ele>1049</ele>
        <time>2009-11-29T07:21:19Z</time>
      </trkpt>
      <trkpt lat="45.49194" lon="4.01317">
        <ele>1050.3</ele>
        <time>2009-11-29T07:21:24Z</time>
      </trkpt>
      <trkpt lat="45.49187" lon="4.01304">
        <ele>1050.9</ele>
        <time>2009-11-29T07:21:30Z</time>
      </trkpt>
      <trkpt lat="45.4918" lon="4.01289">
        <ele>1051.7</ele>
        <time>2009-11-29T07:21:35Z</time>
      </trkpt>
      <trkpt lat="45.49172" lon="4.01276">
        <ele>1053.1</ele>
        <time>2009-11-29T07:21:42Z</time>
      </trkpt>
      <trkpt lat="45.49165" lon="4.01263">
        <ele>1054.5</ele>
        <time>2009-11-29T07:21:48Z</time>
      </trkpt>
      <trkpt lat="45.49156" lon="4.01249">
        <ele>1055.3</ele>
        <time>2009-11-29T07:21:55Z</time>
      </trkpt>
      <trkpt lat="45.49145" lon="4.01238">
        <ele>1056.5</ele>
        <time>2009-11-29T07:22:03Z</time>
      </trkpt>
      <trkpt lat="45.49135" lon="4.01226">
        <ele>1058.7</ele>
        <time>2009-11-29T07:22:13Z</time>
      </trkpt>
      <trkpt lat="45.49127" lon="4.01216">
        <ele>1061.4</ele>
        <time>2009-11-29T07:22:26Z</time>
      </trkpt>
      <trkpt lat="45.49115" lon="4.01205">
        <ele>1064.5</ele>
        <time>2009-11-29T07:22:40Z</time>
      </trkpt>
      <trkpt lat="45.49105" lon="4.01194">
        <ele>1065</ele>
        <time>2009-11-29T07:22:53Z</time>
      </trkpt>
      <trkpt lat="45.49095" lon="4.01184">
        <ele>1062.2</ele>
        <time>2009-11-29T07:23:06Z</time>
      </trkpt>
      <trkpt lat="45.4908" lon="4.01181">
        <ele>1061.9</ele>
        <time>2009-11-29T07:23:18Z</time>
      </trkpt>
      <trkpt lat="45.49066" lon="4.01172">
        <ele>1062.9</ele>
        <time>2009-11-29T07:23:30Z</time>
      </trkpt>
      <trkpt lat="45.49052" lon="4.01167">
        <ele>1064.6</ele>
        <time>2009-11-29T07:23:43Z</time>
      </trkpt>
      <trkpt lat="45.49038" lon="4.01165">
        <ele>1066.3</ele>
        <time>2009-11-29T07:23:56Z</time>
      </trkpt>
      <trkpt lat="45.49021" lon="4.01163">
        <ele>1067.8</ele>
        <time>2009-11-29T07:24:07Z</time>
      </trkpt>
      <trkpt lat="45.49009" lon="4.01155">
        <ele>1066.7</ele>
        <time>2009-11-29T07:24:18Z</time>
      </trkpt>
      <trkpt lat="45.48996" lon="4.0115">
        <ele>1068.4</ele>
        <time>2009-11-29T07:24:29Z</time>
      </trkpt>
      <trkpt lat="45.48982" lon="4.01148">
        <ele>1067.5</ele>
        <time>2009-11-29T07:24:42Z</time>
      </trkpt>
      <trkpt lat="45.48966" lon="4.0115">
        <ele>1069.7</ele>
        <time>2009-11-29T07:24:54Z</time>
      </trkpt>
      <trkpt lat="45.48952" lon="4.01149">
        <ele>1072.1</ele>
        <time>2009-11-29T07:25:06Z</time>
      </trkpt>
      <trkpt lat="45.48938" lon="4.01148">
        <ele>1073.7</ele>
        <time>2009-11-29T07:25:16Z</time>
      </trkpt>
      <trkpt lat="45.48923" lon="4.01148">
        <ele>1072.8</ele>
        <time>2009-11-29T07:25:25Z</time>
      </trkpt>
      <trkpt lat="45.48906" lon="4.01152">
        <ele>1078.7</ele>
        <time>2009-11-29T07:25:33Z</time>
      </trkpt>
      <trkpt lat="45.48892" lon="4.01153">
        <ele>1082.7</ele>
        <time>2009-11-29T07:25:41Z</time>
      </trkpt>
      <trkpt lat="45.48878" lon="4.01158">
        <ele>1084</ele>
        <time>2009-11-29T07:25:50Z</time>
      </trkpt>
      <trkpt lat="45.48863" lon="4.01161">
        <ele>1085.4</ele>
        <time>2009-11-29T07:25:58Z</time>
      </trkpt>
      <trkpt lat="45.48847" lon="4.01164">
        <ele>1091.9</ele>
        <time>2009-11-29T07:26:07Z</time>
      </trkpt>
      <trkpt lat="45.48833" lon="4.01158">
        <ele>1091.9</ele>
        <time>2009-11-29T07:26:15Z</time>
      </trkpt>
      <trkpt lat="45.48826" lon="4.01142">
        <ele>1093.4</ele>
        <time>2009-11-29T07:26:22Z</time>
      </trkpt>
      <trkpt lat="45.48822" lon="4.01129">
        <ele>1091.8</ele>
        <time>2009-11-29T07:26:29Z</time>
      </trkpt>
      <trkpt lat="45.48816" lon="4.01114">
        <ele>1091.9</ele>
        <time>2009-11-29T07:26:36Z</time>
      </trkpt>
      <trkpt lat="45.48808" lon="4.01101">
        <ele>1099.4</ele>
        <time>2009-11-29T07:26:45Z</time>
      </trkpt>
      <trkpt lat="45.48797" lon="4.0109">
        <ele>1106.4</ele>
        <time>2009-11-29T07:26:54Z</time>
      </trkpt>
      <trkpt lat="45.48788" lon="4.01077">
        <ele>1109.2</ele>
        <time>2009-11-29T07:27:04Z</time>
      </trkpt>
      <trkpt lat="45.48781" lon="4.01064">
        <ele>1111.9</ele>
        <time>2009-11-29T07:27:15Z</time>
      </trkpt>
      <trkpt lat="45.48776" lon="4.01048">
        <ele>1115</ele>
        <time>2009-11-29T07:27:24Z</time>
      </trkpt>
      <trkpt lat="45.48774" lon="4.01033">
        <ele>1115.1</ele>
        <time>2009-11-29T07:27:32Z</time>
      </trkpt>
      <trkpt lat="45.48773" lon="4.01018">
        <ele>1115.5</ele>
        <time>2009-11-29T07:27:40Z</time>
      </trkpt>
      <trkpt lat="45.48769" lon="4.01003">
        <ele>1112.1</ele>
        <time>2009-11-29T07:27:48Z</time>
      </trkpt>
      <trkpt lat="45.48762" lon="4.00988">
        <ele>1110.9</ele>
        <time>2009-11-29T07:27:55Z</time>
      </trkpt>
      <trkpt lat="45.48754" lon="4.00974">
        <ele>1109.9</ele>
        <time>2009-11-29T07:28:02Z</time>
      </trkpt>
      <trkpt lat="45.48744" lon="4.00963">
        <ele>1107.9</ele>
        <time>2009-11-29T07:28:10Z</time>
      </trkpt>
      <trkpt lat="45.48734" lon="4.00951">
        <ele>1105.1</ele>
        <time>2009-11-29T07:28:18Z</time>
      </trkpt>
      <trkpt lat="45.48725" lon="4.00939">
        <ele>1103.1</ele>
        <time>2009-11-29T07:28:25Z</time>
      </trkpt>
      <trkpt lat="45.48717" lon="4.00926">
        <ele>1103.8</ele>
        <time>2009-11-29T07:28:31Z</time>
      </trkpt>
      <trkpt lat="45.4871" lon="4.00911">
        <ele>1105.8</ele>
        <time>2009-11-29T07:28:38Z</time>
      </trkpt>
      <trkpt lat="45.48701" lon="4.00898">
        <ele>1107.9</ele>
        <time>2009-11-29T07:28:46Z</time>
      </trkpt>
      <trkpt lat="45.48689" lon="4.0089">
        <ele>1109.6</ele>
        <time>2009-11-29T07:28:56Z</time>
      </trkpt>
      <trkpt lat="45.48675" lon="4.00883">
        <ele>1114.3</ele>
        <time>2009-11-29T07:29:05Z</time>
      </trkpt>
      <trkpt lat="45.48662" lon="4.00875">
        <ele>1116.8</ele>
        <time>2009-11-29T07:29:15Z</time>
      </trkpt>
      <trkpt lat="45.48649" lon="4.00868">
        <ele>1119.6</ele>
        <time>2009-11-29T07:29:24Z</time>
      </trkpt>
      <trkpt lat="45.48635" lon="4.00862">
        <ele>1122.3</ele>
        <time>2009-11-29T07:29:34Z</time>
      </trkpt>
      <trkpt lat="45.48622" lon="4.00857">
        <ele>1126.7</ele>
        <time>2009-11-29T07:29:44Z</time>
      </trkpt>
      <trkpt lat="45.48612" lon="4.00844">
        <ele>1123.8</ele>
        <time>2009-11-29T07:29:55Z</time>
      </trkpt>
      <trkpt lat="45.48604" lon="4.00832">
        <ele>1120.5</ele>
        <time>2009-11-29T07:30:04Z</time>
      </trkpt>
      <trkpt lat="45.48599" lon="4.00817">
        <ele>1120.5</ele>
        <time>2009-11-29T07:30:12Z</time>
      </trkpt>
      <trkpt lat="45.48593" lon="4.00803">
        <ele>1121.9</ele>
        <time>2009-11-29T07:30:19Z</time>
      </trkpt>
      <trkpt lat="45.48587" lon="4.0079">
        <ele>1121.2</ele>
        <time>2009-11-29T07:30:26Z</time>
      </trkpt>
      <trkpt lat="45.4858" lon="4.00777">
        <ele>1120.9</ele>
        <time>2009-11-29T07:30:33Z</time>
      </trkpt>
      <trkpt lat="45.48573" lon="4.00763">
        <ele>1122.3</ele>
        <time>2009-11-29T07:30:41Z</time>
      </trkpt>
      <trkpt lat="45.48567" lon="4.00749">
        <ele>1125.1</ele>
        <time>2009-11-29T07:30:48Z</time>
      </trkpt>
      <trkpt lat="45.48561" lon="4.00735">
        <ele>1127.3</ele>
        <time>2009-11-29T07:30:55Z</time>
      </trkpt>
      <trkpt lat="45.48555" lon="4.00721">
        <ele>1126.6</ele>
        <time>2009-11-29T07:31:01Z</time>
      </trkpt>
      <trkpt lat="45.48548" lon="4.0071">
        <ele>1123.5</ele>
        <time>2009-11-29T07:31:07Z</time>
      </trkpt>
      <trkpt lat="45.4854" lon="4.00695">
        <ele>1122.5</ele>
        <time>2009-11-29T07:31:13Z</time>
      </trkpt>
      <trkpt lat="45.48533" lon="4.00683">
        <ele>1123.2</ele>
        <time>2009-11-29T07:31:20Z</time>
      </trkpt>
      <trkpt lat="45.48529" lon="4.00666">
        <ele>1125.2</ele>
        <time>2009-11-29T07:31:26Z</time>
      </trkpt>
      <trkpt lat="45.48526" lon="4.00652">
        <ele>1123.9</ele>
        <time>2009-11-29T07:31:32Z</time>
      </trkpt>
      <trkpt lat="45.48522" lon="4.00637">
        <ele>1122.9</ele>
        <time>2009-11-29T07:31:39Z</time>
      </trkpt>
      <trkpt lat="45.48521" lon="4.00622">
        <ele>1122.3</ele>
        <time>2009-11-29T07:31:48Z</time>
      </trkpt>
      <trkpt lat="45.48521" lon="4.00608">
        <ele>1124.2</ele>
        <time>2009-11-29T07:31:57Z</time>
      </trkpt>
      <trkpt lat="45.48519" lon="4.00592">
        <ele>1124.2</ele>
        <time>2009-11-29T07:32:06Z</time>
      </trkpt>
      <trkpt lat="45.48518" lon="4.00578">
        <ele>1124</ele>
        <time>2009-11-29T07:32:14Z</time>
      </trkpt>
      <trkpt lat="45.48516" lon="4.00562">
        <ele>1123.8</ele>
        <time>2009-11-29T07:32:22Z</time>
      </trkpt>
      <trkpt lat="45.48513" lon="4.00548">
        <ele>1122.9</ele>
        <time>2009-11-29T07:32:29Z</time>
      </trkpt>
      <trkpt lat="45.48508" lon="4.00533">
        <ele>1122.8</ele>
        <time>2009-11-29T07:32:36Z</time>
      </trkpt>
      <trkpt lat="45.48499" lon="4.00518">
        <ele>1122.7</ele>
        <time>2009-11-29T07:32:43Z</time>
      </trkpt>
      <trkpt lat="45.48493" lon="4.00502">
        <ele>1122.7</ele>
        <time>2009-11-29T07:32:49Z</time>
      </trkpt>
      <trkpt lat="45.48487" lon="4.00488">
        <ele>1122.2</ele>
        <time>2009-11-29T07:32:56Z</time>
      </trkpt>
      <trkpt lat="45.48481" lon="4.00474">
        <ele>1123.2</ele>
        <time>2009-11-29T07:33:03Z</time>
      </trkpt>
      <trkpt lat="45.48476" lon="4.0046">
        <ele>1124.9</ele>
        <time>2009-11-29T07:33:10Z</time>
      </trkpt>
      <trkpt lat="45.48469" lon="4.00446">
        <ele>1124.4</ele>
        <time>2009-11-29T07:33:16Z</time>
      </trkpt>
      <trkpt lat="45.48462" lon="4.00432">
        <ele>1125.6</ele>
        <time>2009-11-29T07:33:22Z</time>
      </trkpt>
      <trkpt lat="45.48454" lon="4.0042">
        <ele>1126.3</ele>
        <time>2009-11-29T07:33:27Z</time>
      </trkpt>
      <trkpt lat="45.48446" lon="4.00405">
        <ele>1126.4</ele>
        <time>2009-11-29T07:33:32Z</time>
      </trkpt>
      <trkpt lat="45.48438" lon="4.00391">
        <ele>1124.3</ele>
        <time>2009-11-29T07:33:37Z</time>
      </trkpt>
      <trkpt lat="45.48429" lon="4.00379">
        <ele>1124.6</ele>
        <time>2009-11-29T07:33:42Z</time>
      </trkpt>
      <trkpt lat="45.48421" lon="4.00365">
        <ele>1125.8</ele>
        <time>2009-11-29T07:33:47Z</time>
      </trkpt>
      <trkpt lat="45.48412" lon="4.00353">
        <ele>1127.5</ele>
        <time>2009-11-29T07:33:52Z</time>
      </trkpt>
      <trkpt lat="45.48401" lon="4.00343">
        <ele>1131.6</ele>
        <time>2009-11-29T07:33:57Z</time>
      </trkpt>
      <trkpt lat="45.48389" lon="4.00333">
        <ele>1133.9</ele>
        <time>2009-11-29T07:34:02Z</time>
      </trkpt>
      <trkpt lat="45.48378" lon="4.00322">
        <ele>1136.4</ele>
        <time>2009-11-29T07:34:09Z</time>
      </trkpt>
      <trkpt lat="45.48367" lon="4.0031">
        <ele>1140.3</ele>
        <time>2009-11-29T07:34:15Z</time>
      </trkpt>
      <trkpt lat="45.48355" lon="4.00301">
        <ele>1145.3</ele>
        <time>2009-11-29T07:34:23Z</time>
      </trkpt>
      <trkpt lat="45.48345" lon="4.00291">
        <ele>1147.3</ele>
        <time>2009-11-29T07:34:33Z</time>
      </trkpt>
      <trkpt lat="45.48333" lon="4.00283">
        <ele>1148.1</ele>
        <time>2009-11-29T07:34:44Z</time>
      </trkpt>
      <trkpt lat="45.48319" lon="4.00279">
        <ele>1147.3</ele>
        <time>2009-11-29T07:34:54Z</time>
      </trkpt>
      <trkpt lat="45.48304" lon="4.00279">
        <ele>1146.6</ele>
        <time>2009-11-29T07:35:03Z</time>
      </trkpt>
      <trkpt lat="45.48289" lon="4.0028">
        <ele>1149</ele>
        <time>2009-11-29T07:35:12Z</time>
      </trkpt>
      <trkpt lat="45.48274" lon="4.00281">
        <ele>1151.3</ele>
        <time>2009-11-29T07:35:24Z</time>
      </trkpt>
      <trkpt lat="45.48259" lon="4.00282">
        <ele>1154.1</ele>
        <time>2009-11-29T07:35:38Z</time>
      </trkpt>
      <trkpt lat="45.48245" lon="4.00278">
        <ele>1155.3</ele>
        <time>2009-11-29T07:35:50Z</time>
      </trkpt>
      <trkpt lat="45.4823" lon="4.00273">
        <ele>1156.3</ele>
        <time>2009-11-29T07:36:01Z</time>
      </trkpt>
      <trkpt lat="45.48217" lon="4.00264">
        <ele>1158.3</ele>
        <time>2009-11-29T07:36:12Z</time>
      </trkpt>
      <trkpt lat="45.48205" lon="4.00257">
        <ele>1159.2</ele>
        <time>2009-11-29T07:36:23Z</time>
      </trkpt>
      <trkpt lat="45.4819" lon="4.00254">
        <ele>1161.1</ele>
        <time>2009-11-29T07:36:35Z</time>
      </trkpt>
      <trkpt lat="45.48175" lon="4.00251">
        <ele>1161.9</ele>
        <time>2009-11-29T07:36:46Z</time>
      </trkpt>
      <trkpt lat="45.4816" lon="4.0025">
        <ele>1165.1</ele>
        <time>2009-11-29T07:36:56Z</time>
      </trkpt>
      <trkpt lat="45.48146" lon="4.00248">
        <ele>1166.9</ele>
        <time>2009-11-29T07:37:05Z</time>
      </trkpt>
      <trkpt lat="45.48132" lon="4.00239">
        <ele>1164.1</ele>
        <time>2009-11-29T07:37:12Z</time>
      </trkpt>
      <trkpt lat="45.48119" lon="4.00231">
        <ele>1162.2</ele>
        <time>2009-11-29T07:37:19Z</time>
      </trkpt>
      <trkpt lat="45.48106" lon="4.0022">
        <ele>1162.4</ele>
        <time>2009-11-29T07:37:24Z</time>
      </trkpt>
      <trkpt lat="45.48092" lon="4.00212">
        <ele>1161.5</ele>
        <time>2009-11-29T07:37:30Z</time>
      </trkpt>
      <trkpt lat="45.4808" lon="4.00206">
        <ele>1159.4</ele>
        <time>2009-11-29T07:37:35Z</time>
      </trkpt>
      <trkpt lat="45.48066" lon="4.00198">
        <ele>1158.3</ele>
        <time>2009-11-29T07:37:40Z</time>
      </trkpt>
      <trkpt lat="45.48051" lon="4.00193">
        <ele>1154.4</ele>
        <time>2009-11-29T07:37:45Z</time>
      </trkpt>
      <trkpt lat="45.48035" lon="4.00189">
        <ele>1153.5</ele>
        <time>2009-11-29T07:37:50Z</time>
      </trkpt>
      <trkpt lat="45.48018" lon="4.00189">
        <ele>1158.5</ele>
        <time>2009-11-29T07:37:55Z</time>
      </trkpt>
      <trkpt lat="45.48003" lon="4.00194">
        <ele>1159.9</ele>
        <time>2009-11-29T07:38:00Z</time>
      </trkpt>
      <trkpt lat="45.47989" lon="4.002">
        <ele>1161.4</ele>
        <time>2009-11-29T07:38:05Z</time>
      </trkpt>
      <trkpt lat="45.47974" lon="4.00209">
        <ele>1163.4</ele>
        <time>2009-11-29T07:38:10Z</time>
      </trkpt>
      <trkpt lat="45.4796" lon="4.00216">
        <ele>1165</ele>
        <time>2009-11-29T07:38:16Z</time>
      </trkpt>
      <trkpt lat="45.47945" lon="4.00222">
        <ele>1167.9</ele>
        <time>2009-11-29T07:38:22Z</time>
      </trkpt>
      <trkpt lat="45.47928" lon="4.00229">
        <ele>1168.8</ele>
        <time>2009-11-29T07:38:27Z</time>
      </trkpt>
      <trkpt lat="45.47913" lon="4.00238">
        <ele>1170.8</ele>
        <time>2009-11-29T07:38:30Z</time>
      </trkpt>
      <trkpt lat="45.47898" lon="4.00248">
        <ele>1172.8</ele>
        <time>2009-11-29T07:38:34Z</time>
      </trkpt>
      <trkpt lat="45.47885" lon="4.00263">
        <ele>1173</ele>
        <time>2009-11-29T07:38:39Z</time>
      </trkpt>
      <trkpt lat="45.47875" lon="4.00274">
        <ele>1173.5</ele>
        <time>2009-11-29T07:38:43Z</time>
      </trkpt>
      <trkpt lat="45.47865" lon="4.00289">
        <ele>1174.7</ele>
        <time>2009-11-29T07:38:48Z</time>
      </trkpt>
      <trkpt lat="45.47852" lon="4.003">
        <ele>1175.8</ele>
        <time>2009-11-29T07:38:51Z</time>
      </trkpt>
      <trkpt lat="45.47841" lon="4.0031">
        <ele>1177.8</ele>
        <time>2009-11-29T07:38:56Z</time>
      </trkpt>
      <trkpt lat="45.47828" lon="4.0032">
        <ele>1178.4</ele>
        <time>2009-11-29T07:39:01Z</time>
      </trkpt>
      <trkpt lat="45.47815" lon="4.00328">
        <ele>1181.8</ele>
        <time>2009-11-29T07:39:06Z</time>
      </trkpt>
      <trkpt lat="45.47802" lon="4.00338">
        <ele>1186.5</ele>
        <time>2009-11-29T07:39:11Z</time>
      </trkpt>
      <trkpt lat="45.47789" lon="4.00347">
        <ele>1187.8</ele>
        <time>2009-11-29T07:39:16Z</time>
      </trkpt>
      <trkpt lat="45.47777" lon="4.00357">
        <ele>1188.5</ele>
        <time>2009-11-29T07:39:21Z</time>
      </trkpt>
      <trkpt lat="45.47764" lon="4.00366">
        <ele>1189.6</ele>
        <time>2009-11-29T07:39:25Z</time>
      </trkpt>
      <trkpt lat="45.47748" lon="4.00374">
        <ele>1192.9</ele>
        <time>2009-11-29T07:39:30Z</time>
      </trkpt>
      <trkpt lat="45.47732" lon="4.00377">
        <ele>1195.6</ele>
        <time>2009-11-29T07:39:37Z</time>
      </trkpt>
      <trkpt lat="45.47717" lon="4.00384">
        <ele>1197</ele>
        <time>2009-11-29T07:39:42Z</time>
      </trkpt>
      <trkpt lat="45.47705" lon="4.0039">
        <ele>1197.5</ele>
        <time>2009-11-29T07:39:49Z</time>
      </trkpt>
      <trkpt lat="45.47691" lon="4.00398">
        <ele>1196.5</ele>
        <time>2009-11-29T07:39:54Z</time>
      </trkpt>
      <trkpt lat="45.47675" lon="4.00401">
        <ele>1193.9</ele>
        <time>2009-11-29T07:39:59Z</time>
      </trkpt>
      <trkpt lat="45.47661" lon="4.00393">
        <ele>1191</ele>
        <time>2009-11-29T07:40:03Z</time>
      </trkpt>
      <trkpt lat="45.47648" lon="4.00386">
        <ele>1186.5</ele>
        <time>2009-11-29T07:40:08Z</time>
      </trkpt>
      <trkpt lat="45.47633" lon="4.00378">
        <ele>1184.3</ele>
        <time>2009-11-29T07:40:11Z</time>
      </trkpt>
      <trkpt lat="45.47621" lon="4.00369">
        <ele>1183.2</ele>
        <time>2009-11-29T07:40:15Z</time>
      </trkpt>
      <trkpt lat="45.47605" lon="4.00371">
        <ele>1183.7</ele>
        <time>2009-11-29T07:40:18Z</time>
      </trkpt>
      <trkpt lat="45.47589" lon="4.00366">
        <ele>1181.5</ele>
        <time>2009-11-29T07:40:22Z</time>
      </trkpt>
      <trkpt lat="45.47572" lon="4.00361">
        <ele>1179</ele>
        <time>2009-11-29T07:40:26Z</time>
      </trkpt>
      <trkpt lat="45.47555" lon="4.00363">
        <ele>1178.8</ele>
        <time>2009-11-29T07:40:29Z</time>
      </trkpt>
      <trkpt lat="45.47537" lon="4.00366">
        <ele>1178</ele>
        <time>2009-11-29T07:40:34Z</time>
      </trkpt>
      <trkpt lat="45.4752" lon="4.00367">
        <ele>1176.8</ele>
        <time>2009-11-29T07:40:38Z</time>
      </trkpt>
      <trkpt lat="45.47504" lon="4.00368">
        <ele>1176.5</ele>
        <time>2009-11-29T07:40:41Z</time>
      </trkpt>
      <trkpt lat="45.4749" lon="4.00367">
        <ele>1175.3</ele>
        <time>2009-11-29T07:40:46Z</time>
      </trkpt>
      <trkpt lat="45.47476" lon="4.00357">
        <ele>1173.5</ele>
        <time>2009-11-29T07:40:50Z</time>
      </trkpt>
      <trkpt lat="45.47461" lon="4.00348">
        <ele>1172.2</ele>
        <time>2009-11-29T07:40:53Z</time>
      </trkpt>
      <trkpt lat="45.47445" lon="4.00344">
        <ele>1169.2</ele>
        <time>2009-11-29T07:40:57Z</time>
      </trkpt>
      <trkpt lat="45.47427" lon="4.00346">
        <ele>1166.8</ele>
        <time>2009-11-29T07:41:01Z</time>
      </trkpt>
      <trkpt lat="45.47411" lon="4.00346">
        <ele>1165.8</ele>
        <time>2009-11-29T07:41:04Z</time>
      </trkpt>
      <trkpt lat="45.47396" lon="4.00347">
        <ele>1164.3</ele>
        <time>2009-11-29T07:41:07Z</time>
      </trkpt>
      <trkpt lat="45.47382" lon="4.00344">
        <ele>1163.5</ele>
        <time>2009-11-29T07:41:10Z</time>
      </trkpt>
      <trkpt lat="45.47369" lon="4.00336">
        <ele>1163.3</ele>
        <time>2009-11-29T07:41:13Z</time>
      </trkpt>
      <trkpt lat="45.47357" lon="4.00323">
        <ele>1162.5</ele>
        <time>2009-11-29T07:41:16Z</time>
      </trkpt>
      <trkpt lat="45.47345" lon="4.00311">
        <ele>1162.3</ele>
        <time>2009-11-29T07:41:19Z</time>
      </trkpt>
      <trkpt lat="45.47332" lon="4.00302">
        <ele>1161.3</ele>
        <time>2009-11-29T07:41:22Z</time>
      </trkpt>
      <trkpt lat="45.47318" lon="4.00292">
        <ele>1161.3</ele>
        <time>2009-11-29T07:41:25Z</time>
      </trkpt>
      <trkpt lat="45.47305" lon="4.00282">
        <ele>1159.8</ele>
        <time>2009-11-29T07:41:28Z</time>
      </trkpt>
      <trkpt lat="45.47292" lon="4.00271">
        <ele>1158.8</ele>
        <time>2009-11-29T07:41:31Z</time>
      </trkpt>
      <trkpt lat="45.47279" lon="4.00258">
        <ele>1156.8</ele>
        <time>2009-11-29T07:41:34Z</time>
      </trkpt>
      <trkpt lat="45.47269" lon="4.00246">
        <ele>1154.5</ele>
        <time>2009-11-29T07:41:37Z</time>
      </trkpt>
      <trkpt lat="45.47258" lon="4.00232">
        <ele>1152</ele>
        <time>2009-11-29T07:41:40Z</time>
      </trkpt>
      <trkpt lat="45.47247" lon="4.00222">
        <ele>1149.5</ele>
        <time>2009-11-29T07:41:44Z</time>
      </trkpt>
      <trkpt lat="45.47236" lon="4.0021">
        <ele>1148</ele>
        <time>2009-11-29T07:41:49Z</time>
      </trkpt>
      <trkpt lat="45.47226" lon="4.00198">
        <ele>1146.5</ele>
        <time>2009-11-29T07:41:53Z</time>
      </trkpt>
      <trkpt lat="45.47217" lon="4.00187">
        <ele>1144.8</ele>
        <time>2009-11-29T07:41:58Z</time>
      </trkpt>
      <trkpt lat="45.47205" lon="4.00175">
        <ele>1143.7</ele>
        <time>2009-11-29T07:42:03Z</time>
      </trkpt>
      <trkpt lat="45.47196" lon="4.00161">
        <ele>1143.5</ele>
        <time>2009-11-29T07:42:06Z</time>
      </trkpt>
      <trkpt lat="45.47187" lon="4.00149">
        <ele>1143.3</ele>
        <time>2009-11-29T07:42:09Z</time>
      </trkpt>
      <trkpt lat="45.47178" lon="4.00138">
        <ele>1143</ele>
        <time>2009-11-29T07:42:12Z</time>
      </trkpt>
      <trkpt lat="45.47164" lon="4.0013">
        <ele>1146</ele>
        <time>2009-11-29T07:42:15Z</time>
      </trkpt>
      <trkpt lat="45.47151" lon="4.00121">
        <ele>1148.3</ele>
        <time>2009-11-29T07:42:18Z</time>
      </trkpt>
      <trkpt lat="45.47137" lon="4.00118">
        <ele>1147.8</ele>
        <time>2009-11-29T07:42:21Z</time>
      </trkpt>
      <trkpt lat="45.47121" lon="4.00114">
        <ele>1152.5</ele>
        <time>2009-11-29T07:42:24Z</time>
      </trkpt>
      <trkpt lat="45.47106" lon="4.00111">
        <ele>1154</ele>
        <time>2009-11-29T07:42:27Z</time>
      </trkpt>
      <trkpt lat="45.47091" lon="4.00103">
        <ele>1154.7</ele>
        <time>2009-11-29T07:42:31Z</time>
      </trkpt>
      <trkpt lat="45.47076" lon="4.00096">
        <ele>1155.2</ele>
        <time>2009-11-29T07:42:34Z</time>
      </trkpt>
      <trkpt lat="45.47061" lon="4.00088">
        <ele>1154.7</ele>
        <time>2009-11-29T07:42:42Z</time>
      </trkpt>
      <trkpt lat="45.4705" lon="4.00091">
        <ele>1156.6</ele>
        <time>2009-11-29T07:42:55Z</time>
      </trkpt>
      <trkpt lat="45.4704" lon="4.00097">
        <ele>1156.4</ele>
        <time>2009-11-29T07:43:04Z</time>
      </trkpt>
      <trkpt lat="45.47022" lon="4.00104">
        <ele>1154.9</ele>
        <time>2009-11-29T07:43:34Z</time>
      </trkpt>
      <trkpt lat="45.47006" lon="4.00102">
        <ele>1150.5</ele>
        <time>2009-11-29T07:43:39Z</time>
      </trkpt>
      <trkpt lat="45.46992" lon="4.00097">
        <ele>1148.8</ele>
        <time>2009-11-29T07:43:44Z</time>
      </trkpt>
      <trkpt lat="45.46978" lon="4.00091">
        <ele>1146</ele>
        <time>2009-11-29T07:43:49Z</time>
      </trkpt>
      <trkpt lat="45.46965" lon="4.0008">
        <ele>1141.7</ele>
        <time>2009-11-29T07:43:54Z</time>
      </trkpt>
      <trkpt lat="45.46955" lon="4.00067">
        <ele>1140.3</ele>
        <time>2009-11-29T07:43:58Z</time>
      </trkpt>
      <trkpt lat="45.46945" lon="4.00057">
        <ele>1139</ele>
        <time>2009-11-29T07:44:03Z</time>
      </trkpt>
      <trkpt lat="45.46933" lon="4.00046">
        <ele>1137.4</ele>
        <time>2009-11-29T07:44:07Z</time>
      </trkpt>
      <trkpt lat="45.46919" lon="4.00034">
        <ele>1135.5</ele>
        <time>2009-11-29T07:44:12Z</time>
      </trkpt>
      <trkpt lat="45.46909" lon="4.00023">
        <ele>1133.8</ele>
        <time>2009-11-29T07:44:17Z</time>
      </trkpt>
      <trkpt lat="45.46897" lon="4.00012">
        <ele>1133</ele>
        <time>2009-11-29T07:44:22Z</time>
      </trkpt>
      <trkpt lat="45.46883" lon="4.00003">
        <ele>1130.2</ele>
        <time>2009-11-29T07:44:28Z</time>
      </trkpt>
      <trkpt lat="45.4687" lon="3.99993">
        <ele>1130.1</ele>
        <time>2009-11-29T07:44:33Z</time>
      </trkpt>
      <trkpt lat="45.46858" lon="3.99983">
        <ele>1130.1</ele>
        <time>2009-11-29T07:44:38Z</time>
      </trkpt>
      <trkpt lat="45.46847" lon="3.9997">
        <ele>1130.6</ele>
        <time>2009-11-29T07:44:43Z</time>
      </trkpt>
      <trkpt lat="45.46835" lon="3.99961">
        <ele>1128.7</ele>
        <time>2009-11-29T07:44:48Z</time>
      </trkpt>
      <trkpt lat="45.46824" lon="3.99949">
        <ele>1125.3</ele>
        <time>2009-11-29T07:44:53Z</time>
      </trkpt>
      <trkpt lat="45.46814" lon="3.99938">
        <ele>1124.8</ele>
        <time>2009-11-29T07:44:56Z</time>
      </trkpt>
      <trkpt lat="45.46802" lon="3.99927">
        <ele>1125.3</ele>
        <time>2009-11-29T07:44:59Z</time>
      </trkpt>
      <trkpt lat="45.4679" lon="3.99916">
        <ele>1125.5</ele>
        <time>2009-11-29T07:45:02Z</time>
      </trkpt>
      <trkpt lat="45.46778" lon="3.99904">
        <ele>1125.3</ele>
        <time>2009-11-29T07:45:05Z</time>
      </trkpt>
      <trkpt lat="45.46768" lon="3.99893">
        <ele>1124.3</ele>
        <time>2009-11-29T07:45:08Z</time>
      </trkpt>
      <trkpt lat="45.46757" lon="3.9988">
        <ele>1124.5</ele>
        <time>2009-11-29T07:45:11Z</time>
      </trkpt>
      <trkpt lat="45.46745" lon="3.99865">
        <ele>1123.8</ele>
        <time>2009-11-29T07:45:14Z</time>
      </trkpt>
      <trkpt lat="45.46733" lon="3.9985">
        <ele>1124</ele>
        <time>2009-11-29T07:45:16Z</time>
      </trkpt>
      <trkpt lat="45.46723" lon="3.99837">
        <ele>1124.5</ele>
        <time>2009-11-29T07:45:19Z</time>
      </trkpt>
      <trkpt lat="45.46711" lon="3.99824">
        <ele>1125</ele>
        <time>2009-11-29T07:45:22Z</time>
      </trkpt>
      <trkpt lat="45.46699" lon="3.99812">
        <ele>1125.3</ele>
        <time>2009-11-29T07:45:25Z</time>
      </trkpt>
      <trkpt lat="45.46684" lon="3.99801">
        <ele>1125.5</ele>
        <time>2009-11-29T07:45:28Z</time>
      </trkpt>
      <trkpt lat="45.46669" lon="3.99791">
        <ele>1125</ele>
        <time>2009-11-29T07:45:30Z</time>
      </trkpt>
      <trkpt lat="45.46655" lon="3.99785">
        <ele>1125</ele>
        <time>2009-11-29T07:45:32Z</time>
      </trkpt>
      <trkpt lat="45.46637" lon="3.99782">
        <ele>1125.3</ele>
        <time>2009-11-29T07:45:35Z</time>
      </trkpt>
      <trkpt lat="45.46617" lon="3.99779">
        <ele>1124.3</ele>
        <time>2009-11-29T07:45:38Z</time>
      </trkpt>
      <trkpt lat="45.466" lon="3.99776">
        <ele>1123</ele>
        <time>2009-11-29T07:45:41Z</time>
      </trkpt>
      <trkpt lat="45.46585" lon="3.99773">
        <ele>1122.5</ele>
        <time>2009-11-29T07:45:42Z</time>
      </trkpt>
      <trkpt lat="45.46577" lon="3.99771">
        <ele>1123</ele>
        <time>2009-11-29T07:45:44Z</time>
      </trkpt>
      <trkpt lat="45.46553" lon="3.99767">
        <ele>1122</ele>
        <time>2009-11-29T07:45:46Z</time>
      </trkpt>
      <trkpt lat="45.46536" lon="3.99763">
        <ele>1121.5</ele>
        <time>2009-11-29T07:45:48Z</time>
      </trkpt>
      <trkpt lat="45.4652" lon="3.9976">
        <ele>1122</ele>
        <time>2009-11-29T07:45:51Z</time>
      </trkpt>
      <trkpt lat="45.46503" lon="3.99755">
        <ele>1123.5</ele>
        <time>2009-11-29T07:45:53Z</time>
      </trkpt>
      <trkpt lat="45.46487" lon="3.99751">
        <ele>1123.5</ele>
        <time>2009-11-29T07:45:55Z</time>
      </trkpt>
      <trkpt lat="45.46471" lon="3.99747">
        <ele>1125</ele>
        <time>2009-11-29T07:45:56Z</time>
      </trkpt>
      <trkpt lat="45.46455" lon="3.99742">
        <ele>1125.5</ele>
        <time>2009-11-29T07:45:58Z</time>
      </trkpt>
      <trkpt lat="45.4644" lon="3.99735">
        <ele>1126</ele>
        <time>2009-11-29T07:46:00Z</time>
      </trkpt>
      <trkpt lat="45.46423" lon="3.99731">
        <ele>1127</ele>
        <time>2009-11-29T07:46:03Z</time>
      </trkpt>
      <trkpt lat="45.46403" lon="3.99727">
        <ele>1127.5</ele>
        <time>2009-11-29T07:46:06Z</time>
      </trkpt>
      <trkpt lat="45.46384" lon="3.99725">
        <ele>1127.8</ele>
        <time>2009-11-29T07:46:09Z</time>
      </trkpt>
      <trkpt lat="45.46367" lon="3.99724">
        <ele>1130.3</ele>
        <time>2009-11-29T07:46:12Z</time>
      </trkpt>
      <trkpt lat="45.46351" lon="3.99721">
        <ele>1131.8</ele>
        <time>2009-11-29T07:46:15Z</time>
      </trkpt>
      <trkpt lat="45.46335" lon="3.99716">
        <ele>1132.5</ele>
        <time>2009-11-29T07:46:18Z</time>
      </trkpt>
      <trkpt lat="45.46319" lon="3.99712">
        <ele>1132</ele>
        <time>2009-11-29T07:46:21Z</time>
      </trkpt>
      <trkpt lat="45.46304" lon="3.9971">
        <ele>1131.5</ele>
        <time>2009-11-29T07:46:24Z</time>
      </trkpt>
      <trkpt lat="45.46287" lon="3.99709">
        <ele>1131.3</ele>
        <time>2009-11-29T07:46:28Z</time>
      </trkpt>
      <trkpt lat="45.46269" lon="3.99711">
        <ele>1131.4</ele>
        <time>2009-11-29T07:46:32Z</time>
      </trkpt>
      <trkpt lat="45.46254" lon="3.99712">
        <ele>1131.7</ele>
        <time>2009-11-29T07:46:38Z</time>
      </trkpt>
      <trkpt lat="45.46237" lon="3.99715">
        <ele>1132.5</ele>
        <time>2009-11-29T07:46:43Z</time>
      </trkpt>
      <trkpt lat="45.46222" lon="3.99719">
        <ele>1132.8</ele>
        <time>2009-11-29T07:46:49Z</time>
      </trkpt>
      <trkpt lat="45.46208" lon="3.99723">
        <ele>1135</ele>
        <time>2009-11-29T07:46:56Z</time>
      </trkpt>
      <trkpt lat="45.46193" lon="3.99729">
        <ele>1136.4</ele>
        <time>2009-11-29T07:47:01Z</time>
      </trkpt>
      <trkpt lat="45.46179" lon="3.99736">
        <ele>1138.1</ele>
        <time>2009-11-29T07:47:06Z</time>
      </trkpt>
      <trkpt lat="45.46164" lon="3.99742">
        <ele>1140.3</ele>
        <time>2009-11-29T07:47:11Z</time>
      </trkpt>
      <trkpt lat="45.46149" lon="3.99747">
        <ele>1141.2</ele>
        <time>2009-11-29T07:47:17Z</time>
      </trkpt>
      <trkpt lat="45.46135" lon="3.99754">
        <ele>1140.9</ele>
        <time>2009-11-29T07:47:22Z</time>
      </trkpt>
      <trkpt lat="45.46121" lon="3.99764">
        <ele>1142</ele>
        <time>2009-11-29T07:47:28Z</time>
      </trkpt>
      <trkpt lat="45.46107" lon="3.99764">
        <ele>1144</ele>
        <time>2009-11-29T07:47:33Z</time>
      </trkpt>
      <trkpt lat="45.46096" lon="3.99753">
        <ele>1143.2</ele>
        <time>2009-11-29T07:47:37Z</time>
      </trkpt>
      <trkpt lat="45.4609" lon="3.99738">
        <ele>1142</ele>
        <time>2009-11-29T07:47:41Z</time>
      </trkpt>
      <trkpt lat="45.46084" lon="3.99724">
        <ele>1142.3</ele>
        <time>2009-11-29T07:47:46Z</time>
      </trkpt>
      <trkpt lat="45.46076" lon="3.99711">
        <ele>1142.5</ele>
        <time>2009-11-29T07:47:50Z</time>
      </trkpt>
      <trkpt lat="45.46066" lon="3.99701">
        <ele>1141.7</ele>
        <time>2009-11-29T07:47:53Z</time>
      </trkpt>
      <trkpt lat="45.46054" lon="3.99691">
        <ele>1141.5</ele>
        <time>2009-11-29T07:47:58Z</time>
      </trkpt>
      <trkpt lat="45.4604" lon="3.99683">
        <ele>1140.7</ele>
        <time>2009-11-29T07:48:02Z</time>
      </trkpt>
      <trkpt lat="45.46026" lon="3.99674">
        <ele>1140.5</ele>
        <time>2009-11-29T07:48:05Z</time>
      </trkpt>
      <trkpt lat="45.46012" lon="3.99664">
        <ele>1142.8</ele>
        <time>2009-11-29T07:48:09Z</time>
      </trkpt>
      <trkpt lat="45.45999" lon="3.99653">
        <ele>1144.2</ele>
        <time>2009-11-29T07:48:14Z</time>
      </trkpt>
      <trkpt lat="45.45987" lon="3.9964">
        <ele>1144</ele>
        <time>2009-11-29T07:48:17Z</time>
      </trkpt>
      <trkpt lat="45.45976" lon="3.99626">
        <ele>1143.5</ele>
        <time>2009-11-29T07:48:21Z</time>
      </trkpt>
      <trkpt lat="45.45966" lon="3.99613">
        <ele>1144.3</ele>
        <time>2009-11-29T07:48:24Z</time>
      </trkpt>
      <trkpt lat="45.45956" lon="3.99599">
        <ele>1146</ele>
        <time>2009-11-29T07:48:28Z</time>
      </trkpt>
      <trkpt lat="45.45944" lon="3.99588">
        <ele>1148.5</ele>
        <time>2009-11-29T07:48:33Z</time>
      </trkpt>
      <trkpt lat="45.45928" lon="3.99582">
        <ele>1151.3</ele>
        <time>2009-11-29T07:48:37Z</time>
      </trkpt>
      <trkpt lat="45.45912" lon="3.99581">
        <ele>1153.1</ele>
        <time>2009-11-29T07:48:42Z</time>
      </trkpt>
      <trkpt lat="45.45896" lon="3.99573">
        <ele>1154.5</ele>
        <time>2009-11-29T07:48:47Z</time>
      </trkpt>
      <trkpt lat="45.45883" lon="3.99563">
        <ele>1156.3</ele>
        <time>2009-11-29T07:48:51Z</time>
      </trkpt>
      <trkpt lat="45.45869" lon="3.9956">
        <ele>1158.1</ele>
        <time>2009-11-29T07:48:56Z</time>
      </trkpt>
      <trkpt lat="45.45852" lon="3.99564">
        <ele>1162.3</ele>
        <time>2009-11-29T07:49:01Z</time>
      </trkpt>
      <trkpt lat="45.45839" lon="3.99557">
        <ele>1162.4</ele>
        <time>2009-11-29T07:49:06Z</time>
      </trkpt>
      <trkpt lat="45.45833" lon="3.99541">
        <ele>1159.3</ele>
        <time>2009-11-29T07:49:10Z</time>
      </trkpt>
      <trkpt lat="45.45853" lon="3.99567">
        <ele>1155.7</ele>
        <time>2009-11-29T07:56:34Z</time>
      </trkpt>
      <trkpt lat="45.45868" lon="3.99558">
        <ele>1155.2</ele>
        <time>2009-11-29T07:56:37Z</time>
      </trkpt>
      <trkpt lat="45.45885" lon="3.99556">
        <ele>1153.3</ele>
        <time>2009-11-29T07:56:41Z</time>
      </trkpt>
      <trkpt lat="45.45898" lon="3.99569">
        <ele>1152</ele>
        <time>2009-11-29T07:56:43Z</time>
      </trkpt>
      <trkpt lat="45.45912" lon="3.99574">
        <ele>1151.5</ele>
        <time>2009-11-29T07:56:46Z</time>
      </trkpt>
      <trkpt lat="45.45927" lon="3.99577">
        <ele>1151</ele>
        <time>2009-11-29T07:56:48Z</time>
      </trkpt>
      <trkpt lat="45.45941" lon="3.99582">
        <ele>1150</ele>
        <time>2009-11-29T07:56:50Z</time>
      </trkpt>
      <trkpt lat="45.45955" lon="3.99597">
        <ele>1148.5</ele>
        <time>2009-11-29T07:56:51Z</time>
      </trkpt>
      <trkpt lat="45.45969" lon="3.99616">
        <ele>1146</ele>
        <time>2009-11-29T07:56:53Z</time>
      </trkpt>
      <trkpt lat="45.45982" lon="3.99636">
        <ele>1145.5</ele>
        <time>2009-11-29T07:56:55Z</time>
      </trkpt>
      <trkpt lat="45.45996" lon="3.99651">
        <ele>1145.5</ele>
        <time>2009-11-29T07:56:58Z</time>
      </trkpt>
      <trkpt lat="45.4601" lon="3.99662">
        <ele>1145.5</ele>
        <time>2009-11-29T07:57:00Z</time>
      </trkpt>
      <trkpt lat="45.46024" lon="3.99671">
        <ele>1146</ele>
        <time>2009-11-29T07:57:02Z</time>
      </trkpt>
      <trkpt lat="45.46039" lon="3.9968">
        <ele>1146.3</ele>
        <time>2009-11-29T07:57:04Z</time>
      </trkpt>
      <trkpt lat="45.46056" lon="3.99689">
        <ele>1148</ele>
        <time>2009-11-29T07:57:07Z</time>
      </trkpt>
      <trkpt lat="45.46069" lon="3.99703">
        <ele>1150.5</ele>
        <time>2009-11-29T07:57:09Z</time>
      </trkpt>
      <trkpt lat="45.4608" lon="3.99715">
        <ele>1152</ele>
        <time>2009-11-29T07:57:12Z</time>
      </trkpt>
      <trkpt lat="45.46088" lon="3.99729">
        <ele>1152.5</ele>
        <time>2009-11-29T07:57:14Z</time>
      </trkpt>
      <trkpt lat="45.46092" lon="3.99743">
        <ele>1151.7</ele>
        <time>2009-11-29T07:57:18Z</time>
      </trkpt>
      <trkpt lat="45.46093" lon="3.99759">
        <ele>1149.3</ele>
        <time>2009-11-29T07:57:21Z</time>
      </trkpt>
      <trkpt lat="45.46094" lon="3.99776">
        <ele>1148.5</ele>
        <time>2009-11-29T07:57:24Z</time>
      </trkpt>
      <trkpt lat="45.46092" lon="3.99794">
        <ele>1147.5</ele>
        <time>2009-11-29T07:57:26Z</time>
      </trkpt>
      <trkpt lat="45.4609" lon="3.9981">
        <ele>1146.5</ele>
        <time>2009-11-29T07:57:28Z</time>
      </trkpt>
      <trkpt lat="45.46089" lon="3.99827">
        <ele>1145.5</ele>
        <time>2009-11-29T07:57:30Z</time>
      </trkpt>
      <trkpt lat="45.4609" lon="3.99843">
        <ele>1144</ele>
        <time>2009-11-29T07:57:33Z</time>
      </trkpt>
      <trkpt lat="45.46092" lon="3.9986">
        <ele>1143.5</ele>
        <time>2009-11-29T07:57:35Z</time>
      </trkpt>
      <trkpt lat="45.46095" lon="3.99875">
        <ele>1143.5</ele>
        <time>2009-11-29T07:57:37Z</time>
      </trkpt>
      <trkpt lat="45.46099" lon="3.99891">
        <ele>1143</ele>
        <time>2009-11-29T07:57:38Z</time>
      </trkpt>
      <trkpt lat="45.46103" lon="3.99906">
        <ele>1142.5</ele>
        <time>2009-11-29T07:57:40Z</time>
      </trkpt>
      <trkpt lat="45.46107" lon="3.99923">
        <ele>1141.5</ele>
        <time>2009-11-29T07:57:42Z</time>
      </trkpt>
      <trkpt lat="45.46113" lon="3.99939">
        <ele>1141</ele>
        <time>2009-11-29T07:57:45Z</time>
      </trkpt>
      <trkpt lat="45.4612" lon="3.99956">
        <ele>1141</ele>
        <time>2009-11-29T07:57:47Z</time>
      </trkpt>
      <trkpt lat="45.46128" lon="3.99971">
        <ele>1140.5</ele>
        <time>2009-11-29T07:57:49Z</time>
      </trkpt>
      <trkpt lat="45.46138" lon="3.99988">
        <ele>1140</ele>
        <time>2009-11-29T07:57:51Z</time>
      </trkpt>
      <trkpt lat="45.46145" lon="4.00008">
        <ele>1139</ele>
        <time>2009-11-29T07:57:52Z</time>
      </trkpt>
      <trkpt lat="45.46152" lon="4.00029">
        <ele>1138</ele>
        <time>2009-11-29T07:57:54Z</time>
      </trkpt>
      <trkpt lat="45.46158" lon="4.00051">
        <ele>1137.5</ele>
        <time>2009-11-29T07:57:56Z</time>
      </trkpt>
      <trkpt lat="45.46165" lon="4.00074">
        <ele>1137</ele>
        <time>2009-11-29T07:57:59Z</time>
      </trkpt>
      <trkpt lat="45.46172" lon="4.00092">
        <ele>1136</ele>
        <time>2009-11-29T07:58:01Z</time>
      </trkpt>
      <trkpt lat="45.46178" lon="4.00111">
        <ele>1135.5</ele>
        <time>2009-11-29T07:58:03Z</time>
      </trkpt>
      <trkpt lat="45.46184" lon="4.00129">
        <ele>1135</ele>
        <time>2009-11-29T07:58:05Z</time>
      </trkpt>
      <trkpt lat="45.46192" lon="4.00146">
        <ele>1134</ele>
        <time>2009-11-29T07:58:06Z</time>
      </trkpt>
      <trkpt lat="45.462" lon="4.00164">
        <ele>1133.5</ele>
        <time>2009-11-29T07:58:08Z</time>
      </trkpt>
      <trkpt lat="45.4621" lon="4.0018">
        <ele>1133</ele>
        <time>2009-11-29T07:58:10Z</time>
      </trkpt>
      <trkpt lat="45.46219" lon="4.00201">
        <ele>1132</ele>
        <time>2009-11-29T07:58:13Z</time>
      </trkpt>
      <trkpt lat="45.46228" lon="4.0022">
        <ele>1132</ele>
        <time>2009-11-29T07:58:15Z</time>
      </trkpt>
      <trkpt lat="45.46238" lon="4.00239">
        <ele>1131.5</ele>
        <time>2009-11-29T07:58:17Z</time>
      </trkpt>
      <trkpt lat="45.46247" lon="4.00257">
        <ele>1132</ele>
        <time>2009-11-29T07:58:18Z</time>
      </trkpt>
      <trkpt lat="45.46254" lon="4.00274">
        <ele>1132</ele>
        <time>2009-11-29T07:58:20Z</time>
      </trkpt>
      <trkpt lat="45.4626" lon="4.00291">
        <ele>1132</ele>
        <time>2009-11-29T07:58:22Z</time>
      </trkpt>
      <trkpt lat="45.46265" lon="4.00309">
        <ele>1131.5</ele>
        <time>2009-11-29T07:58:24Z</time>
      </trkpt>
      <trkpt lat="45.46269" lon="4.00329">
        <ele>1131.5</ele>
        <time>2009-11-29T07:58:27Z</time>
      </trkpt>
      <trkpt lat="45.46275" lon="4.00347">
        <ele>1131</ele>
        <time>2009-11-29T07:58:29Z</time>
      </trkpt>
      <trkpt lat="45.46283" lon="4.00363">
        <ele>1131</ele>
        <time>2009-11-29T07:58:31Z</time>
      </trkpt>
      <trkpt lat="45.46291" lon="4.00382">
        <ele>1131</ele>
        <time>2009-11-29T07:58:32Z</time>
      </trkpt>
      <trkpt lat="45.46298" lon="4.00402">
        <ele>1131</ele>
        <time>2009-11-29T07:58:34Z</time>
      </trkpt>
      <trkpt lat="45.46304" lon="4.00423">
        <ele>1130.5</ele>
        <time>2009-11-29T07:58:36Z</time>
      </trkpt>
      <trkpt lat="45.4631" lon="4.00444">
        <ele>1130.5</ele>
        <time>2009-11-29T07:58:38Z</time>
      </trkpt>
      <trkpt lat="45.46314" lon="4.00465">
        <ele>1130.5</ele>
        <time>2009-11-29T07:58:41Z</time>
      </trkpt>
      <trkpt lat="45.46321" lon="4.00484">
        <ele>1130.5</ele>
        <time>2009-11-29T07:58:43Z</time>
      </trkpt>
      <trkpt lat="45.4633" lon="4.005">
        <ele>1131.5</ele>
        <time>2009-11-29T07:58:46Z</time>
      </trkpt>
      <trkpt lat="45.46337" lon="4.0052">
        <ele>1132</ele>
        <time>2009-11-29T07:58:49Z</time>
      </trkpt>
      <trkpt lat="45.46346" lon="4.00532">
        <ele>1132.2</ele>
        <time>2009-11-29T07:58:53Z</time>
      </trkpt>
      <trkpt lat="45.46352" lon="4.00549">
        <ele>1132.3</ele>
        <time>2009-11-29T07:58:57Z</time>
      </trkpt>
      <trkpt lat="45.46358" lon="4.00566">
        <ele>1132.2</ele>
        <time>2009-11-29T07:59:00Z</time>
      </trkpt>
      <trkpt lat="45.46362" lon="4.0058">
        <ele>1132.5</ele>
        <time>2009-11-29T07:59:04Z</time>
      </trkpt>
      <trkpt lat="45.46362" lon="4.00598">
        <ele>1132.5</ele>
        <time>2009-11-29T07:59:08Z</time>
      </trkpt>
      <trkpt lat="45.46359" lon="4.00614">
        <ele>1132.8</ele>
        <time>2009-11-29T07:59:11Z</time>
      </trkpt>
      <trkpt lat="45.46358" lon="4.00631">
        <ele>1133.8</ele>
        <time>2009-11-29T07:59:16Z</time>
      </trkpt>
      <trkpt lat="45.46356" lon="4.0065">
        <ele>1134.7</ele>
        <time>2009-11-29T07:59:21Z</time>
      </trkpt>
      <trkpt lat="45.46355" lon="4.00666">
        <ele>1135.3</ele>
        <time>2009-11-29T07:59:24Z</time>
      </trkpt>
      <trkpt lat="45.46353" lon="4.00682">
        <ele>1135.5</ele>
        <time>2009-11-29T07:59:27Z</time>
      </trkpt>
      <trkpt lat="45.46352" lon="4.00698">
        <ele>1136</ele>
        <time>2009-11-29T07:59:30Z</time>
      </trkpt>
      <trkpt lat="45.46351" lon="4.00714">
        <ele>1136</ele>
        <time>2009-11-29T07:59:33Z</time>
      </trkpt>
      <trkpt lat="45.46349" lon="4.0073">
        <ele>1136</ele>
        <time>2009-11-29T07:59:36Z</time>
      </trkpt>
      <trkpt lat="45.46348" lon="4.00745">
        <ele>1135.5</ele>
        <time>2009-11-29T07:59:39Z</time>
      </trkpt>
      <trkpt lat="45.46342" lon="4.00761">
        <ele>1135.8</ele>
        <time>2009-11-29T07:59:42Z</time>
      </trkpt>
      <trkpt lat="45.46327" lon="4.00767">
        <ele>1135</ele>
        <time>2009-11-29T07:59:47Z</time>
      </trkpt>
      <trkpt lat="45.4632" lon="4.0077">
        <ele>1134.5</ele>
        <time>2009-11-29T07:59:49Z</time>
      </trkpt>
      <trkpt lat="45.4631" lon="4.00801">
        <ele>1133.3</ele>
        <time>2009-11-29T07:59:51Z</time>
      </trkpt>
      <trkpt lat="45.46305" lon="4.00834">
        <ele>1133</ele>
        <time>2009-11-29T07:59:54Z</time>
      </trkpt>
      <trkpt lat="45.46305" lon="4.0085">
        <ele>1133.5</ele>
        <time>2009-11-29T07:59:56Z</time>
      </trkpt>
      <trkpt lat="45.46306" lon="4.00866">
        <ele>1133.5</ele>
        <time>2009-11-29T07:59:58Z</time>
      </trkpt>
      <trkpt lat="45.46308" lon="4.00883">
        <ele>1133.3</ele>
        <time>2009-11-29T08:00:01Z</time>
      </trkpt>
      <trkpt lat="45.46311" lon="4.00899">
        <ele>1133.5</ele>
        <time>2009-11-29T08:00:04Z</time>
      </trkpt>
      <trkpt lat="45.46316" lon="4.00916">
        <ele>1134.3</ele>
        <time>2009-11-29T08:00:07Z</time>
      </trkpt>
      <trkpt lat="45.46318" lon="4.00937">
        <ele>1135.3</ele>
        <time>2009-11-29T08:00:10Z</time>
      </trkpt>
      <trkpt lat="45.46322" lon="4.00951">
        <ele>1134.8</ele>
        <time>2009-11-29T08:00:13Z</time>
      </trkpt>
      <trkpt lat="45.46326" lon="4.00967">
        <ele>1134.8</ele>
        <time>2009-11-29T08:00:16Z</time>
      </trkpt>
      <trkpt lat="45.46329" lon="4.00982">
        <ele>1135.3</ele>
        <time>2009-11-29T08:00:19Z</time>
      </trkpt>
      <trkpt lat="45.46332" lon="4.00997">
        <ele>1135.5</ele>
        <time>2009-11-29T08:00:22Z</time>
      </trkpt>
      <trkpt lat="45.46337" lon="4.01008">
        <ele>1136</ele>
        <time>2009-11-29T08:00:25Z</time>
      </trkpt>
      <trkpt lat="45.46337" lon="4.01031">
        <ele>1135.5</ele>
        <time>2009-11-29T08:00:27Z</time>
      </trkpt>
      <trkpt lat="45.46337" lon="4.01047">
        <ele>1134.5</ele>
        <time>2009-11-29T08:00:29Z</time>
      </trkpt>
      <trkpt lat="45.4634" lon="4.01065">
        <ele>1134.3</ele>
        <time>2009-11-29T08:00:32Z</time>
      </trkpt>
      <trkpt lat="45.46343" lon="4.01082">
        <ele>1134.8</ele>
        <time>2009-11-29T08:00:35Z</time>
      </trkpt>
      <trkpt lat="45.46347" lon="4.01102">
        <ele>1135</ele>
        <time>2009-11-29T08:00:38Z</time>
      </trkpt>
      <trkpt lat="45.4635" lon="4.0112">
        <ele>1135.8</ele>
        <time>2009-11-29T08:00:41Z</time>
      </trkpt>
      <trkpt lat="45.46353" lon="4.01137">
        <ele>1136.3</ele>
        <time>2009-11-29T08:00:44Z</time>
      </trkpt>
      <trkpt lat="45.46357" lon="4.01153">
        <ele>1136</ele>
        <time>2009-11-29T08:00:47Z</time>
      </trkpt>
      <trkpt lat="45.4636" lon="4.0117">
        <ele>1136</ele>
        <time>2009-11-29T08:00:50Z</time>
      </trkpt>
      <trkpt lat="45.46365" lon="4.01185">
        <ele>1136.3</ele>
        <time>2009-11-29T08:00:53Z</time>
      </trkpt>
      <trkpt lat="45.4637" lon="4.01201">
        <ele>1134</ele>
        <time>2009-11-29T08:00:56Z</time>
      </trkpt>
      <trkpt lat="45.46376" lon="4.01217">
        <ele>1134</ele>
        <time>2009-11-29T08:00:59Z</time>
      </trkpt>
      <trkpt lat="45.4638" lon="4.01232">
        <ele>1134.3</ele>
        <time>2009-11-29T08:01:02Z</time>
      </trkpt>
      <trkpt lat="45.46384" lon="4.01247">
        <ele>1134.5</ele>
        <time>2009-11-29T08:01:05Z</time>
      </trkpt>
      <trkpt lat="45.46387" lon="4.01262">
        <ele>1134.5</ele>
        <time>2009-11-29T08:01:08Z</time>
      </trkpt>
      <trkpt lat="45.4639" lon="4.01276">
        <ele>1134.5</ele>
        <time>2009-11-29T08:01:11Z</time>
      </trkpt>
      <trkpt lat="45.46395" lon="4.01292">
        <ele>1134.5</ele>
        <time>2009-11-29T08:01:14Z</time>
      </trkpt>
      <trkpt lat="45.46402" lon="4.01307">
        <ele>1134.5</ele>
        <time>2009-11-29T08:01:17Z</time>
      </trkpt>
      <trkpt lat="45.46409" lon="4.01324">
        <ele>1134</ele>
        <time>2009-11-29T08:01:20Z</time>
      </trkpt>
      <trkpt lat="45.46417" lon="4.0134">
        <ele>1134.5</ele>
        <time>2009-11-29T08:01:23Z</time>
      </trkpt>
      <trkpt lat="45.46423" lon="4.01353">
        <ele>1135</ele>
        <time>2009-11-29T08:01:25Z</time>
      </trkpt>
      <trkpt lat="45.46432" lon="4.01365">
        <ele>1135.5</ele>
        <time>2009-11-29T08:01:27Z</time>
      </trkpt>
      <trkpt lat="45.46442" lon="4.01379">
        <ele>1136.3</ele>
        <time>2009-11-29T08:01:29Z</time>
      </trkpt>
      <trkpt lat="45.46459" lon="4.01389">
        <ele>1137.8</ele>
        <time>2009-11-29T08:01:32Z</time>
      </trkpt>
      <trkpt lat="45.46478" lon="4.01395">
        <ele>1138</ele>
        <time>2009-11-29T08:01:36Z</time>
      </trkpt>
      <trkpt lat="45.46492" lon="4.01399">
        <ele>1138.2</ele>
        <time>2009-11-29T08:01:41Z</time>
      </trkpt>
      <trkpt lat="45.46505" lon="4.01412">
        <ele>1138.5</ele>
        <time>2009-11-29T08:01:46Z</time>
      </trkpt>
      <trkpt lat="45.46515" lon="4.01431">
        <ele>1138.8</ele>
        <time>2009-11-29T08:01:49Z</time>
      </trkpt>
      <trkpt lat="45.46524" lon="4.01446">
        <ele>1139.5</ele>
        <time>2009-11-29T08:01:51Z</time>
      </trkpt>
      <trkpt lat="45.46532" lon="4.0146">
        <ele>1139.5</ele>
        <time>2009-11-29T08:01:53Z</time>
      </trkpt>
      <trkpt lat="45.46538" lon="4.01477">
        <ele>1139.5</ele>
        <time>2009-11-29T08:01:56Z</time>
      </trkpt>
      <trkpt lat="45.46544" lon="4.015">
        <ele>1139.5</ele>
        <time>2009-11-29T08:01:58Z</time>
      </trkpt>
      <trkpt lat="45.46549" lon="4.01524">
        <ele>1139.5</ele>
        <time>2009-11-29T08:02:00Z</time>
      </trkpt>
      <trkpt lat="45.46558" lon="4.01551">
        <ele>1139.5</ele>
        <time>2009-11-29T08:02:01Z</time>
      </trkpt>
      <trkpt lat="45.46558" lon="4.01572">
        <ele>1139.5</ele>
        <time>2009-11-29T08:02:03Z</time>
      </trkpt>
      <trkpt lat="45.46561" lon="4.0161">
        <ele>1140</ele>
        <time>2009-11-29T08:02:05Z</time>
      </trkpt>
      <trkpt lat="45.46564" lon="4.01643">
        <ele>1140</ele>
        <time>2009-11-29T08:02:07Z</time>
      </trkpt>
      <trkpt lat="45.46566" lon="4.01676">
        <ele>1140</ele>
        <time>2009-11-29T08:02:08Z</time>
      </trkpt>
      <trkpt lat="45.4657" lon="4.01691">
        <ele>1140</ele>
        <time>2009-11-29T08:02:10Z</time>
      </trkpt>
      <trkpt lat="45.46574" lon="4.01719">
        <ele>1140.5</ele>
        <time>2009-11-29T08:02:12Z</time>
      </trkpt>
      <trkpt lat="45.46583" lon="4.0176">
        <ele>1140.5</ele>
        <time>2009-11-29T08:02:14Z</time>
      </trkpt>
      <trkpt lat="45.46588" lon="4.01785">
        <ele>1140</ele>
        <time>2009-11-29T08:02:17Z</time>
      </trkpt>
      <trkpt lat="45.46592" lon="4.01808">
        <ele>1140</ele>
        <time>2009-11-29T08:02:19Z</time>
      </trkpt>
      <trkpt lat="45.46595" lon="4.0183">
        <ele>1140</ele>
        <time>2009-11-29T08:02:21Z</time>
      </trkpt>
      <trkpt lat="45.46597" lon="4.0185">
        <ele>1140.5</ele>
        <time>2009-11-29T08:02:22Z</time>
      </trkpt>
      <trkpt lat="45.46597" lon="4.01871">
        <ele>1140.5</ele>
        <time>2009-11-29T08:02:24Z</time>
      </trkpt>
      <trkpt lat="45.46595" lon="4.01891">
        <ele>1140.5</ele>
        <time>2009-11-29T08:02:26Z</time>
      </trkpt>
      <trkpt lat="45.46596" lon="4.01912">
        <ele>1140.5</ele>
        <time>2009-11-29T08:02:29Z</time>
      </trkpt>
      <trkpt lat="45.46605" lon="4.0192">
        <ele>1141</ele>
        <time>2009-11-29T08:02:31Z</time>
      </trkpt>
      <trkpt lat="45.46621" lon="4.01917">
        <ele>1141</ele>
        <time>2009-11-29T08:02:33Z</time>
      </trkpt>
      <trkpt lat="45.46628" lon="4.01934">
        <ele>1141</ele>
        <time>2009-11-29T08:02:35Z</time>
      </trkpt>
      <trkpt lat="45.46636" lon="4.01952">
        <ele>1141</ele>
        <time>2009-11-29T08:02:37Z</time>
      </trkpt>
      <trkpt lat="45.4665" lon="4.01973">
        <ele>1141</ele>
        <time>2009-11-29T08:02:42Z</time>
      </trkpt>
      <trkpt lat="45.46653" lon="4.01998">
        <ele>1141.1</ele>
        <time>2009-11-29T08:02:46Z</time>
      </trkpt>
      <trkpt lat="45.46663" lon="4.01998">
        <ele>1140.6</ele>
        <time>2009-11-29T08:02:52Z</time>
      </trkpt>
      <trkpt lat="45.46688" lon="4.01987">
        <ele>1141.5</ele>
        <time>2009-11-29T08:02:58Z</time>
      </trkpt>
      <trkpt lat="45.46706" lon="4.01983">
        <ele>1141</ele>
        <time>2009-11-29T08:03:01Z</time>
      </trkpt>
      <trkpt lat="45.4672" lon="4.01973">
        <ele>1141.3</ele>
        <time>2009-11-29T08:03:04Z</time>
      </trkpt>
      <trkpt lat="45.46733" lon="4.01963">
        <ele>1141</ele>
        <time>2009-11-29T08:03:07Z</time>
      </trkpt>
      <trkpt lat="45.46745" lon="4.01946">
        <ele>1140.5</ele>
        <time>2009-11-29T08:03:10Z</time>
      </trkpt>
      <trkpt lat="45.46764" lon="4.01942">
        <ele>1138</ele>
        <time>2009-11-29T08:03:13Z</time>
      </trkpt>
      <trkpt lat="45.46782" lon="4.01945">
        <ele>1135.5</ele>
        <time>2009-11-29T08:03:15Z</time>
      </trkpt>
      <trkpt lat="45.46795" lon="4.01944">
        <ele>1135.5</ele>
        <time>2009-11-29T08:03:16Z</time>
      </trkpt>
      <trkpt lat="45.46813" lon="4.0194">
        <ele>1135.5</ele>
        <time>2009-11-29T08:03:18Z</time>
      </trkpt>
      <trkpt lat="45.46829" lon="4.01939">
        <ele>1136</ele>
        <time>2009-11-29T08:03:20Z</time>
      </trkpt>
      <trkpt lat="45.46845" lon="4.01944">
        <ele>1135.5</ele>
        <time>2009-11-29T08:03:23Z</time>
      </trkpt>
      <trkpt lat="45.46867" lon="4.01958">
        <ele>1133</ele>
        <time>2009-11-29T08:03:25Z</time>
      </trkpt>
      <trkpt lat="45.46892" lon="4.01986">
        <ele>1136.5</ele>
        <time>2009-11-29T08:03:27Z</time>
      </trkpt>
      <trkpt lat="45.46913" lon="4.02003">
        <ele>1134</ele>
        <time>2009-11-29T08:03:29Z</time>
      </trkpt>
      <trkpt lat="45.46932" lon="4.02018">
        <ele>1133.5</ele>
        <time>2009-11-29T08:03:30Z</time>
      </trkpt>
      <trkpt lat="45.4695" lon="4.02034">
        <ele>1132.5</ele>
        <time>2009-11-29T08:03:32Z</time>
      </trkpt>
      <trkpt lat="45.46967" lon="4.02048">
        <ele>1131</ele>
        <time>2009-11-29T08:03:34Z</time>
      </trkpt>
      <trkpt lat="45.46978" lon="4.02065">
        <ele>1130</ele>
        <time>2009-11-29T08:03:37Z</time>
      </trkpt>
      <trkpt lat="45.46985" lon="4.02087">
        <ele>1128.5</ele>
        <time>2009-11-29T08:03:39Z</time>
      </trkpt>
      <trkpt lat="45.46985" lon="4.02115">
        <ele>1126.5</ele>
        <time>2009-11-29T08:03:41Z</time>
      </trkpt>
      <trkpt lat="45.46981" lon="4.02147">
        <ele>1117</ele>
        <time>2009-11-29T08:03:42Z</time>
      </trkpt>
      <trkpt lat="45.46982" lon="4.02173">
        <ele>1112</ele>
        <time>2009-11-29T08:03:44Z</time>
      </trkpt>
      <trkpt lat="45.46989" lon="4.02195">
        <ele>1109.5</ele>
        <time>2009-11-29T08:03:46Z</time>
      </trkpt>
      <trkpt lat="45.47002" lon="4.02209">
        <ele>1108</ele>
        <time>2009-11-29T08:03:48Z</time>
      </trkpt>
      <trkpt lat="45.47017" lon="4.02219">
        <ele>1106</ele>
        <time>2009-11-29T08:03:51Z</time>
      </trkpt>
      <trkpt lat="45.47035" lon="4.02224">
        <ele>1104.5</ele>
        <time>2009-11-29T08:03:53Z</time>
      </trkpt>
      <trkpt lat="45.47054" lon="4.02225">
        <ele>1103</ele>
        <time>2009-11-29T08:03:55Z</time>
      </trkpt>
      <trkpt lat="45.47072" lon="4.02224">
        <ele>1102</ele>
        <time>2009-11-29T08:03:56Z</time>
      </trkpt>
      <trkpt lat="45.47091" lon="4.02213">
        <ele>1101.5</ele>
        <time>2009-11-29T08:03:58Z</time>
      </trkpt>
      <trkpt lat="45.47105" lon="4.02197">
        <ele>1101</ele>
        <time>2009-11-29T08:04:00Z</time>
      </trkpt>
      <trkpt lat="45.47118" lon="4.02178">
        <ele>1100.5</ele>
        <time>2009-11-29T08:04:02Z</time>
      </trkpt>
      <trkpt lat="45.47129" lon="4.02155">
        <ele>1099.5</ele>
        <time>2009-11-29T08:04:05Z</time>
      </trkpt>
      <trkpt lat="45.47141" lon="4.02135">
        <ele>1098.5</ele>
        <time>2009-11-29T08:04:07Z</time>
      </trkpt>
      <trkpt lat="45.47158" lon="4.02128">
        <ele>1098</ele>
        <time>2009-11-29T08:04:09Z</time>
      </trkpt>
      <trkpt lat="45.47174" lon="4.02131">
        <ele>1097.5</ele>
        <time>2009-11-29T08:04:10Z</time>
      </trkpt>
      <trkpt lat="45.47192" lon="4.02134">
        <ele>1097.5</ele>
        <time>2009-11-29T08:04:12Z</time>
      </trkpt>
      <trkpt lat="45.47211" lon="4.02135">
        <ele>1097.5</ele>
        <time>2009-11-29T08:04:14Z</time>
      </trkpt>
      <trkpt lat="45.47231" lon="4.02134">
        <ele>1097.5</ele>
        <time>2009-11-29T08:04:17Z</time>
      </trkpt>
      <trkpt lat="45.4725" lon="4.02134">
        <ele>1097.5</ele>
        <time>2009-11-29T08:04:19Z</time>
      </trkpt>
      <trkpt lat="45.47269" lon="4.02135">
        <ele>1097.5</ele>
        <time>2009-11-29T08:04:21Z</time>
      </trkpt>
      <trkpt lat="45.47288" lon="4.02139">
        <ele>1097</ele>
        <time>2009-11-29T08:04:23Z</time>
      </trkpt>
      <trkpt lat="45.47305" lon="4.02141">
        <ele>1097</ele>
        <time>2009-11-29T08:04:24Z</time>
      </trkpt>
      <trkpt lat="45.47323" lon="4.02142">
        <ele>1096.5</ele>
        <time>2009-11-29T08:04:27Z</time>
      </trkpt>
      <trkpt lat="45.47342" lon="4.02149">
        <ele>1096.5</ele>
        <time>2009-11-29T08:04:30Z</time>
      </trkpt>
      <trkpt lat="45.47357" lon="4.02159">
        <ele>1095.5</ele>
        <time>2009-11-29T08:04:31Z</time>
      </trkpt>
      <trkpt lat="45.47372" lon="4.02168">
        <ele>1094.5</ele>
        <time>2009-11-29T08:04:33Z</time>
      </trkpt>
      <trkpt lat="45.4739" lon="4.02179">
        <ele>1093</ele>
        <time>2009-11-29T08:04:35Z</time>
      </trkpt>
      <trkpt lat="45.47409" lon="4.02189">
        <ele>1092</ele>
        <time>2009-11-29T08:04:38Z</time>
      </trkpt>
      <trkpt lat="45.47429" lon="4.02199">
        <ele>1091</ele>
        <time>2009-11-29T08:04:40Z</time>
      </trkpt>
      <trkpt lat="45.47452" lon="4.02211">
        <ele>1090</ele>
        <time>2009-11-29T08:04:42Z</time>
      </trkpt>
      <trkpt lat="45.47477" lon="4.0222">
        <ele>1089</ele>
        <time>2009-11-29T08:04:43Z</time>
      </trkpt>
      <trkpt lat="45.47491" lon="4.02223">
        <ele>1088</ele>
        <time>2009-11-29T08:04:45Z</time>
      </trkpt>
      <trkpt lat="45.4752" lon="4.02227">
        <ele>1086</ele>
        <time>2009-11-29T08:04:47Z</time>
      </trkpt>
      <trkpt lat="45.47549" lon="4.02234">
        <ele>1084</ele>
        <time>2009-11-29T08:04:49Z</time>
      </trkpt>
      <trkpt lat="45.47592" lon="4.02242">
        <ele>1081</ele>
        <time>2009-11-29T08:04:52Z</time>
      </trkpt>
      <trkpt lat="45.47618" lon="4.02247">
        <ele>1080</ele>
        <time>2009-11-29T08:04:54Z</time>
      </trkpt>
      <trkpt lat="45.4764" lon="4.02255">
        <ele>1079.5</ele>
        <time>2009-11-29T08:04:56Z</time>
      </trkpt>
      <trkpt lat="45.4766" lon="4.02268">
        <ele>1079</ele>
        <time>2009-11-29T08:04:57Z</time>
      </trkpt>
      <trkpt lat="45.47679" lon="4.02284">
        <ele>1078.5</ele>
        <time>2009-11-29T08:04:59Z</time>
      </trkpt>
      <trkpt lat="45.47697" lon="4.02303">
        <ele>1078.5</ele>
        <time>2009-11-29T08:05:01Z</time>
      </trkpt>
      <trkpt lat="45.47714" lon="4.02322">
        <ele>1078.5</ele>
        <time>2009-11-29T08:05:04Z</time>
      </trkpt>
      <trkpt lat="45.47746" lon="4.02348">
        <ele>1077.5</ele>
        <time>2009-11-29T08:05:06Z</time>
      </trkpt>
      <trkpt lat="45.47757" lon="4.02357">
        <ele>1076.5</ele>
        <time>2009-11-29T08:05:08Z</time>
      </trkpt>
      <trkpt lat="45.47779" lon="4.02377">
        <ele>1073.5</ele>
        <time>2009-11-29T08:05:10Z</time>
      </trkpt>
      <trkpt lat="45.47789" lon="4.02388">
        <ele>1071.5</ele>
        <time>2009-11-29T08:05:11Z</time>
      </trkpt>
      <trkpt lat="45.47809" lon="4.02409">
        <ele>1066.5</ele>
        <time>2009-11-29T08:05:13Z</time>
      </trkpt>
      <trkpt lat="45.47828" lon="4.02433">
        <ele>1062</ele>
        <time>2009-11-29T08:05:15Z</time>
      </trkpt>
      <trkpt lat="45.47845" lon="4.02455">
        <ele>1059</ele>
        <time>2009-11-29T08:05:17Z</time>
      </trkpt>
      <trkpt lat="45.47862" lon="4.02472">
        <ele>1057.5</ele>
        <time>2009-11-29T08:05:18Z</time>
      </trkpt>
      <trkpt lat="45.47877" lon="4.02486">
        <ele>1053.5</ele>
        <time>2009-11-29T08:05:20Z</time>
      </trkpt>
      <trkpt lat="45.47889" lon="4.02499">
        <ele>1046.5</ele>
        <time>2009-11-29T08:05:22Z</time>
      </trkpt>
      <trkpt lat="45.47897" lon="4.02517">
        <ele>1039</ele>
        <time>2009-11-29T08:05:25Z</time>
      </trkpt>
      <trkpt lat="45.47903" lon="4.0254">
        <ele>1032.5</ele>
        <time>2009-11-29T08:05:27Z</time>
      </trkpt>
      <trkpt lat="45.47909" lon="4.02567">
        <ele>1026.5</ele>
        <time>2009-11-29T08:05:29Z</time>
      </trkpt>
      <trkpt lat="45.47915" lon="4.0259">
        <ele>1022</ele>
        <time>2009-11-29T08:05:30Z</time>
      </trkpt>
      <trkpt lat="45.47919" lon="4.0261">
        <ele>1019.5</ele>
        <time>2009-11-29T08:05:32Z</time>
      </trkpt>
      <trkpt lat="45.47925" lon="4.0263">
        <ele>1015.5</ele>
        <time>2009-11-29T08:05:34Z</time>
      </trkpt>
      <trkpt lat="45.47929" lon="4.02653">
        <ele>1012</ele>
        <time>2009-11-29T08:05:36Z</time>
      </trkpt>
      <trkpt lat="45.47933" lon="4.02675">
        <ele>1010</ele>
        <time>2009-11-29T08:05:39Z</time>
      </trkpt>
      <trkpt lat="45.47934" lon="4.02696">
        <ele>1006</ele>
        <time>2009-11-29T08:05:41Z</time>
      </trkpt>
      <trkpt lat="45.47927" lon="4.02716">
        <ele>1000.5</ele>
        <time>2009-11-29T08:05:43Z</time>
      </trkpt>
      <trkpt lat="45.47917" lon="4.02733">
        <ele>996.5</ele>
        <time>2009-11-29T08:05:44Z</time>
      </trkpt>
      <trkpt lat="45.47906" lon="4.02745">
        <ele>994</ele>
        <time>2009-11-29T08:05:46Z</time>
      </trkpt>
      <trkpt lat="45.47895" lon="4.02756">
        <ele>992.3</ele>
        <time>2009-11-29T08:05:49Z</time>
      </trkpt>
      <trkpt lat="45.47882" lon="4.02766">
        <ele>990.7</ele>
        <time>2009-11-29T08:05:53Z</time>
      </trkpt>
      <trkpt lat="45.4787" lon="4.02779">
        <ele>988.8</ele>
        <time>2009-11-29T08:05:56Z</time>
      </trkpt>
      <trkpt lat="45.47863" lon="4.02797">
        <ele>986.3</ele>
        <time>2009-11-29T08:05:59Z</time>
      </trkpt>
      <trkpt lat="45.4785" lon="4.02808">
        <ele>985.5</ele>
        <time>2009-11-29T08:06:02Z</time>
      </trkpt>
      <trkpt lat="45.47836" lon="4.02814">
        <ele>985</ele>
        <time>2009-11-29T08:06:05Z</time>
      </trkpt>
      <trkpt lat="45.47822" lon="4.0282">
        <ele>984.3</ele>
        <time>2009-11-29T08:06:09Z</time>
      </trkpt>
      <trkpt lat="45.47807" lon="4.02824">
        <ele>984</ele>
        <time>2009-11-29T08:06:12Z</time>
      </trkpt>
      <trkpt lat="45.47792" lon="4.02827">
        <ele>983.5</ele>
        <time>2009-11-29T08:06:16Z</time>
      </trkpt>
      <trkpt lat="45.47777" lon="4.0283">
        <ele>983</ele>
        <time>2009-11-29T08:06:21Z</time>
      </trkpt>
      <trkpt lat="45.47762" lon="4.02835">
        <ele>982.5</ele>
        <time>2009-11-29T08:06:24Z</time>
      </trkpt>
      <trkpt lat="45.47747" lon="4.0284">
        <ele>982</ele>
        <time>2009-11-29T08:06:28Z</time>
      </trkpt>
      <trkpt lat="45.47732" lon="4.02846">
        <ele>981.5</ele>
        <time>2009-11-29T08:06:33Z</time>
      </trkpt>
      <trkpt lat="45.47717" lon="4.02854">
        <ele>981.3</ele>
        <time>2009-11-29T08:06:37Z</time>
      </trkpt>
      <trkpt lat="45.47703" lon="4.0286">
        <ele>981.5</ele>
        <time>2009-11-29T08:06:40Z</time>
      </trkpt>
      <trkpt lat="45.47687" lon="4.02859">
        <ele>981.5</ele>
        <time>2009-11-29T08:06:45Z</time>
      </trkpt>
      <trkpt lat="45.47672" lon="4.02858">
        <ele>981.3</ele>
        <time>2009-11-29T08:06:49Z</time>
      </trkpt>
      <trkpt lat="45.47657" lon="4.02864">
        <ele>981.4</ele>
        <time>2009-11-29T08:06:54Z</time>
      </trkpt>
      <trkpt lat="45.47643" lon="4.02871">
        <ele>980.6</ele>
        <time>2009-11-29T08:06:59Z</time>
      </trkpt>
      <trkpt lat="45.4763" lon="4.02881">
        <ele>979.5</ele>
        <time>2009-11-29T08:07:04Z</time>
      </trkpt>
      <trkpt lat="45.47618" lon="4.0289">
        <ele>979</ele>
        <time>2009-11-29T08:07:09Z</time>
      </trkpt>
      <trkpt lat="45.47605" lon="4.02902">
        <ele>979.2</ele>
        <time>2009-11-29T08:07:13Z</time>
      </trkpt>
      <trkpt lat="45.47597" lon="4.02916">
        <ele>979.8</ele>
        <time>2009-11-29T08:07:18Z</time>
      </trkpt>
      <trkpt lat="45.47592" lon="4.02929">
        <ele>979.7</ele>
        <time>2009-11-29T08:07:22Z</time>
      </trkpt>
      <trkpt lat="45.47586" lon="4.02944">
        <ele>980.8</ele>
        <time>2009-11-29T08:07:26Z</time>
      </trkpt>
      <trkpt lat="45.4758" lon="4.02958">
        <ele>981.3</ele>
        <time>2009-11-29T08:07:29Z</time>
      </trkpt>
      <trkpt lat="45.47573" lon="4.02973">
        <ele>982</ele>
        <time>2009-11-29T08:07:32Z</time>
      </trkpt>
      <trkpt lat="45.47567" lon="4.02986">
        <ele>982.5</ele>
        <time>2009-11-29T08:07:36Z</time>
      </trkpt>
      <trkpt lat="45.47558" lon="4.03001">
        <ele>983.5</ele>
        <time>2009-11-29T08:07:39Z</time>
      </trkpt>
      <trkpt lat="45.47548" lon="4.03017">
        <ele>985.2</ele>
        <time>2009-11-29T08:07:43Z</time>
      </trkpt>
      <trkpt lat="45.4754" lon="4.03032">
        <ele>986.3</ele>
        <time>2009-11-29T08:07:46Z</time>
      </trkpt>
      <trkpt lat="45.47535" lon="4.03048">
        <ele>987.3</ele>
        <time>2009-11-29T08:07:49Z</time>
      </trkpt>
      <trkpt lat="45.47533" lon="4.03062">
        <ele>987.8</ele>
        <time>2009-11-29T08:07:52Z</time>
      </trkpt>
      <trkpt lat="45.47528" lon="4.03077">
        <ele>988.3</ele>
        <time>2009-11-29T08:07:55Z</time>
      </trkpt>
      <trkpt lat="45.47523" lon="4.03091">
        <ele>989.7</ele>
        <time>2009-11-29T08:07:59Z</time>
      </trkpt>
      <trkpt lat="45.47514" lon="4.03106">
        <ele>990.5</ele>
        <time>2009-11-29T08:08:02Z</time>
      </trkpt>
      <trkpt lat="45.47506" lon="4.03122">
        <ele>990.5</ele>
        <time>2009-11-29T08:08:07Z</time>
      </trkpt>
      <trkpt lat="45.4751" lon="4.03134">
        <ele>990.5</ele>
        <time>2009-11-29T08:08:11Z</time>
      </trkpt>
      <trkpt lat="45.47515" lon="4.03148">
        <ele>989.8</ele>
        <time>2009-11-29T08:08:14Z</time>
      </trkpt>
      <trkpt lat="45.47521" lon="4.03163">
        <ele>988</ele>
        <time>2009-11-29T08:08:18Z</time>
      </trkpt>
      <trkpt lat="45.47527" lon="4.03177">
        <ele>987.5</ele>
        <time>2009-11-29T08:08:21Z</time>
      </trkpt>
      <trkpt lat="45.47535" lon="4.03191">
        <ele>987.5</ele>
        <time>2009-11-29T08:08:24Z</time>
      </trkpt>
      <trkpt lat="45.47543" lon="4.03204">
        <ele>987.2</ele>
        <time>2009-11-29T08:08:28Z</time>
      </trkpt>
      <trkpt lat="45.4755" lon="4.03221">
        <ele>986.7</ele>
        <time>2009-11-29T08:08:32Z</time>
      </trkpt>
      <trkpt lat="45.47558" lon="4.03237">
        <ele>985.5</ele>
        <time>2009-11-29T08:08:36Z</time>
      </trkpt>
      <trkpt lat="45.47565" lon="4.03248">
        <ele>983.6</ele>
        <time>2009-11-29T08:08:41Z</time>
      </trkpt>
      <trkpt lat="45.47576" lon="4.03264">
        <ele>983</ele>
        <time>2009-11-29T08:08:46Z</time>
      </trkpt>
      <trkpt lat="45.47585" lon="4.03277">
        <ele>984</ele>
        <time>2009-11-29T08:08:49Z</time>
      </trkpt>
      <trkpt lat="45.47595" lon="4.0329">
        <ele>981.9</ele>
        <time>2009-11-29T08:08:54Z</time>
      </trkpt>
      <trkpt lat="45.47603" lon="4.03303">
        <ele>978.4</ele>
        <time>2009-11-29T08:08:59Z</time>
      </trkpt>
      <trkpt lat="45.47618" lon="4.03308">
        <ele>976.3</ele>
        <time>2009-11-29T08:09:03Z</time>
      </trkpt>
      <trkpt lat="45.47633" lon="4.03314">
        <ele>976</ele>
        <time>2009-11-29T08:09:07Z</time>
      </trkpt>
      <trkpt lat="45.47647" lon="4.03323">
        <ele>976.3</ele>
        <time>2009-11-29T08:09:10Z</time>
      </trkpt>
      <trkpt lat="45.4766" lon="4.03331">
        <ele>976</ele>
        <time>2009-11-29T08:09:13Z</time>
      </trkpt>
      <trkpt lat="45.47671" lon="4.03341">
        <ele>976</ele>
        <time>2009-11-29T08:09:16Z</time>
      </trkpt>
      <trkpt lat="45.47681" lon="4.03351">
        <ele>977</ele>
        <time>2009-11-29T08:09:19Z</time>
      </trkpt>
      <trkpt lat="45.47693" lon="4.03364">
        <ele>978</ele>
        <time>2009-11-29T08:09:22Z</time>
      </trkpt>
      <trkpt lat="45.47706" lon="4.03376">
        <ele>977.6</ele>
        <time>2009-11-29T08:09:27Z</time>
      </trkpt>
      <trkpt lat="45.47715" lon="4.03389">
        <ele>974</ele>
        <time>2009-11-29T08:09:34Z</time>
      </trkpt>
      <trkpt lat="45.47723" lon="4.03401">
        <ele>966.6</ele>
        <time>2009-11-29T08:09:42Z</time>
      </trkpt>
      <trkpt lat="45.47731" lon="4.03412">
        <ele>957.8</ele>
        <time>2009-11-29T08:09:51Z</time>
      </trkpt>
      <trkpt lat="45.47741" lon="4.03421">
        <ele>949.8</ele>
        <time>2009-11-29T08:09:59Z</time>
      </trkpt>
      <trkpt lat="45.47757" lon="4.03425">
        <ele>947.4</ele>
        <time>2009-11-29T08:10:04Z</time>
      </trkpt>
      <trkpt lat="45.47775" lon="4.03425">
        <ele>945</ele>
        <time>2009-11-29T08:10:09Z</time>
      </trkpt>
      <trkpt lat="45.47792" lon="4.03427">
        <ele>944.3</ele>
        <time>2009-11-29T08:10:13Z</time>
      </trkpt>
      <trkpt lat="45.47807" lon="4.03425">
        <ele>944</ele>
        <time>2009-11-29T08:10:18Z</time>
      </trkpt>
      <trkpt lat="45.47824" lon="4.03424">
        <ele>939.2</ele>
        <time>2009-11-29T08:10:23Z</time>
      </trkpt>
      <trkpt lat="45.4784" lon="4.03422">
        <ele>936.5</ele>
        <time>2009-11-29T08:10:27Z</time>
      </trkpt>
      <trkpt lat="45.47855" lon="4.03421">
        <ele>936</ele>
        <time>2009-11-29T08:10:30Z</time>
      </trkpt>
      <trkpt lat="45.47869" lon="4.03422">
        <ele>935.8</ele>
        <time>2009-11-29T08:10:34Z</time>
      </trkpt>
      <trkpt lat="45.47883" lon="4.0343">
        <ele>935.3</ele>
        <time>2009-11-29T08:10:37Z</time>
      </trkpt>
      <trkpt lat="45.47895" lon="4.03437">
        <ele>933.5</ele>
        <time>2009-11-29T08:10:41Z</time>
      </trkpt>
      <trkpt lat="45.47911" lon="4.03441">
        <ele>931.2</ele>
        <time>2009-11-29T08:10:46Z</time>
      </trkpt>
      <trkpt lat="45.47921" lon="4.03453">
        <ele>927</ele>
        <time>2009-11-29T08:10:52Z</time>
      </trkpt>
      <trkpt lat="45.47933" lon="4.03462">
        <ele>926.6</ele>
        <time>2009-11-29T08:10:57Z</time>
      </trkpt>
      <trkpt lat="45.47947" lon="4.03468">
        <ele>925.8</ele>
        <time>2009-11-29T08:11:01Z</time>
      </trkpt>
      <trkpt lat="45.4796" lon="4.03481">
        <ele>919.3</ele>
        <time>2009-11-29T08:11:05Z</time>
      </trkpt>
      <trkpt lat="45.47971" lon="4.03494">
        <ele>912.3</ele>
        <time>2009-11-29T08:11:09Z</time>
      </trkpt>
      <trkpt lat="45.4798" lon="4.03508">
        <ele>909</ele>
        <time>2009-11-29T08:11:12Z</time>
      </trkpt>
      <trkpt lat="45.47991" lon="4.03522">
        <ele>906.5</ele>
        <time>2009-11-29T08:11:15Z</time>
      </trkpt>
      <trkpt lat="45.48001" lon="4.03533">
        <ele>907</ele>
        <time>2009-11-29T08:11:17Z</time>
      </trkpt>
      <trkpt lat="45.48012" lon="4.03548">
        <ele>909</ele>
        <time>2009-11-29T08:11:19Z</time>
      </trkpt>
      <trkpt lat="45.48017" lon="4.03565">
        <ele>905.5</ele>
        <time>2009-11-29T08:11:21Z</time>
      </trkpt>
      <trkpt lat="45.48021" lon="4.03585">
        <ele>908</ele>
        <time>2009-11-29T08:11:22Z</time>
      </trkpt>
      <trkpt lat="45.48024" lon="4.03606">
        <ele>908</ele>
        <time>2009-11-29T08:11:24Z</time>
      </trkpt>
      <trkpt lat="45.48032" lon="4.03624">
        <ele>908</ele>
        <time>2009-11-29T08:11:26Z</time>
      </trkpt>
      <trkpt lat="45.4804" lon="4.03637">
        <ele>908</ele>
        <time>2009-11-29T08:11:29Z</time>
      </trkpt>
      <trkpt lat="45.48051" lon="4.03648">
        <ele>909.3</ele>
        <time>2009-11-29T08:11:31Z</time>
      </trkpt>
      <trkpt lat="45.48064" lon="4.03662">
        <ele>910.8</ele>
        <time>2009-11-29T08:11:35Z</time>
      </trkpt>
      <trkpt lat="45.48075" lon="4.03673">
        <ele>913.7</ele>
        <time>2009-11-29T08:11:38Z</time>
      </trkpt>
      <trkpt lat="45.48084" lon="4.03685">
        <ele>914.5</ele>
        <time>2009-11-29T08:11:42Z</time>
      </trkpt>
      <trkpt lat="45.48094" lon="4.03698">
        <ele>913.8</ele>
        <time>2009-11-29T08:11:45Z</time>
      </trkpt>
      <trkpt lat="45.48105" lon="4.03709">
        <ele>913.5</ele>
        <time>2009-11-29T08:11:49Z</time>
      </trkpt>
      <trkpt lat="45.48121" lon="4.03717">
        <ele>912.7</ele>
        <time>2009-11-29T08:11:54Z</time>
      </trkpt>
      <trkpt lat="45.4814" lon="4.03714">
        <ele>912.5</ele>
        <time>2009-11-29T08:11:57Z</time>
      </trkpt>
      <trkpt lat="45.48155" lon="4.03709">
        <ele>912.5</ele>
        <time>2009-11-29T08:11:59Z</time>
      </trkpt>
      <trkpt lat="45.4817" lon="4.03705">
        <ele>911</ele>
        <time>2009-11-29T08:12:01Z</time>
      </trkpt>
      <trkpt lat="45.48185" lon="4.03705">
        <ele>910.5</ele>
        <time>2009-11-29T08:12:02Z</time>
      </trkpt>
      <trkpt lat="45.48202" lon="4.03709">
        <ele>910</ele>
        <time>2009-11-29T08:12:04Z</time>
      </trkpt>
      <trkpt lat="45.48218" lon="4.03713">
        <ele>910</ele>
        <time>2009-11-29T08:12:06Z</time>
      </trkpt>
      <trkpt lat="45.48233" lon="4.03712">
        <ele>909.5</ele>
        <time>2009-11-29T08:12:08Z</time>
      </trkpt>
      <trkpt lat="45.48247" lon="4.03716">
        <ele>910</ele>
        <time>2009-11-29T08:12:11Z</time>
      </trkpt>
      <trkpt lat="45.48259" lon="4.03728">
        <ele>911</ele>
        <time>2009-11-29T08:12:15Z</time>
      </trkpt>
      <trkpt lat="45.48272" lon="4.03738">
        <ele>911.8</ele>
        <time>2009-11-29T08:12:18Z</time>
      </trkpt>
      <trkpt lat="45.48285" lon="4.03742">
        <ele>911.5</ele>
        <time>2009-11-29T08:12:23Z</time>
      </trkpt>
      <trkpt lat="45.483" lon="4.03743">
        <ele>910.5</ele>
        <time>2009-11-29T08:12:27Z</time>
      </trkpt>
      <trkpt lat="45.48318" lon="4.03741">
        <ele>908</ele>
        <time>2009-11-29T08:12:31Z</time>
      </trkpt>
      <trkpt lat="45.48336" lon="4.03744">
        <ele>899.5</ele>
        <time>2009-11-29T08:12:34Z</time>
      </trkpt>
      <trkpt lat="45.48353" lon="4.03745">
        <ele>896.5</ele>
        <time>2009-11-29T08:12:35Z</time>
      </trkpt>
      <trkpt lat="45.48368" lon="4.03751">
        <ele>895</ele>
        <time>2009-11-29T08:12:37Z</time>
      </trkpt>
      <trkpt lat="45.48382" lon="4.03762">
        <ele>894</ele>
        <time>2009-11-29T08:12:39Z</time>
      </trkpt>
      <trkpt lat="45.48396" lon="4.03773">
        <ele>893</ele>
        <time>2009-11-29T08:12:41Z</time>
      </trkpt>
      <trkpt lat="45.48412" lon="4.03777">
        <ele>890.3</ele>
        <time>2009-11-29T08:12:44Z</time>
      </trkpt>
      <trkpt lat="45.48423" lon="4.03763">
        <ele>886.3</ele>
        <time>2009-11-29T08:12:48Z</time>
      </trkpt>
      <trkpt lat="45.48427" lon="4.03745">
        <ele>882.8</ele>
        <time>2009-11-29T08:12:51Z</time>
      </trkpt>
      <trkpt lat="45.48431" lon="4.03728">
        <ele>880.5</ele>
        <time>2009-11-29T08:12:54Z</time>
      </trkpt>
      <trkpt lat="45.48434" lon="4.03713">
        <ele>878.5</ele>
        <time>2009-11-29T08:12:57Z</time>
      </trkpt>
      <trkpt lat="45.4844" lon="4.03697">
        <ele>877.3</ele>
        <time>2009-11-29T08:13:00Z</time>
      </trkpt>
      <trkpt lat="45.4845" lon="4.03683">
        <ele>876</ele>
        <time>2009-11-29T08:13:03Z</time>
      </trkpt>
      <trkpt lat="45.48461" lon="4.0367">
        <ele>874.8</ele>
        <time>2009-11-29T08:13:07Z</time>
      </trkpt>
      <trkpt lat="45.48474" lon="4.0366">
        <ele>872.8</ele>
        <time>2009-11-29T08:13:10Z</time>
      </trkpt>
      <trkpt lat="45.48486" lon="4.03647">
        <ele>871.3</ele>
        <time>2009-11-29T08:13:13Z</time>
      </trkpt>
      <trkpt lat="45.48496" lon="4.03635">
        <ele>870</ele>
        <time>2009-11-29T08:13:16Z</time>
      </trkpt>
      <trkpt lat="45.48508" lon="4.03624">
        <ele>868.7</ele>
        <time>2009-11-29T08:13:19Z</time>
      </trkpt>
      <trkpt lat="45.48522" lon="4.03616">
        <ele>868.5</ele>
        <time>2009-11-29T08:13:24Z</time>
      </trkpt>
      <trkpt lat="45.48535" lon="4.03603">
        <ele>868.2</ele>
        <time>2009-11-29T08:13:28Z</time>
      </trkpt>
      <trkpt lat="45.48547" lon="4.03594">
        <ele>864.4</ele>
        <time>2009-11-29T08:13:35Z</time>
      </trkpt>
      <trkpt lat="45.4856" lon="4.03585">
        <ele>859.6</ele>
        <time>2009-11-29T08:13:44Z</time>
      </trkpt>
      <trkpt lat="45.48572" lon="4.03578">
        <ele>855.5</ele>
        <time>2009-11-29T08:13:50Z</time>
      </trkpt>
      <trkpt lat="45.48587" lon="4.03565">
        <ele>855</ele>
        <time>2009-11-29T08:13:54Z</time>
      </trkpt>
      <trkpt lat="45.48599" lon="4.03554">
        <ele>853.5</ele>
        <time>2009-11-29T08:13:57Z</time>
      </trkpt>
      <trkpt lat="45.48607" lon="4.03541">
        <ele>852</ele>
        <time>2009-11-29T08:14:01Z</time>
      </trkpt>
      <trkpt lat="45.48612" lon="4.03524">
        <ele>850.5</ele>
        <time>2009-11-29T08:14:04Z</time>
      </trkpt>
      <trkpt lat="45.48615" lon="4.03507">
        <ele>849.5</ele>
        <time>2009-11-29T08:14:06Z</time>
      </trkpt>
      <trkpt lat="45.48618" lon="4.03495">
        <ele>845.5</ele>
        <time>2009-11-29T08:14:11Z</time>
      </trkpt>
      <trkpt lat="45.48626" lon="4.03482">
        <ele>841.8</ele>
        <time>2009-11-29T08:14:22Z</time>
      </trkpt>
      <trkpt lat="45.48638" lon="4.03485">
        <ele>836.6</ele>
        <time>2009-11-29T08:14:30Z</time>
      </trkpt>
      <trkpt lat="45.48645" lon="4.03499">
        <ele>832</ele>
        <time>2009-11-29T08:14:46Z</time>
      </trkpt>
      <trkpt lat="45.48651" lon="4.03511">
        <ele>827</ele>
        <time>2009-11-29T08:14:56Z</time>
      </trkpt>
      <trkpt lat="45.48659" lon="4.03526">
        <ele>826.2</ele>
        <time>2009-11-29T08:15:04Z</time>
      </trkpt>
      <trkpt lat="45.48666" lon="4.03539">
        <ele>824.6</ele>
        <time>2009-11-29T08:15:10Z</time>
      </trkpt>
      <trkpt lat="45.48669" lon="4.03555">
        <ele>823.3</ele>
        <time>2009-11-29T08:15:15Z</time>
      </trkpt>
      <trkpt lat="45.48672" lon="4.03572">
        <ele>822.5</ele>
        <time>2009-11-29T08:15:19Z</time>
      </trkpt>
      <trkpt lat="45.48676" lon="4.03588">
        <ele>821.1</ele>
        <time>2009-11-29T08:15:24Z</time>
      </trkpt>
      <trkpt lat="45.48684" lon="4.03601">
        <ele>820</ele>
        <time>2009-11-29T08:15:29Z</time>
      </trkpt>
      <trkpt lat="45.48687" lon="4.03619">
        <ele>817</ele>
        <time>2009-11-29T08:15:33Z</time>
      </trkpt>
      <trkpt lat="45.48694" lon="4.03631">
        <ele>815.4</ele>
        <time>2009-11-29T08:15:39Z</time>
      </trkpt>
      <trkpt lat="45.48704" lon="4.03643">
        <ele>813.9</ele>
        <time>2009-11-29T08:15:45Z</time>
      </trkpt>
      <trkpt lat="45.48714" lon="4.03657">
        <ele>811</ele>
        <time>2009-11-29T08:15:49Z</time>
      </trkpt>
      <trkpt lat="45.48723" lon="4.03668">
        <ele>808.3</ele>
        <time>2009-11-29T08:15:54Z</time>
      </trkpt>
      <trkpt lat="45.48733" lon="4.03681">
        <ele>805</ele>
        <time>2009-11-29T08:15:59Z</time>
      </trkpt>
      <trkpt lat="45.48743" lon="4.03692">
        <ele>801.5</ele>
        <time>2009-11-29T08:16:03Z</time>
      </trkpt>
      <trkpt lat="45.48754" lon="4.03704">
        <ele>797.2</ele>
        <time>2009-11-29T08:16:06Z</time>
      </trkpt>
      <trkpt lat="45.48768" lon="4.03714">
        <ele>794.5</ele>
        <time>2009-11-29T08:16:10Z</time>
      </trkpt>
      <trkpt lat="45.48781" lon="4.03725">
        <ele>794.3</ele>
        <time>2009-11-29T08:16:14Z</time>
      </trkpt>
      <trkpt lat="45.48796" lon="4.0373">
        <ele>793.3</ele>
        <time>2009-11-29T08:16:17Z</time>
      </trkpt>
      <trkpt lat="45.48812" lon="4.03728">
        <ele>791.8</ele>
        <time>2009-11-29T08:16:21Z</time>
      </trkpt>
      <trkpt lat="45.48828" lon="4.03723">
        <ele>791.1</ele>
        <time>2009-11-29T08:16:25Z</time>
      </trkpt>
      <trkpt lat="45.48844" lon="4.03714">
        <ele>789.9</ele>
        <time>2009-11-29T08:16:30Z</time>
      </trkpt>
      <trkpt lat="45.48858" lon="4.03709">
        <ele>788.6</ele>
        <time>2009-11-29T08:16:36Z</time>
      </trkpt>
      <trkpt lat="45.48874" lon="4.03708">
        <ele>787.7</ele>
        <time>2009-11-29T08:16:41Z</time>
      </trkpt>
      <trkpt lat="45.48892" lon="4.03705">
        <ele>787.5</ele>
        <time>2009-11-29T08:16:45Z</time>
      </trkpt>
      <trkpt lat="45.48904" lon="4.03701">
        <ele>787</ele>
        <time>2009-11-29T08:16:49Z</time>
      </trkpt>
      <trkpt lat="45.4892" lon="4.03696">
        <ele>788</ele>
        <time>2009-11-29T08:16:52Z</time>
      </trkpt>
      <trkpt lat="45.48942" lon="4.03691">
        <ele>785.2</ele>
        <time>2009-11-29T08:16:57Z</time>
      </trkpt>
      <trkpt lat="45.48957" lon="4.0369">
        <ele>780</ele>
        <time>2009-11-29T08:17:00Z</time>
      </trkpt>
      <trkpt lat="45.48974" lon="4.03686">
        <ele>778.2</ele>
        <time>2009-11-29T08:17:04Z</time>
      </trkpt>
      <trkpt lat="45.48988" lon="4.0368">
        <ele>779</ele>
        <time>2009-11-29T08:17:09Z</time>
      </trkpt>
      <trkpt lat="45.49004" lon="4.03677">
        <ele>780.7</ele>
        <time>2009-11-29T08:17:14Z</time>
      </trkpt>
      <trkpt lat="45.4902" lon="4.03674">
        <ele>783.4</ele>
        <time>2009-11-29T08:17:23Z</time>
      </trkpt>
      <trkpt lat="45.49035" lon="4.0367">
        <ele>786.1</ele>
        <time>2009-11-29T08:17:32Z</time>
      </trkpt>
      <trkpt lat="45.49053" lon="4.03666">
        <ele>791.1</ele>
        <time>2009-11-29T08:17:37Z</time>
      </trkpt>
      <trkpt lat="45.49066" lon="4.0366">
        <ele>792.3</ele>
        <time>2009-11-29T08:17:44Z</time>
      </trkpt>
      <trkpt lat="45.49081" lon="4.03652">
        <ele>793.3</ele>
        <time>2009-11-29T08:17:51Z</time>
      </trkpt>
      <trkpt lat="45.49095" lon="4.0365">
        <ele>794.1</ele>
        <time>2009-11-29T08:17:57Z</time>
      </trkpt>
      <trkpt lat="45.49111" lon="4.0365">
        <ele>798</ele>
        <time>2009-11-29T08:18:03Z</time>
      </trkpt>
      <trkpt lat="45.49126" lon="4.03652">
        <ele>801.3</ele>
        <time>2009-11-29T08:18:08Z</time>
      </trkpt>
      <trkpt lat="45.49143" lon="4.03652">
        <ele>803.1</ele>
        <time>2009-11-29T08:18:15Z</time>
      </trkpt>
      <trkpt lat="45.49158" lon="4.03654">
        <ele>804.6</ele>
        <time>2009-11-29T08:18:20Z</time>
      </trkpt>
      <trkpt lat="45.49172" lon="4.03657">
        <ele>808</ele>
        <time>2009-11-29T08:18:27Z</time>
      </trkpt>
      <trkpt lat="45.49185" lon="4.03661">
        <ele>812</ele>
        <time>2009-11-29T08:18:33Z</time>
      </trkpt>
      <trkpt lat="45.492" lon="4.03659">
        <ele>817.3</ele>
        <time>2009-11-29T08:18:38Z</time>
      </trkpt>
      <trkpt lat="45.49214" lon="4.03652">
        <ele>821.8</ele>
        <time>2009-11-29T08:18:45Z</time>
      </trkpt>
      <trkpt lat="45.49228" lon="4.03645">
        <ele>824</ele>
        <time>2009-11-29T08:18:54Z</time>
      </trkpt>
      <trkpt lat="45.49242" lon="4.03638">
        <ele>826.6</ele>
        <time>2009-11-29T08:19:04Z</time>
      </trkpt>
      <trkpt lat="45.49256" lon="4.03631">
        <ele>827.4</ele>
        <time>2009-11-29T08:19:13Z</time>
      </trkpt>
      <trkpt lat="45.4927" lon="4.03622">
        <ele>829.9</ele>
        <time>2009-11-29T08:19:23Z</time>
      </trkpt>
      <trkpt lat="45.49283" lon="4.03615">
        <ele>832.2</ele>
        <time>2009-11-29T08:19:32Z</time>
      </trkpt>
      <trkpt lat="45.49296" lon="4.03606">
        <ele>833.9</ele>
        <time>2009-11-29T08:19:40Z</time>
      </trkpt>
      <trkpt lat="45.49308" lon="4.036">
        <ele>834.2</ele>
        <time>2009-11-29T08:19:49Z</time>
      </trkpt>
      <trkpt lat="45.49326" lon="4.03596">
        <ele>833.2</ele>
        <time>2009-11-29T08:19:54Z</time>
      </trkpt>
      <trkpt lat="45.4933" lon="4.03602">
        <ele>835.2</ele>
        <time>2009-11-29T08:20:48Z</time>
      </trkpt>
      <trkpt lat="45.4935" lon="4.036">
        <ele>844.8</ele>
        <time>2009-11-29T08:23:35Z</time>
      </trkpt>
      <trkpt lat="45.49364" lon="4.03608">
        <ele>844.6</ele>
        <time>2009-11-29T08:23:43Z</time>
      </trkpt>
      <trkpt lat="45.49376" lon="4.03621">
        <ele>843.5</ele>
        <time>2009-11-29T08:23:48Z</time>
      </trkpt>
      <trkpt lat="45.49384" lon="4.03635">
        <ele>843.5</ele>
        <time>2009-11-29T08:23:51Z</time>
      </trkpt>
      <trkpt lat="45.49395" lon="4.03652">
        <ele>842.8</ele>
        <time>2009-11-29T08:23:54Z</time>
      </trkpt>
      <trkpt lat="45.49402" lon="4.0367">
        <ele>842</ele>
        <time>2009-11-29T08:23:57Z</time>
      </trkpt>
      <trkpt lat="45.49407" lon="4.03686">
        <ele>842</ele>
        <time>2009-11-29T08:24:00Z</time>
      </trkpt>
      <trkpt lat="45.49422" lon="4.03701">
        <ele>841.3</ele>
        <time>2009-11-29T08:24:04Z</time>
      </trkpt>
      <trkpt lat="45.49432" lon="4.03713">
        <ele>840.2</ele>
        <time>2009-11-29T08:24:07Z</time>
      </trkpt>
      <trkpt lat="45.49442" lon="4.03722">
        <ele>838.8</ele>
        <time>2009-11-29T08:24:12Z</time>
      </trkpt>
      <trkpt lat="45.49455" lon="4.03736">
        <ele>838.1</ele>
        <time>2009-11-29T08:24:18Z</time>
      </trkpt>
      <trkpt lat="45.49467" lon="4.03747">
        <ele>836.7</ele>
        <time>2009-11-29T08:24:23Z</time>
      </trkpt>
      <trkpt lat="45.49479" lon="4.03757">
        <ele>835.3</ele>
        <time>2009-11-29T08:24:26Z</time>
      </trkpt>
      <trkpt lat="45.49488" lon="4.0377">
        <ele>834.3</ele>
        <time>2009-11-29T08:24:30Z</time>
      </trkpt>
      <trkpt lat="45.49497" lon="4.03782">
        <ele>833.8</ele>
        <time>2009-11-29T08:24:33Z</time>
      </trkpt>
      <trkpt lat="45.49504" lon="4.03795">
        <ele>832.5</ele>
        <time>2009-11-29T08:24:37Z</time>
      </trkpt>
      <trkpt lat="45.49512" lon="4.03808">
        <ele>828.4</ele>
        <time>2009-11-29T08:24:41Z</time>
      </trkpt>
      <trkpt lat="45.49523" lon="4.03823">
        <ele>825.7</ele>
        <time>2009-11-29T08:24:45Z</time>
      </trkpt>
      <trkpt lat="45.49533" lon="4.03836">
        <ele>823.8</ele>
        <time>2009-11-29T08:24:49Z</time>
      </trkpt>
      <trkpt lat="45.49544" lon="4.03848">
        <ele>823.8</ele>
        <time>2009-11-29T08:24:52Z</time>
      </trkpt>
      <trkpt lat="45.49557" lon="4.03858">
        <ele>824.2</ele>
        <time>2009-11-29T08:24:56Z</time>
      </trkpt>
      <trkpt lat="45.49571" lon="4.03859">
        <ele>822.7</ele>
        <time>2009-11-29T08:24:59Z</time>
      </trkpt>
      <trkpt lat="45.49586" lon="4.03869">
        <ele>819.7</ele>
        <time>2009-11-29T08:25:03Z</time>
      </trkpt>
      <trkpt lat="45.49599" lon="4.03882">
        <ele>816.8</ele>
        <time>2009-11-29T08:25:07Z</time>
      </trkpt>
      <trkpt lat="45.49615" lon="4.03889">
        <ele>815.8</ele>
        <time>2009-11-29T08:25:10Z</time>
      </trkpt>
      <trkpt lat="45.49623" lon="4.03906">
        <ele>815.3</ele>
        <time>2009-11-29T08:25:13Z</time>
      </trkpt>
      <trkpt lat="45.49628" lon="4.03923">
        <ele>814.5</ele>
        <time>2009-11-29T08:25:17Z</time>
      </trkpt>
      <trkpt lat="45.49646" lon="4.03926">
        <ele>814.3</ele>
        <time>2009-11-29T08:25:20Z</time>
      </trkpt>
      <trkpt lat="45.49653" lon="4.03942">
        <ele>809</ele>
        <time>2009-11-29T08:25:24Z</time>
      </trkpt>
      <trkpt lat="45.49657" lon="4.03962">
        <ele>807.8</ele>
        <time>2009-11-29T08:25:27Z</time>
      </trkpt>
      <trkpt lat="45.49657" lon="4.03981">
        <ele>806.5</ele>
        <time>2009-11-29T08:25:30Z</time>
      </trkpt>
      <trkpt lat="45.49656" lon="4.03998">
        <ele>804.5</ele>
        <time>2009-11-29T08:25:33Z</time>
      </trkpt>
      <trkpt lat="45.49655" lon="4.04015">
        <ele>802.5</ele>
        <time>2009-11-29T08:25:36Z</time>
      </trkpt>
      <trkpt lat="45.4966" lon="4.04031">
        <ele>802.5</ele>
        <time>2009-11-29T08:25:39Z</time>
      </trkpt>
      <trkpt lat="45.49668" lon="4.04048">
        <ele>803</ele>
        <time>2009-11-29T08:25:42Z</time>
      </trkpt>
      <trkpt lat="45.49674" lon="4.04067">
        <ele>802.8</ele>
        <time>2009-11-29T08:25:45Z</time>
      </trkpt>
      <trkpt lat="45.49682" lon="4.04087">
        <ele>803</ele>
        <time>2009-11-29T08:25:48Z</time>
      </trkpt>
      <trkpt lat="45.49689" lon="4.04105">
        <ele>801.8</ele>
        <time>2009-11-29T08:25:51Z</time>
      </trkpt>
      <trkpt lat="45.49698" lon="4.04122">
        <ele>800.8</ele>
        <time>2009-11-29T08:25:54Z</time>
      </trkpt>
      <trkpt lat="45.49708" lon="4.04139">
        <ele>799.8</ele>
        <time>2009-11-29T08:25:57Z</time>
      </trkpt>
      <trkpt lat="45.49721" lon="4.04155">
        <ele>799</ele>
        <time>2009-11-29T08:26:00Z</time>
      </trkpt>
      <trkpt lat="45.49737" lon="4.04169">
        <ele>798.5</ele>
        <time>2009-11-29T08:26:03Z</time>
      </trkpt>
      <trkpt lat="45.49752" lon="4.04179">
        <ele>798.5</ele>
        <time>2009-11-29T08:26:06Z</time>
      </trkpt>
      <trkpt lat="45.49764" lon="4.04187">
        <ele>798.5</ele>
        <time>2009-11-29T08:26:07Z</time>
      </trkpt>
      <trkpt lat="45.49777" lon="4.04196">
        <ele>799</ele>
        <time>2009-11-29T08:26:09Z</time>
      </trkpt>
      <trkpt lat="45.4979" lon="4.04205">
        <ele>799</ele>
        <time>2009-11-29T08:26:11Z</time>
      </trkpt>
      <trkpt lat="45.49803" lon="4.04214">
        <ele>798.5</ele>
        <time>2009-11-29T08:26:14Z</time>
      </trkpt>
      <trkpt lat="45.49816" lon="4.04223">
        <ele>798.5</ele>
        <time>2009-11-29T08:26:16Z</time>
      </trkpt>
      <trkpt lat="45.4983" lon="4.04233">
        <ele>798</ele>
        <time>2009-11-29T08:26:18Z</time>
      </trkpt>
      <trkpt lat="45.49843" lon="4.04242">
        <ele>797</ele>
        <time>2009-11-29T08:26:19Z</time>
      </trkpt>
      <trkpt lat="45.49857" lon="4.04252">
        <ele>797</ele>
        <time>2009-11-29T08:26:21Z</time>
      </trkpt>
      <trkpt lat="45.4987" lon="4.04261">
        <ele>796.5</ele>
        <time>2009-11-29T08:26:23Z</time>
      </trkpt>
      <trkpt lat="45.49882" lon="4.04273">
        <ele>796.5</ele>
        <time>2009-11-29T08:26:25Z</time>
      </trkpt>
      <trkpt lat="45.49895" lon="4.04288">
        <ele>795</ele>
        <time>2009-11-29T08:26:28Z</time>
      </trkpt>
      <trkpt lat="45.49906" lon="4.04305">
        <ele>795</ele>
        <time>2009-11-29T08:26:30Z</time>
      </trkpt>
      <trkpt lat="45.49913" lon="4.04324">
        <ele>795</ele>
        <time>2009-11-29T08:26:32Z</time>
      </trkpt>
      <trkpt lat="45.49922" lon="4.04342">
        <ele>794.5</ele>
        <time>2009-11-29T08:26:33Z</time>
      </trkpt>
      <trkpt lat="45.49929" lon="4.04358">
        <ele>794</ele>
        <time>2009-11-29T08:26:35Z</time>
      </trkpt>
      <trkpt lat="45.49933" lon="4.04374">
        <ele>792</ele>
        <time>2009-11-29T08:26:37Z</time>
      </trkpt>
      <trkpt lat="45.49932" lon="4.04392">
        <ele>791.5</ele>
        <time>2009-11-29T08:26:40Z</time>
      </trkpt>
      <trkpt lat="45.49936" lon="4.04409">
        <ele>791.5</ele>
        <time>2009-11-29T08:26:42Z</time>
      </trkpt>
      <trkpt lat="45.4994" lon="4.04428">
        <ele>790</ele>
        <time>2009-11-29T08:26:44Z</time>
      </trkpt>
      <trkpt lat="45.49943" lon="4.04448">
        <ele>789</ele>
        <time>2009-11-29T08:26:46Z</time>
      </trkpt>
      <trkpt lat="45.49947" lon="4.04468">
        <ele>788.5</ele>
        <time>2009-11-29T08:26:47Z</time>
      </trkpt>
      <trkpt lat="45.4995" lon="4.04487">
        <ele>788</ele>
        <time>2009-11-29T08:26:49Z</time>
      </trkpt>
      <trkpt lat="45.49953" lon="4.04505">
        <ele>788</ele>
        <time>2009-11-29T08:26:51Z</time>
      </trkpt>
      <trkpt lat="45.49957" lon="4.04522">
        <ele>787.9</ele>
        <time>2009-11-29T08:26:55Z</time>
      </trkpt>
      <trkpt lat="45.49973" lon="4.04524">
        <ele>787.8</ele>
        <time>2009-11-29T08:27:00Z</time>
      </trkpt>
      <trkpt lat="45.49976" lon="4.04543">
        <ele>787</ele>
        <time>2009-11-29T08:27:04Z</time>
      </trkpt>
      <trkpt lat="45.49975" lon="4.04563">
        <ele>786.5</ele>
        <time>2009-11-29T08:27:07Z</time>
      </trkpt>
      <trkpt lat="45.49977" lon="4.04582">
        <ele>787</ele>
        <time>2009-11-29T08:27:10Z</time>
      </trkpt>
      <trkpt lat="45.49978" lon="4.04597">
        <ele>786.5</ele>
        <time>2009-11-29T08:27:12Z</time>
      </trkpt>
      <trkpt lat="45.49979" lon="4.04612">
        <ele>786.5</ele>
        <time>2009-11-29T08:27:13Z</time>
      </trkpt>
      <trkpt lat="45.49979" lon="4.04628">
        <ele>785.5</ele>
        <time>2009-11-29T08:27:15Z</time>
      </trkpt>
      <trkpt lat="45.4998" lon="4.04644">
        <ele>785.5</ele>
        <time>2009-11-29T08:27:17Z</time>
      </trkpt>
      <trkpt lat="45.4998" lon="4.0466">
        <ele>785.5</ele>
        <time>2009-11-29T08:27:19Z</time>
      </trkpt>
      <trkpt lat="45.4998" lon="4.04676">
        <ele>785.5</ele>
        <time>2009-11-29T08:27:22Z</time>
      </trkpt>
      <trkpt lat="45.49979" lon="4.04692">
        <ele>785</ele>
        <time>2009-11-29T08:27:24Z</time>
      </trkpt>
      <trkpt lat="45.49978" lon="4.04708">
        <ele>785</ele>
        <time>2009-11-29T08:27:26Z</time>
      </trkpt>
      <trkpt lat="45.49975" lon="4.04725">
        <ele>784</ele>
        <time>2009-11-29T08:27:27Z</time>
      </trkpt>
      <trkpt lat="45.49973" lon="4.04743">
        <ele>783.5</ele>
        <time>2009-11-29T08:27:29Z</time>
      </trkpt>
      <trkpt lat="45.49971" lon="4.04761">
        <ele>783.5</ele>
        <time>2009-11-29T08:27:31Z</time>
      </trkpt>
      <trkpt lat="45.49969" lon="4.0478">
        <ele>781.5</ele>
        <time>2009-11-29T08:27:34Z</time>
      </trkpt>
      <trkpt lat="45.49967" lon="4.04801">
        <ele>780.5</ele>
        <time>2009-11-29T08:27:36Z</time>
      </trkpt>
      <trkpt lat="45.49965" lon="4.04822">
        <ele>779</ele>
        <time>2009-11-29T08:27:38Z</time>
      </trkpt>
      <trkpt lat="45.49965" lon="4.04843">
        <ele>779</ele>
        <time>2009-11-29T08:27:40Z</time>
      </trkpt>
      <trkpt lat="45.49967" lon="4.04865">
        <ele>778.5</ele>
        <time>2009-11-29T08:27:41Z</time>
      </trkpt>
      <trkpt lat="45.49969" lon="4.04889">
        <ele>778</ele>
        <time>2009-11-29T08:27:43Z</time>
      </trkpt>
      <trkpt lat="45.49971" lon="4.04912">
        <ele>777</ele>
        <time>2009-11-29T08:27:45Z</time>
      </trkpt>
      <trkpt lat="45.49972" lon="4.04935">
        <ele>776</ele>
        <time>2009-11-29T08:27:48Z</time>
      </trkpt>
      <trkpt lat="45.49974" lon="4.04959">
        <ele>774.5</ele>
        <time>2009-11-29T08:27:50Z</time>
      </trkpt>
      <trkpt lat="45.49978" lon="4.04982">
        <ele>773.5</ele>
        <time>2009-11-29T08:27:52Z</time>
      </trkpt>
      <trkpt lat="45.49983" lon="4.05006">
        <ele>772</ele>
        <time>2009-11-29T08:27:54Z</time>
      </trkpt>
      <trkpt lat="45.49988" lon="4.05029">
        <ele>771</ele>
        <time>2009-11-29T08:27:55Z</time>
      </trkpt>
      <trkpt lat="45.49995" lon="4.05053">
        <ele>769</ele>
        <time>2009-11-29T08:27:57Z</time>
      </trkpt>
      <trkpt lat="45.50002" lon="4.05076">
        <ele>768</ele>
        <time>2009-11-29T08:27:59Z</time>
      </trkpt>
      <trkpt lat="45.50009" lon="4.05099">
        <ele>767</ele>
        <time>2009-11-29T08:28:02Z</time>
      </trkpt>
      <trkpt lat="45.50015" lon="4.05121">
        <ele>766.5</ele>
        <time>2009-11-29T08:28:04Z</time>
      </trkpt>
      <trkpt lat="45.50019" lon="4.05142">
        <ele>766</ele>
        <time>2009-11-29T08:28:06Z</time>
      </trkpt>
      <trkpt lat="45.50022" lon="4.05163">
        <ele>765.5</ele>
        <time>2009-11-29T08:28:07Z</time>
      </trkpt>
      <trkpt lat="45.50023" lon="4.05184">
        <ele>764.5</ele>
        <time>2009-11-29T08:28:09Z</time>
      </trkpt>
      <trkpt lat="45.50017" lon="4.05202">
        <ele>764</ele>
        <time>2009-11-29T08:28:11Z</time>
      </trkpt>
      <trkpt lat="45.50006" lon="4.05218">
        <ele>764</ele>
        <time>2009-11-29T08:28:14Z</time>
      </trkpt>
      <trkpt lat="45.5" lon="4.05222">
        <ele>764.4</ele>
        <time>2009-11-29T08:28:22Z</time>
      </trkpt>
      <trkpt lat="45.50013" lon="4.05203">
        <ele>764.5</ele>
        <time>2009-11-29T08:28:30Z</time>
      </trkpt>
      <trkpt lat="45.5002" lon="4.05189">
        <ele>764.8</ele>
        <time>2009-11-29T08:28:34Z</time>
      </trkpt>
      <trkpt lat="45.50023" lon="4.05173">
        <ele>765</ele>
        <time>2009-11-29T08:28:37Z</time>
      </trkpt>
      <trkpt lat="45.50022" lon="4.05155">
        <ele>765</ele>
        <time>2009-11-29T08:28:40Z</time>
      </trkpt>
      <trkpt lat="45.50027" lon="4.05139">
        <ele>765.3</ele>
        <time>2009-11-29T08:28:43Z</time>
      </trkpt>
      <trkpt lat="45.5004" lon="4.05131">
        <ele>765.8</ele>
        <time>2009-11-29T08:28:46Z</time>
      </trkpt>
      <trkpt lat="45.50053" lon="4.05124">
        <ele>766.5</ele>
        <time>2009-11-29T08:28:49Z</time>
      </trkpt>
      <trkpt lat="45.50067" lon="4.05117">
        <ele>767</ele>
        <time>2009-11-29T08:28:52Z</time>
      </trkpt>
      <trkpt lat="45.5008" lon="4.0511">
        <ele>767</ele>
        <time>2009-11-29T08:28:55Z</time>
      </trkpt>
      <trkpt lat="45.50093" lon="4.05104">
        <ele>767</ele>
        <time>2009-11-29T08:28:58Z</time>
      </trkpt>
      <trkpt lat="45.50107" lon="4.05097">
        <ele>767</ele>
        <time>2009-11-29T08:29:01Z</time>
      </trkpt>
      <trkpt lat="45.50122" lon="4.05091">
        <ele>767</ele>
        <time>2009-11-29T08:29:05Z</time>
      </trkpt>
      <trkpt lat="45.50136" lon="4.05094">
        <ele>765.8</ele>
        <time>2009-11-29T08:29:08Z</time>
      </trkpt>
      <trkpt lat="45.50145" lon="4.05108">
        <ele>765</ele>
        <time>2009-11-29T08:29:10Z</time>
      </trkpt>
      <trkpt lat="45.50154" lon="4.05119">
        <ele>764</ele>
        <time>2009-11-29T08:29:12Z</time>
      </trkpt>
      <trkpt lat="45.50165" lon="4.0513">
        <ele>764</ele>
        <time>2009-11-29T08:29:15Z</time>
      </trkpt>
      <trkpt lat="45.50176" lon="4.0514">
        <ele>763.5</ele>
        <time>2009-11-29T08:29:17Z</time>
      </trkpt>
      <trkpt lat="45.50189" lon="4.05152">
        <ele>763</ele>
        <time>2009-11-29T08:29:19Z</time>
      </trkpt>
      <trkpt lat="45.502" lon="4.05168">
        <ele>763</ele>
        <time>2009-11-29T08:29:21Z</time>
      </trkpt>
      <trkpt lat="45.5021" lon="4.05184">
        <ele>762.5</ele>
        <time>2009-11-29T08:29:22Z</time>
      </trkpt>
      <trkpt lat="45.5022" lon="4.05198">
        <ele>762</ele>
        <time>2009-11-29T08:29:24Z</time>
      </trkpt>
      <trkpt lat="45.5023" lon="4.05212">
        <ele>761.5</ele>
        <time>2009-11-29T08:29:26Z</time>
      </trkpt>
      <trkpt lat="45.5024" lon="4.05226">
        <ele>761.5</ele>
        <time>2009-11-29T08:29:29Z</time>
      </trkpt>
      <trkpt lat="45.5025" lon="4.0524">
        <ele>760.5</ele>
        <time>2009-11-29T08:29:31Z</time>
      </trkpt>
      <trkpt lat="45.5026" lon="4.05254">
        <ele>759</ele>
        <time>2009-11-29T08:29:33Z</time>
      </trkpt>
      <trkpt lat="45.5027" lon="4.05268">
        <ele>758.5</ele>
        <time>2009-11-29T08:29:35Z</time>
      </trkpt>
      <trkpt lat="45.50281" lon="4.0528">
        <ele>758</ele>
        <time>2009-11-29T08:29:36Z</time>
      </trkpt>
      <trkpt lat="45.50293" lon="4.0529">
        <ele>758</ele>
        <time>2009-11-29T08:29:38Z</time>
      </trkpt>
      <trkpt lat="45.50305" lon="4.05299">
        <ele>758</ele>
        <time>2009-11-29T08:29:40Z</time>
      </trkpt>
      <trkpt lat="45.50318" lon="4.05307">
        <ele>758</ele>
        <time>2009-11-29T08:29:43Z</time>
      </trkpt>
      <trkpt lat="45.50331" lon="4.05315">
        <ele>758</ele>
        <time>2009-11-29T08:29:45Z</time>
      </trkpt>
      <trkpt lat="45.50344" lon="4.05322">
        <ele>758</ele>
        <time>2009-11-29T08:29:47Z</time>
      </trkpt>
      <trkpt lat="45.50356" lon="4.0533">
        <ele>757.5</ele>
        <time>2009-11-29T08:29:48Z</time>
      </trkpt>
      <trkpt lat="45.50369" lon="4.05338">
        <ele>757.5</ele>
        <time>2009-11-29T08:29:50Z</time>
      </trkpt>
      <trkpt lat="45.50383" lon="4.05347">
        <ele>757.3</ele>
        <time>2009-11-29T08:29:53Z</time>
      </trkpt>
      <trkpt lat="45.504" lon="4.0536">
        <ele>756.8</ele>
        <time>2009-11-29T08:29:56Z</time>
      </trkpt>
      <trkpt lat="45.50415" lon="4.05374">
        <ele>756.3</ele>
        <time>2009-11-29T08:29:59Z</time>
      </trkpt>
      <trkpt lat="45.50429" lon="4.0539">
        <ele>756</ele>
        <time>2009-11-29T08:30:02Z</time>
      </trkpt>
      <trkpt lat="45.50442" lon="4.05407">
        <ele>756</ele>
        <time>2009-11-29T08:30:05Z</time>
      </trkpt>
      <trkpt lat="45.50454" lon="4.05422">
        <ele>756</ele>
        <time>2009-11-29T08:30:08Z</time>
      </trkpt>
      <trkpt lat="45.50464" lon="4.05436">
        <ele>755.5</ele>
        <time>2009-11-29T08:30:09Z</time>
      </trkpt>
      <trkpt lat="45.50475" lon="4.05451">
        <ele>755</ele>
        <time>2009-11-29T08:30:11Z</time>
      </trkpt>
      <trkpt lat="45.50484" lon="4.05465">
        <ele>754.5</ele>
        <time>2009-11-29T08:30:13Z</time>
      </trkpt>
      <trkpt lat="45.5049" lon="4.05484">
        <ele>754.5</ele>
        <time>2009-11-29T08:30:16Z</time>
      </trkpt>
      <trkpt lat="45.50495" lon="4.05503">
        <ele>754</ele>
        <time>2009-11-29T08:30:18Z</time>
      </trkpt>
      <trkpt lat="45.505" lon="4.0552">
        <ele>754</ele>
        <time>2009-11-29T08:30:20Z</time>
      </trkpt>
      <trkpt lat="45.50503" lon="4.05537">
        <ele>753.5</ele>
        <time>2009-11-29T08:30:22Z</time>
      </trkpt>
      <trkpt lat="45.50505" lon="4.05553">
        <ele>753.5</ele>
        <time>2009-11-29T08:30:23Z</time>
      </trkpt>
      <trkpt lat="45.50508" lon="4.0557">
        <ele>753</ele>
        <time>2009-11-29T08:30:25Z</time>
      </trkpt>
      <trkpt lat="45.50511" lon="4.05587">
        <ele>751.5</ele>
        <time>2009-11-29T08:30:27Z</time>
      </trkpt>
      <trkpt lat="45.50513" lon="4.05603">
        <ele>750</ele>
        <time>2009-11-29T08:30:30Z</time>
      </trkpt>
      <trkpt lat="45.50515" lon="4.05619">
        <ele>749.5</ele>
        <time>2009-11-29T08:30:32Z</time>
      </trkpt>
      <trkpt lat="45.50514" lon="4.05636">
        <ele>748.5</ele>
        <time>2009-11-29T08:30:34Z</time>
      </trkpt>
      <trkpt lat="45.50512" lon="4.05655">
        <ele>746.5</ele>
        <time>2009-11-29T08:30:36Z</time>
      </trkpt>
      <trkpt lat="45.50512" lon="4.05676">
        <ele>745</ele>
        <time>2009-11-29T08:30:37Z</time>
      </trkpt>
      <trkpt lat="45.50511" lon="4.05696">
        <ele>744</ele>
        <time>2009-11-29T08:30:39Z</time>
      </trkpt>
      <trkpt lat="45.5051" lon="4.05716">
        <ele>743</ele>
        <time>2009-11-29T08:30:41Z</time>
      </trkpt>
      <trkpt lat="45.50509" lon="4.05735">
        <ele>742.5</ele>
        <time>2009-11-29T08:30:44Z</time>
      </trkpt>
      <trkpt lat="45.50509" lon="4.05753">
        <ele>741.5</ele>
        <time>2009-11-29T08:30:46Z</time>
      </trkpt>
      <trkpt lat="45.50511" lon="4.05772">
        <ele>740.5</ele>
        <time>2009-11-29T08:30:48Z</time>
      </trkpt>
      <trkpt lat="45.50515" lon="4.0579">
        <ele>739</ele>
        <time>2009-11-29T08:30:49Z</time>
      </trkpt>
      <trkpt lat="45.5052" lon="4.0581">
        <ele>738.5</ele>
        <time>2009-11-29T08:30:51Z</time>
      </trkpt>
      <trkpt lat="45.50525" lon="4.0583">
        <ele>738</ele>
        <time>2009-11-29T08:30:53Z</time>
      </trkpt>
      <trkpt lat="45.50531" lon="4.0585">
        <ele>737.5</ele>
        <time>2009-11-29T08:30:55Z</time>
      </trkpt>
      <trkpt lat="45.50533" lon="4.05873">
        <ele>737</ele>
        <time>2009-11-29T08:30:58Z</time>
      </trkpt>
      <trkpt lat="45.50531" lon="4.05896">
        <ele>736</ele>
        <time>2009-11-29T08:31:00Z</time>
      </trkpt>
      <trkpt lat="45.50529" lon="4.05918">
        <ele>735.5</ele>
        <time>2009-11-29T08:31:02Z</time>
      </trkpt>
      <trkpt lat="45.50529" lon="4.05938">
        <ele>735</ele>
        <time>2009-11-29T08:31:03Z</time>
      </trkpt>
      <trkpt lat="45.50528" lon="4.05957">
        <ele>735</ele>
        <time>2009-11-29T08:31:05Z</time>
      </trkpt>
      <trkpt lat="45.50527" lon="4.05976">
        <ele>735</ele>
        <time>2009-11-29T08:31:07Z</time>
      </trkpt>
      <trkpt lat="45.50528" lon="4.05993">
        <ele>735</ele>
        <time>2009-11-29T08:31:10Z</time>
      </trkpt>
      <trkpt lat="45.50528" lon="4.06011">
        <ele>735.5</ele>
        <time>2009-11-29T08:31:12Z</time>
      </trkpt>
      <trkpt lat="45.50528" lon="4.06029">
        <ele>735.5</ele>
        <time>2009-11-29T08:31:14Z</time>
      </trkpt>
      <trkpt lat="45.50529" lon="4.06046">
        <ele>735</ele>
        <time>2009-11-29T08:31:16Z</time>
      </trkpt>
      <trkpt lat="45.5053" lon="4.06064">
        <ele>734.5</ele>
        <time>2009-11-29T08:31:17Z</time>
      </trkpt>
      <trkpt lat="45.5053" lon="4.06083">
        <ele>734.5</ele>
        <time>2009-11-29T08:31:19Z</time>
      </trkpt>
      <trkpt lat="45.50529" lon="4.06103">
        <ele>733.5</ele>
        <time>2009-11-29T08:31:21Z</time>
      </trkpt>
      <trkpt lat="45.50527" lon="4.06122">
        <ele>733</ele>
        <time>2009-11-29T08:31:24Z</time>
      </trkpt>
      <trkpt lat="45.50527" lon="4.06141">
        <ele>733</ele>
        <time>2009-11-29T08:31:26Z</time>
      </trkpt>
      <trkpt lat="45.50525" lon="4.06158">
        <ele>733.5</ele>
        <time>2009-11-29T08:31:28Z</time>
      </trkpt>
      <trkpt lat="45.50525" lon="4.06174">
        <ele>734</ele>
        <time>2009-11-29T08:31:29Z</time>
      </trkpt>
      <trkpt lat="45.50525" lon="4.0619">
        <ele>734</ele>
        <time>2009-11-29T08:31:32Z</time>
      </trkpt>
      <trkpt lat="45.50527" lon="4.0621">
        <ele>733.8</ele>
        <time>2009-11-29T08:31:35Z</time>
      </trkpt>
      <trkpt lat="45.50527" lon="4.06224">
        <ele>732.5</ele>
        <time>2009-11-29T08:31:43Z</time>
      </trkpt>
      <trkpt lat="45.50525" lon="4.06199">
        <ele>729.8</ele>
        <time>2009-11-29T08:31:50Z</time>
      </trkpt>
      <trkpt lat="45.50527" lon="4.06223">
        <ele>729.2</ele>
        <time>2009-11-29T08:32:15Z</time>
      </trkpt>
      <trkpt lat="45.50526" lon="4.06239">
        <ele>728.5</ele>
        <time>2009-11-29T08:32:20Z</time>
      </trkpt>
      <trkpt lat="45.50521" lon="4.06255">
        <ele>727.7</ele>
        <time>2009-11-29T08:32:24Z</time>
      </trkpt>
      <trkpt lat="45.50514" lon="4.06269">
        <ele>727.8</ele>
        <time>2009-11-29T08:32:27Z</time>
      </trkpt>
      <trkpt lat="45.50509" lon="4.06284">
        <ele>726</ele>
        <time>2009-11-29T08:32:31Z</time>
      </trkpt>
      <trkpt lat="45.50508" lon="4.06303">
        <ele>723.8</ele>
        <time>2009-11-29T08:32:34Z</time>
      </trkpt>
      <trkpt lat="45.50513" lon="4.06322">
        <ele>722</ele>
        <time>2009-11-29T08:32:36Z</time>
      </trkpt>
      <trkpt lat="45.50517" lon="4.06341">
        <ele>720.5</ele>
        <time>2009-11-29T08:32:39Z</time>
      </trkpt>
      <trkpt lat="45.5052" lon="4.06362">
        <ele>719.5</ele>
        <time>2009-11-29T08:32:41Z</time>
      </trkpt>
      <trkpt lat="45.50523" lon="4.06383">
        <ele>718.5</ele>
        <time>2009-11-29T08:32:43Z</time>
      </trkpt>
      <trkpt lat="45.50526" lon="4.06404">
        <ele>717</ele>
        <time>2009-11-29T08:32:44Z</time>
      </trkpt>
      <trkpt lat="45.5053" lon="4.06424">
        <ele>716</ele>
        <time>2009-11-29T08:32:46Z</time>
      </trkpt>
      <trkpt lat="45.50535" lon="4.06445">
        <ele>715.5</ele>
        <time>2009-11-29T08:32:48Z</time>
      </trkpt>
      <trkpt lat="45.5054" lon="4.06465">
        <ele>714.5</ele>
        <time>2009-11-29T08:32:51Z</time>
      </trkpt>
      <trkpt lat="45.50542" lon="4.06485">
        <ele>713</ele>
        <time>2009-11-29T08:32:53Z</time>
      </trkpt>
      <trkpt lat="45.50542" lon="4.06502">
        <ele>712</ele>
        <time>2009-11-29T08:32:55Z</time>
      </trkpt>
      <trkpt lat="45.50541" lon="4.06519">
        <ele>710.5</ele>
        <time>2009-11-29T08:32:57Z</time>
      </trkpt>
      <trkpt lat="45.50539" lon="4.0654">
        <ele>709</ele>
        <time>2009-11-29T08:32:58Z</time>
      </trkpt>
      <trkpt lat="45.50539" lon="4.06564">
        <ele>708</ele>
        <time>2009-11-29T08:33:00Z</time>
      </trkpt>
      <trkpt lat="45.50539" lon="4.06588">
        <ele>708</ele>
        <time>2009-11-29T08:33:04Z</time>
      </trkpt>
      <trkpt lat="45.5054" lon="4.06612">
        <ele>706.5</ele>
        <time>2009-11-29T08:33:05Z</time>
      </trkpt>
      <trkpt lat="45.5054" lon="4.06636">
        <ele>705.5</ele>
        <time>2009-11-29T08:33:07Z</time>
      </trkpt>
      <trkpt lat="45.5054" lon="4.06659">
        <ele>705</ele>
        <time>2009-11-29T08:33:09Z</time>
      </trkpt>
      <trkpt lat="45.50539" lon="4.06681">
        <ele>704</ele>
        <time>2009-11-29T08:33:11Z</time>
      </trkpt>
      <trkpt lat="45.5054" lon="4.06703">
        <ele>703</ele>
        <time>2009-11-29T08:33:12Z</time>
      </trkpt>
      <trkpt lat="45.50543" lon="4.06722">
        <ele>701.5</ele>
        <time>2009-11-29T08:33:14Z</time>
      </trkpt>
      <trkpt lat="45.50545" lon="4.06744">
        <ele>700</ele>
        <time>2009-11-29T08:33:16Z</time>
      </trkpt>
      <trkpt lat="45.50548" lon="4.06763">
        <ele>699</ele>
        <time>2009-11-29T08:33:19Z</time>
      </trkpt>
      <trkpt lat="45.50551" lon="4.06781">
        <ele>698</ele>
        <time>2009-11-29T08:33:21Z</time>
      </trkpt>
      <trkpt lat="45.50554" lon="4.06799">
        <ele>697</ele>
        <time>2009-11-29T08:33:23Z</time>
      </trkpt>
      <trkpt lat="45.50558" lon="4.0682">
        <ele>695</ele>
        <time>2009-11-29T08:33:24Z</time>
      </trkpt>
      <trkpt lat="45.50561" lon="4.06841">
        <ele>693</ele>
        <time>2009-11-29T08:33:26Z</time>
      </trkpt>
      <trkpt lat="45.50565" lon="4.06863">
        <ele>691.5</ele>
        <time>2009-11-29T08:33:28Z</time>
      </trkpt>
      <trkpt lat="45.5057" lon="4.06883">
        <ele>690</ele>
        <time>2009-11-29T08:33:30Z</time>
      </trkpt>
      <trkpt lat="45.50574" lon="4.06903">
        <ele>689</ele>
        <time>2009-11-29T08:33:33Z</time>
      </trkpt>
      <trkpt lat="45.50577" lon="4.06924">
        <ele>687.5</ele>
        <time>2009-11-29T08:33:35Z</time>
      </trkpt>
      <trkpt lat="45.50581" lon="4.06944">
        <ele>686.5</ele>
        <time>2009-11-29T08:33:37Z</time>
      </trkpt>
      <trkpt lat="45.50584" lon="4.06964">
        <ele>686.5</ele>
        <time>2009-11-29T08:33:38Z</time>
      </trkpt>
      <trkpt lat="45.50589" lon="4.06983">
        <ele>686</ele>
        <time>2009-11-29T08:33:40Z</time>
      </trkpt>
      <trkpt lat="45.50595" lon="4.07003">
        <ele>685</ele>
        <time>2009-11-29T08:33:42Z</time>
      </trkpt>
      <trkpt lat="45.50601" lon="4.0702">
        <ele>684</ele>
        <time>2009-11-29T08:33:45Z</time>
      </trkpt>
      <trkpt lat="45.50609" lon="4.07034">
        <ele>683</ele>
        <time>2009-11-29T08:33:47Z</time>
      </trkpt>
      <trkpt lat="45.50617" lon="4.07048">
        <ele>681.5</ele>
        <time>2009-11-29T08:33:49Z</time>
      </trkpt>
      <trkpt lat="45.50625" lon="4.07064">
        <ele>681.5</ele>
        <time>2009-11-29T08:33:51Z</time>
      </trkpt>
      <trkpt lat="45.50634" lon="4.07081">
        <ele>680</ele>
        <time>2009-11-29T08:33:54Z</time>
      </trkpt>
      <trkpt lat="45.50637" lon="4.07098">
        <ele>678.5</ele>
        <time>2009-11-29T08:33:56Z</time>
      </trkpt>
      <trkpt lat="45.50642" lon="4.07116">
        <ele>677</ele>
        <time>2009-11-29T08:33:59Z</time>
      </trkpt>
      <trkpt lat="45.50652" lon="4.07133">
        <ele>676.5</ele>
        <time>2009-11-29T08:34:02Z</time>
      </trkpt>
      <trkpt lat="45.50662" lon="4.07145">
        <ele>675.8</ele>
        <time>2009-11-29T08:34:05Z</time>
      </trkpt>
      <trkpt lat="45.50672" lon="4.0716">
        <ele>674</ele>
        <time>2009-11-29T08:34:08Z</time>
      </trkpt>
      <trkpt lat="45.50682" lon="4.07176">
        <ele>672</ele>
        <time>2009-11-29T08:34:11Z</time>
      </trkpt>
      <trkpt lat="45.50691" lon="4.07189">
        <ele>670.5</ele>
        <time>2009-11-29T08:34:14Z</time>
      </trkpt>
      <trkpt lat="45.507" lon="4.07203">
        <ele>669.8</ele>
        <time>2009-11-29T08:34:17Z</time>
      </trkpt>
      <trkpt lat="45.5071" lon="4.07216">
        <ele>669</ele>
        <time>2009-11-29T08:34:20Z</time>
      </trkpt>
      <trkpt lat="45.5072" lon="4.07229">
        <ele>667</ele>
        <time>2009-11-29T08:34:22Z</time>
      </trkpt>
      <trkpt lat="45.50728" lon="4.07241">
        <ele>666</ele>
        <time>2009-11-29T08:34:24Z</time>
      </trkpt>
      <trkpt lat="45.50737" lon="4.07256">
        <ele>664.8</ele>
        <time>2009-11-29T08:34:26Z</time>
      </trkpt>
      <trkpt lat="45.50747" lon="4.07272">
        <ele>662.5</ele>
        <time>2009-11-29T08:34:29Z</time>
      </trkpt>
      <trkpt lat="45.50757" lon="4.07288">
        <ele>660.3</ele>
        <time>2009-11-29T08:34:32Z</time>
      </trkpt>
      <trkpt lat="45.50765" lon="4.07304">
        <ele>658.5</ele>
        <time>2009-11-29T08:34:34Z</time>
      </trkpt>
      <trkpt lat="45.50774" lon="4.07315">
        <ele>657.5</ele>
        <time>2009-11-29T08:34:37Z</time>
      </trkpt>
      <trkpt lat="45.50782" lon="4.07329">
        <ele>656.5</ele>
        <time>2009-11-29T08:34:40Z</time>
      </trkpt>
      <trkpt lat="45.5079" lon="4.07343">
        <ele>655</ele>
        <time>2009-11-29T08:34:43Z</time>
      </trkpt>
      <trkpt lat="45.50797" lon="4.07361">
        <ele>652.5</ele>
        <time>2009-11-29T08:34:46Z</time>
      </trkpt>
      <trkpt lat="45.50805" lon="4.0738">
        <ele>649.8</ele>
        <time>2009-11-29T08:34:49Z</time>
      </trkpt>
      <trkpt lat="45.50813" lon="4.07398">
        <ele>646.8</ele>
        <time>2009-11-29T08:34:52Z</time>
      </trkpt>
      <trkpt lat="45.50821" lon="4.07411">
        <ele>638</ele>
        <time>2009-11-29T08:34:56Z</time>
      </trkpt>
      <trkpt lat="45.50841" lon="4.07406">
        <ele>632.3</ele>
        <time>2009-11-29T08:35:00Z</time>
      </trkpt>
      <trkpt lat="45.50855" lon="4.07405">
        <ele>629.8</ele>
        <time>2009-11-29T08:35:03Z</time>
      </trkpt>
      <trkpt lat="45.50873" lon="4.07403">
        <ele>627</ele>
        <time>2009-11-29T08:35:06Z</time>
      </trkpt>
      <trkpt lat="45.50888" lon="4.07394">
        <ele>622</ele>
        <time>2009-11-29T08:35:09Z</time>
      </trkpt>
      <trkpt lat="45.50889" lon="4.07374">
        <ele>615.8</ele>
        <time>2009-11-29T08:35:12Z</time>
      </trkpt>
      <trkpt lat="45.50891" lon="4.07353">
        <ele>614.3</ele>
        <time>2009-11-29T08:35:15Z</time>
      </trkpt>
      <trkpt lat="45.50893" lon="4.07335">
        <ele>612.8</ele>
        <time>2009-11-29T08:35:18Z</time>
      </trkpt>
      <trkpt lat="45.50894" lon="4.07318">
        <ele>610.8</ele>
        <time>2009-11-29T08:35:21Z</time>
      </trkpt>
      <trkpt lat="45.50895" lon="4.073">
        <ele>609.5</ele>
        <time>2009-11-29T08:35:24Z</time>
      </trkpt>
      <trkpt lat="45.50894" lon="4.07281">
        <ele>607.8</ele>
        <time>2009-11-29T08:35:27Z</time>
      </trkpt>
      <trkpt lat="45.50894" lon="4.07264">
        <ele>606.8</ele>
        <time>2009-11-29T08:35:30Z</time>
      </trkpt>
      <trkpt lat="45.50893" lon="4.07249">
        <ele>606</ele>
        <time>2009-11-29T08:35:33Z</time>
      </trkpt>
      <trkpt lat="45.50894" lon="4.07233">
        <ele>605.3</ele>
        <time>2009-11-29T08:35:37Z</time>
      </trkpt>
      <trkpt lat="45.50897" lon="4.07216">
        <ele>604.6</ele>
        <time>2009-11-29T08:35:41Z</time>
      </trkpt>
      <trkpt lat="45.50904" lon="4.07202">
        <ele>605.8</ele>
        <time>2009-11-29T08:35:47Z</time>
      </trkpt>
      <trkpt lat="45.50911" lon="4.07187">
        <ele>605.6</ele>
        <time>2009-11-29T08:35:53Z</time>
      </trkpt>
      <trkpt lat="45.5092" lon="4.07175">
        <ele>604.4</ele>
        <time>2009-11-29T08:36:00Z</time>
      </trkpt>
      <trkpt lat="45.50929" lon="4.07161">
        <ele>604.6</ele>
        <time>2009-11-29T08:36:08Z</time>
      </trkpt>
      <trkpt lat="45.5094" lon="4.07151">
        <ele>606.1</ele>
        <time>2009-11-29T08:36:17Z</time>
      </trkpt>
      <trkpt lat="45.50954" lon="4.07146">
        <ele>606.5</ele>
        <time>2009-11-29T08:36:27Z</time>
      </trkpt>
      <trkpt lat="45.50969" lon="4.07145">
        <ele>607.4</ele>
        <time>2009-11-29T08:36:37Z</time>
      </trkpt>
      <trkpt lat="45.50979" lon="4.07134">
        <ele>608</ele>
        <time>2009-11-29T08:36:45Z</time>
      </trkpt>
      <trkpt lat="45.5098" lon="4.07118">
        <ele>608.7</ele>
        <time>2009-11-29T08:36:52Z</time>
      </trkpt>
      <trkpt lat="45.5098" lon="4.07103">
        <ele>609.5</ele>
        <time>2009-11-29T08:36:59Z</time>
      </trkpt>
      <trkpt lat="45.5098" lon="4.07087">
        <ele>609.3</ele>
        <time>2009-11-29T08:37:04Z</time>
      </trkpt>
      <trkpt lat="45.50981" lon="4.07072">
        <ele>609</ele>
        <time>2009-11-29T08:37:11Z</time>
      </trkpt>
      <trkpt lat="45.50982" lon="4.07056">
        <ele>609.5</ele>
        <time>2009-11-29T08:37:16Z</time>
      </trkpt>
      <trkpt lat="45.50986" lon="4.0704">
        <ele>610.1</ele>
        <time>2009-11-29T08:37:22Z</time>
      </trkpt>
      <trkpt lat="45.50992" lon="4.07026">
        <ele>610.6</ele>
        <time>2009-11-29T08:37:28Z</time>
      </trkpt>
      <trkpt lat="45.50998" lon="4.07011">
        <ele>610.8</ele>
        <time>2009-11-29T08:37:34Z</time>
      </trkpt>
      <trkpt lat="45.51006" lon="4.06996">
        <ele>611.6</ele>
        <time>2009-11-29T08:37:39Z</time>
      </trkpt>
      <trkpt lat="45.51015" lon="4.06983">
        <ele>612.7</ele>
        <time>2009-11-29T08:37:46Z</time>
      </trkpt>
      <trkpt lat="45.51025" lon="4.06972">
        <ele>613.5</ele>
        <time>2009-11-29T08:37:53Z</time>
      </trkpt>
      <trkpt lat="45.51036" lon="4.06961">
        <ele>614.5</ele>
        <time>2009-11-29T08:37:59Z</time>
      </trkpt>
      <trkpt lat="45.5105" lon="4.06954">
        <ele>616.2</ele>
        <time>2009-11-29T08:38:07Z</time>
      </trkpt>
      <trkpt lat="45.51066" lon="4.06956">
        <ele>617.8</ele>
        <time>2009-11-29T08:38:14Z</time>
      </trkpt>
      <trkpt lat="45.51079" lon="4.06963">
        <ele>619.1</ele>
        <time>2009-11-29T08:38:21Z</time>
      </trkpt>
      <trkpt lat="45.51091" lon="4.06974">
        <ele>619.9</ele>
        <time>2009-11-29T08:38:28Z</time>
      </trkpt>
      <trkpt lat="45.51098" lon="4.06988">
        <ele>620.5</ele>
        <time>2009-11-29T08:38:33Z</time>
      </trkpt>
      <trkpt lat="45.51102" lon="4.07005">
        <ele>619.9</ele>
        <time>2009-11-29T08:38:38Z</time>
      </trkpt>
      <trkpt lat="45.51106" lon="4.07023">
        <ele>620</ele>
        <time>2009-11-29T08:38:43Z</time>
      </trkpt>
      <trkpt lat="45.5111" lon="4.07042">
        <ele>620.2</ele>
        <time>2009-11-29T08:38:47Z</time>
      </trkpt>
      <trkpt lat="45.51113" lon="4.0706">
        <ele>621</ele>
        <time>2009-11-29T08:38:50Z</time>
      </trkpt>
      <trkpt lat="45.51118" lon="4.07076">
        <ele>621.2</ele>
        <time>2009-11-29T08:38:54Z</time>
      </trkpt>
      <trkpt lat="45.5112" lon="4.07093">
        <ele>622.2</ele>
        <time>2009-11-29T08:38:59Z</time>
      </trkpt>
      <trkpt lat="45.5112" lon="4.0711">
        <ele>622.5</ele>
        <time>2009-11-29T08:39:02Z</time>
      </trkpt>
      <trkpt lat="45.51119" lon="4.07127">
        <ele>622.5</ele>
        <time>2009-11-29T08:39:06Z</time>
      </trkpt>
      <trkpt lat="45.51118" lon="4.07145">
        <ele>623.2</ele>
        <time>2009-11-29T08:39:09Z</time>
      </trkpt>
      <trkpt lat="45.51117" lon="4.07163">
        <ele>624.3</ele>
        <time>2009-11-29T08:39:13Z</time>
      </trkpt>
      <trkpt lat="45.51117" lon="4.07179">
        <ele>625.5</ele>
        <time>2009-11-29T08:39:18Z</time>
      </trkpt>
      <trkpt lat="45.51118" lon="4.07195">
        <ele>626.5</ele>
        <time>2009-11-29T08:39:22Z</time>
      </trkpt>
      <trkpt lat="45.51121" lon="4.07212">
        <ele>628.1</ele>
        <time>2009-11-29T08:39:26Z</time>
      </trkpt>
      <trkpt lat="45.51123" lon="4.07229">
        <ele>628.8</ele>
        <time>2009-11-29T08:39:35Z</time>
      </trkpt>
      <trkpt lat="45.51126" lon="4.07244">
        <ele>629.5</ele>
        <time>2009-11-29T08:39:45Z</time>
      </trkpt>
      <trkpt lat="45.51127" lon="4.07259">
        <ele>629.5</ele>
        <time>2009-11-29T08:39:50Z</time>
      </trkpt>
      <trkpt lat="45.51129" lon="4.07275">
        <ele>631.8</ele>
        <time>2009-11-29T08:39:55Z</time>
      </trkpt>
      <trkpt lat="45.51132" lon="4.0729">
        <ele>632.5</ele>
        <time>2009-11-29T08:40:00Z</time>
      </trkpt>
      <trkpt lat="45.51136" lon="4.07307">
        <ele>632.9</ele>
        <time>2009-11-29T08:40:04Z</time>
      </trkpt>
      <trkpt lat="45.51142" lon="4.07321">
        <ele>633.2</ele>
        <time>2009-11-29T08:40:09Z</time>
      </trkpt>
      <trkpt lat="45.51148" lon="4.07335">
        <ele>634</ele>
        <time>2009-11-29T08:40:12Z</time>
      </trkpt>
      <trkpt lat="45.51153" lon="4.07348">
        <ele>634.5</ele>
        <time>2009-11-29T08:40:17Z</time>
      </trkpt>
      <trkpt lat="45.51162" lon="4.07362">
        <ele>635.8</ele>
        <time>2009-11-29T08:40:21Z</time>
      </trkpt>
      <trkpt lat="45.51172" lon="4.07372">
        <ele>636.6</ele>
        <time>2009-11-29T08:40:26Z</time>
      </trkpt>
      <trkpt lat="45.51181" lon="4.07384">
        <ele>635.2</ele>
        <time>2009-11-29T08:40:31Z</time>
      </trkpt>
      <trkpt lat="45.51186" lon="4.07399">
        <ele>634.7</ele>
        <time>2009-11-29T08:40:35Z</time>
      </trkpt>
      <trkpt lat="45.51189" lon="4.07414">
        <ele>633.9</ele>
        <time>2009-11-29T08:40:39Z</time>
      </trkpt>
      <trkpt lat="45.51188" lon="4.07432">
        <ele>633.3</ele>
        <time>2009-11-29T08:40:44Z</time>
      </trkpt>
      <trkpt lat="45.51189" lon="4.07448">
        <ele>634</ele>
        <time>2009-11-29T08:40:49Z</time>
      </trkpt>
      <trkpt lat="45.51189" lon="4.07464">
        <ele>634</ele>
        <time>2009-11-29T08:40:52Z</time>
      </trkpt>
      <trkpt lat="45.5119" lon="4.07481">
        <ele>634.5</ele>
        <time>2009-11-29T08:40:57Z</time>
      </trkpt>
      <trkpt lat="45.51189" lon="4.07498">
        <ele>635.2</ele>
        <time>2009-11-29T08:41:01Z</time>
      </trkpt>
      <trkpt lat="45.51186" lon="4.07515">
        <ele>636</ele>
        <time>2009-11-29T08:41:04Z</time>
      </trkpt>
      <trkpt lat="45.51181" lon="4.07529">
        <ele>636.5</ele>
        <time>2009-11-29T08:41:08Z</time>
      </trkpt>
      <trkpt lat="45.51177" lon="4.07545">
        <ele>637.7</ele>
        <time>2009-11-29T08:41:13Z</time>
      </trkpt>
      <trkpt lat="45.51175" lon="4.0756">
        <ele>639.3</ele>
        <time>2009-11-29T08:41:17Z</time>
      </trkpt>
      <trkpt lat="45.51174" lon="4.07576">
        <ele>639.7</ele>
        <time>2009-11-29T08:41:20Z</time>
      </trkpt>
      <trkpt lat="45.51175" lon="4.07591">
        <ele>640</ele>
        <time>2009-11-29T08:41:25Z</time>
      </trkpt>
      <trkpt lat="45.51177" lon="4.07606">
        <ele>641.3</ele>
        <time>2009-11-29T08:41:29Z</time>
      </trkpt>
      <trkpt lat="45.51179" lon="4.07622">
        <ele>642.2</ele>
        <time>2009-11-29T08:41:32Z</time>
      </trkpt>
      <trkpt lat="45.51181" lon="4.07637">
        <ele>643.3</ele>
        <time>2009-11-29T08:41:36Z</time>
      </trkpt>
      <trkpt lat="45.51183" lon="4.07653">
        <ele>644.6</ele>
        <time>2009-11-29T08:41:41Z</time>
      </trkpt>
      <trkpt lat="45.51186" lon="4.0767">
        <ele>645.7</ele>
        <time>2009-11-29T08:41:46Z</time>
      </trkpt>
      <trkpt lat="45.51189" lon="4.07686">
        <ele>647.7</ele>
        <time>2009-11-29T08:41:50Z</time>
      </trkpt>
      <trkpt lat="45.51192" lon="4.07701">
        <ele>649.2</ele>
        <time>2009-11-29T08:41:53Z</time>
      </trkpt>
      <trkpt lat="45.51196" lon="4.07717">
        <ele>650.3</ele>
        <time>2009-11-29T08:41:58Z</time>
      </trkpt>
      <trkpt lat="45.512" lon="4.07733">
        <ele>651.4</ele>
        <time>2009-11-29T08:42:03Z</time>
      </trkpt>
      <trkpt lat="45.51206" lon="4.07749">
        <ele>652.4</ele>
        <time>2009-11-29T08:42:08Z</time>
      </trkpt>
      <trkpt lat="45.51213" lon="4.07764">
        <ele>653.2</ele>
        <time>2009-11-29T08:42:12Z</time>
      </trkpt>
      <trkpt lat="45.5122" lon="4.07778">
        <ele>653.7</ele>
        <time>2009-11-29T08:42:16Z</time>
      </trkpt>
      <trkpt lat="45.51227" lon="4.07792">
        <ele>654.4</ele>
        <time>2009-11-29T08:42:21Z</time>
      </trkpt>
      <trkpt lat="45.51237" lon="4.07807">
        <ele>655.4</ele>
        <time>2009-11-29T08:42:26Z</time>
      </trkpt>
      <trkpt lat="45.51247" lon="4.07821">
        <ele>655.5</ele>
        <time>2009-11-29T08:42:31Z</time>
      </trkpt>
      <trkpt lat="45.51257" lon="4.07835">
        <ele>655.9</ele>
        <time>2009-11-29T08:42:36Z</time>
      </trkpt>
      <trkpt lat="45.51265" lon="4.07848">
        <ele>656.5</ele>
        <time>2009-11-29T08:42:40Z</time>
      </trkpt>
      <trkpt lat="45.51273" lon="4.07862">
        <ele>656.9</ele>
        <time>2009-11-29T08:42:45Z</time>
      </trkpt>
      <trkpt lat="45.51281" lon="4.07877">
        <ele>657.7</ele>
        <time>2009-11-29T08:42:49Z</time>
      </trkpt>
      <trkpt lat="45.51288" lon="4.07891">
        <ele>658.7</ele>
        <time>2009-11-29T08:42:54Z</time>
      </trkpt>
      <trkpt lat="45.51295" lon="4.07904">
        <ele>660.3</ele>
        <time>2009-11-29T08:42:58Z</time>
      </trkpt>
      <trkpt lat="45.51303" lon="4.07918">
        <ele>660.8</ele>
        <time>2009-11-29T08:43:01Z</time>
      </trkpt>
      <trkpt lat="45.5131" lon="4.07932">
        <ele>662</ele>
        <time>2009-11-29T08:43:06Z</time>
      </trkpt>
      <trkpt lat="45.51319" lon="4.07947">
        <ele>663.4</ele>
        <time>2009-11-29T08:43:11Z</time>
      </trkpt>
      <trkpt lat="45.51327" lon="4.07963">
        <ele>664.5</ele>
        <time>2009-11-29T08:43:16Z</time>
      </trkpt>
      <trkpt lat="45.51335" lon="4.07977">
        <ele>665</ele>
        <time>2009-11-29T08:43:20Z</time>
      </trkpt>
      <trkpt lat="45.51341" lon="4.07993">
        <ele>665.8</ele>
        <time>2009-11-29T08:43:24Z</time>
      </trkpt>
      <trkpt lat="45.51345" lon="4.08012">
        <ele>666.2</ele>
        <time>2009-11-29T08:43:29Z</time>
      </trkpt>
      <trkpt lat="45.51347" lon="4.08031">
        <ele>666.5</ele>
        <time>2009-11-29T08:43:32Z</time>
      </trkpt>
      <trkpt lat="45.5135" lon="4.08048">
        <ele>666.5</ele>
        <time>2009-11-29T08:43:36Z</time>
      </trkpt>
      <trkpt lat="45.51353" lon="4.08062">
        <ele>666</ele>
        <time>2009-11-29T08:43:39Z</time>
      </trkpt>
      <trkpt lat="45.51358" lon="4.08077">
        <ele>666</ele>
        <time>2009-11-29T08:43:42Z</time>
      </trkpt>
      <trkpt lat="45.51363" lon="4.08092">
        <ele>666</ele>
        <time>2009-11-29T08:43:45Z</time>
      </trkpt>
      <trkpt lat="45.51369" lon="4.08106">
        <ele>666</ele>
        <time>2009-11-29T08:43:48Z</time>
      </trkpt>
      <trkpt lat="45.51376" lon="4.08122">
        <ele>665</ele>
        <time>2009-11-29T08:43:51Z</time>
      </trkpt>
      <trkpt lat="45.51385" lon="4.08141">
        <ele>664.3</ele>
        <time>2009-11-29T08:43:54Z</time>
      </trkpt>
      <trkpt lat="45.51396" lon="4.08158">
        <ele>663.5</ele>
        <time>2009-11-29T08:43:57Z</time>
      </trkpt>
      <trkpt lat="45.51407" lon="4.08172">
        <ele>662.5</ele>
        <time>2009-11-29T08:43:59Z</time>
      </trkpt>
      <trkpt lat="45.51419" lon="4.08192">
        <ele>660.5</ele>
        <time>2009-11-29T08:44:00Z</time>
      </trkpt>
      <trkpt lat="45.5143" lon="4.08216">
        <ele>660</ele>
        <time>2009-11-29T08:44:02Z</time>
      </trkpt>
      <trkpt lat="45.51441" lon="4.08241">
        <ele>659</ele>
        <time>2009-11-29T08:44:04Z</time>
      </trkpt>
      <trkpt lat="45.51452" lon="4.08264">
        <ele>658</ele>
        <time>2009-11-29T08:44:07Z</time>
      </trkpt>
      <trkpt lat="45.51464" lon="4.08287">
        <ele>657</ele>
        <time>2009-11-29T08:44:09Z</time>
      </trkpt>
      <trkpt lat="45.51475" lon="4.0831">
        <ele>656</ele>
        <time>2009-11-29T08:44:11Z</time>
      </trkpt>
      <trkpt lat="45.51486" lon="4.08332">
        <ele>655</ele>
        <time>2009-11-29T08:44:12Z</time>
      </trkpt>
      <trkpt lat="45.51498" lon="4.08352">
        <ele>655</ele>
        <time>2009-11-29T08:44:14Z</time>
      </trkpt>
      <trkpt lat="45.51508" lon="4.08371">
        <ele>654.5</ele>
        <time>2009-11-29T08:44:16Z</time>
      </trkpt>
      <trkpt lat="45.51519" lon="4.08388">
        <ele>654.5</ele>
        <time>2009-11-29T08:44:18Z</time>
      </trkpt>
      <trkpt lat="45.51529" lon="4.08404">
        <ele>653.5</ele>
        <time>2009-11-29T08:44:21Z</time>
      </trkpt>
      <trkpt lat="45.51541" lon="4.08419">
        <ele>653</ele>
        <time>2009-11-29T08:44:23Z</time>
      </trkpt>
      <trkpt lat="45.51552" lon="4.08434">
        <ele>652.5</ele>
        <time>2009-11-29T08:44:25Z</time>
      </trkpt>
      <trkpt lat="45.51563" lon="4.08447">
        <ele>651.5</ele>
        <time>2009-11-29T08:44:26Z</time>
      </trkpt>
      <trkpt lat="45.51575" lon="4.08458">
        <ele>651</ele>
        <time>2009-11-29T08:44:28Z</time>
      </trkpt>
      <trkpt lat="45.51586" lon="4.08469">
        <ele>650</ele>
        <time>2009-11-29T08:44:30Z</time>
      </trkpt>
      <trkpt lat="45.516" lon="4.0848">
        <ele>649.8</ele>
        <time>2009-11-29T08:44:33Z</time>
      </trkpt>
      <trkpt lat="45.51611" lon="4.08494">
        <ele>649.5</ele>
        <time>2009-11-29T08:44:35Z</time>
      </trkpt>
      <trkpt lat="45.51611" lon="4.0851">
        <ele>649.5</ele>
        <time>2009-11-29T08:44:37Z</time>
      </trkpt>
      <trkpt lat="45.51606" lon="4.08525">
        <ele>649</ele>
        <time>2009-11-29T08:44:40Z</time>
      </trkpt>
      <trkpt lat="45.516" lon="4.08541">
        <ele>648.5</ele>
        <time>2009-11-29T08:44:42Z</time>
      </trkpt>
      <trkpt lat="45.51595" lon="4.08556">
        <ele>648</ele>
        <time>2009-11-29T08:44:44Z</time>
      </trkpt>
      <trkpt lat="45.5159" lon="4.08571">
        <ele>648.5</ele>
        <time>2009-11-29T08:44:46Z</time>
      </trkpt>
      <trkpt lat="45.51585" lon="4.08586">
        <ele>648</ele>
        <time>2009-11-29T08:44:47Z</time>
      </trkpt>
      <trkpt lat="45.51581" lon="4.086">
        <ele>647.5</ele>
        <time>2009-11-29T08:44:49Z</time>
      </trkpt>
      <trkpt lat="45.51577" lon="4.08615">
        <ele>648</ele>
        <time>2009-11-29T08:44:51Z</time>
      </trkpt>
      <trkpt lat="45.51574" lon="4.0863">
        <ele>647.5</ele>
        <time>2009-11-29T08:44:54Z</time>
      </trkpt>
      <trkpt lat="45.5157" lon="4.08644">
        <ele>647.5</ele>
        <time>2009-11-29T08:44:56Z</time>
      </trkpt>
      <trkpt lat="45.51565" lon="4.08662">
        <ele>647.5</ele>
        <time>2009-11-29T08:44:58Z</time>
      </trkpt>
      <trkpt lat="45.5156" lon="4.08682">
        <ele>647</ele>
        <time>2009-11-29T08:45:01Z</time>
      </trkpt>
      <trkpt lat="45.51555" lon="4.08702">
        <ele>646.8</ele>
        <time>2009-11-29T08:45:04Z</time>
      </trkpt>
      <trkpt lat="45.51551" lon="4.08723">
        <ele>647</ele>
        <time>2009-11-29T08:45:07Z</time>
      </trkpt>
      <trkpt lat="45.51547" lon="4.08744">
        <ele>646.8</ele>
        <time>2009-11-29T08:45:10Z</time>
      </trkpt>
      <trkpt lat="45.51543" lon="4.08764">
        <ele>646.5</ele>
        <time>2009-11-29T08:45:13Z</time>
      </trkpt>
      <trkpt lat="45.51539" lon="4.08784">
        <ele>646.3</ele>
        <time>2009-11-29T08:45:16Z</time>
      </trkpt>
      <trkpt lat="45.51536" lon="4.08805">
        <ele>646</ele>
        <time>2009-11-29T08:45:19Z</time>
      </trkpt>
      <trkpt lat="45.51534" lon="4.08823">
        <ele>646</ele>
        <time>2009-11-29T08:45:22Z</time>
      </trkpt>
      <trkpt lat="45.51531" lon="4.08838">
        <ele>645.5</ele>
        <time>2009-11-29T08:45:24Z</time>
      </trkpt>
      <trkpt lat="45.51529" lon="4.08853">
        <ele>645</ele>
        <time>2009-11-29T08:45:26Z</time>
      </trkpt>
      <trkpt lat="45.51526" lon="4.08867">
        <ele>645</ele>
        <time>2009-11-29T08:45:27Z</time>
      </trkpt>
      <trkpt lat="45.51523" lon="4.08883">
        <ele>644.5</ele>
        <time>2009-11-29T08:45:29Z</time>
      </trkpt>
      <trkpt lat="45.51522" lon="4.08898">
        <ele>644.5</ele>
        <time>2009-11-29T08:45:31Z</time>
      </trkpt>
      <trkpt lat="45.51519" lon="4.08913">
        <ele>644</ele>
        <time>2009-11-29T08:45:34Z</time>
      </trkpt>
      <trkpt lat="45.51516" lon="4.08927">
        <ele>643.5</ele>
        <time>2009-11-29T08:45:36Z</time>
      </trkpt>
      <trkpt lat="45.51512" lon="4.08941">
        <ele>643</ele>
        <time>2009-11-29T08:45:38Z</time>
      </trkpt>
      <trkpt lat="45.51508" lon="4.08955">
        <ele>642.5</ele>
        <time>2009-11-29T08:45:40Z</time>
      </trkpt>
      <trkpt lat="45.51503" lon="4.08969">
        <ele>642</ele>
        <time>2009-11-29T08:45:41Z</time>
      </trkpt>
      <trkpt lat="45.51497" lon="4.08983">
        <ele>641.5</ele>
        <time>2009-11-29T08:45:43Z</time>
      </trkpt>
      <trkpt lat="45.51489" lon="4.08998">
        <ele>641</ele>
        <time>2009-11-29T08:45:46Z</time>
      </trkpt>
      <trkpt lat="45.51479" lon="4.09013">
        <ele>641</ele>
        <time>2009-11-29T08:45:49Z</time>
      </trkpt>
      <trkpt lat="45.51467" lon="4.09028">
        <ele>641</ele>
        <time>2009-11-29T08:45:52Z</time>
      </trkpt>
      <trkpt lat="45.51455" lon="4.09044">
        <ele>641</ele>
        <time>2009-11-29T08:45:55Z</time>
      </trkpt>
      <trkpt lat="45.51444" lon="4.0906">
        <ele>641</ele>
        <time>2009-11-29T08:45:57Z</time>
      </trkpt>
      <trkpt lat="45.51437" lon="4.09075">
        <ele>640.5</ele>
        <time>2009-11-29T08:45:59Z</time>
      </trkpt>
      <trkpt lat="45.51431" lon="4.09091">
        <ele>639.5</ele>
        <time>2009-11-29T08:46:02Z</time>
      </trkpt>
      <trkpt lat="45.51426" lon="4.09109">
        <ele>639.5</ele>
        <time>2009-11-29T08:46:04Z</time>
      </trkpt>
      <trkpt lat="45.51422" lon="4.09129">
        <ele>639</ele>
        <time>2009-11-29T08:46:06Z</time>
      </trkpt>
      <trkpt lat="45.51418" lon="4.09148">
        <ele>638.5</ele>
        <time>2009-11-29T08:46:07Z</time>
      </trkpt>
      <trkpt lat="45.51414" lon="4.09168">
        <ele>638</ele>
        <time>2009-11-29T08:46:09Z</time>
      </trkpt>
      <trkpt lat="45.5141" lon="4.09187">
        <ele>637.5</ele>
        <time>2009-11-29T08:46:11Z</time>
      </trkpt>
      <trkpt lat="45.51405" lon="4.09207">
        <ele>637.5</ele>
        <time>2009-11-29T08:46:13Z</time>
      </trkpt>
      <trkpt lat="45.51401" lon="4.09226">
        <ele>636.5</ele>
        <time>2009-11-29T08:46:16Z</time>
      </trkpt>
      <trkpt lat="45.51397" lon="4.09245">
        <ele>636.5</ele>
        <time>2009-11-29T08:46:18Z</time>
      </trkpt>
      <trkpt lat="45.51393" lon="4.09263">
        <ele>635.5</ele>
        <time>2009-11-29T08:46:20Z</time>
      </trkpt>
      <trkpt lat="45.51389" lon="4.09281">
        <ele>635.5</ele>
        <time>2009-11-29T08:46:21Z</time>
      </trkpt>
      <trkpt lat="45.51386" lon="4.09298">
        <ele>635.5</ele>
        <time>2009-11-29T08:46:23Z</time>
      </trkpt>
      <trkpt lat="45.51382" lon="4.09316">
        <ele>635.5</ele>
        <time>2009-11-29T08:46:25Z</time>
      </trkpt>
      <trkpt lat="45.51377" lon="4.09334">
        <ele>635</ele>
        <time>2009-11-29T08:46:28Z</time>
      </trkpt>
      <trkpt lat="45.51372" lon="4.09353">
        <ele>635</ele>
        <time>2009-11-29T08:46:30Z</time>
      </trkpt>
      <trkpt lat="45.51369" lon="4.09371">
        <ele>634.5</ele>
        <time>2009-11-29T08:46:32Z</time>
      </trkpt>
      <trkpt lat="45.51367" lon="4.09388">
        <ele>634.5</ele>
        <time>2009-11-29T08:46:34Z</time>
      </trkpt>
      <trkpt lat="45.51364" lon="4.09405">
        <ele>635.5</ele>
        <time>2009-11-29T08:46:35Z</time>
      </trkpt>
      <trkpt lat="45.51362" lon="4.09421">
        <ele>635.5</ele>
        <time>2009-11-29T08:46:37Z</time>
      </trkpt>
      <trkpt lat="45.5136" lon="4.09437">
        <ele>635.5</ele>
        <time>2009-11-29T08:46:39Z</time>
      </trkpt>
      <trkpt lat="45.51358" lon="4.09452">
        <ele>636</ele>
        <time>2009-11-29T08:46:42Z</time>
      </trkpt>
      <trkpt lat="45.51356" lon="4.09468">
        <ele>636</ele>
        <time>2009-11-29T08:46:44Z</time>
      </trkpt>
      <trkpt lat="45.51354" lon="4.09482">
        <ele>636.5</ele>
        <time>2009-11-29T08:46:46Z</time>
      </trkpt>
      <trkpt lat="45.51351" lon="4.09497">
        <ele>636</ele>
        <time>2009-11-29T08:46:48Z</time>
      </trkpt>
      <trkpt lat="45.51348" lon="4.09512">
        <ele>636</ele>
        <time>2009-11-29T08:46:49Z</time>
      </trkpt>
      <trkpt lat="45.51346" lon="4.09526">
        <ele>636</ele>
        <time>2009-11-29T08:46:51Z</time>
      </trkpt>
      <trkpt lat="45.51343" lon="4.0954">
        <ele>635.5</ele>
        <time>2009-11-29T08:46:53Z</time>
      </trkpt>
      <trkpt lat="45.51339" lon="4.09555">
        <ele>634.5</ele>
        <time>2009-11-29T08:46:56Z</time>
      </trkpt>
      <trkpt lat="45.51335" lon="4.09572">
        <ele>634</ele>
        <time>2009-11-29T08:46:58Z</time>
      </trkpt>
      <trkpt lat="45.51326" lon="4.09588">
        <ele>634</ele>
        <time>2009-11-29T08:47:00Z</time>
      </trkpt>
      <trkpt lat="45.51317" lon="4.09603">
        <ele>633</ele>
        <time>2009-11-29T08:47:01Z</time>
      </trkpt>
      <trkpt lat="45.51306" lon="4.09615">
        <ele>633</ele>
        <time>2009-11-29T08:47:03Z</time>
      </trkpt>
      <trkpt lat="45.51295" lon="4.09627">
        <ele>633</ele>
        <time>2009-11-29T08:47:05Z</time>
      </trkpt>
      <trkpt lat="45.51283" lon="4.0964">
        <ele>633</ele>
        <time>2009-11-29T08:47:08Z</time>
      </trkpt>
      <trkpt lat="45.51268" lon="4.0966">
        <ele>633</ele>
        <time>2009-11-29T08:47:12Z</time>
      </trkpt>
      <trkpt lat="45.51253" lon="4.09667">
        <ele>632.8</ele>
        <time>2009-11-29T08:47:15Z</time>
      </trkpt>
      <trkpt lat="45.51246" lon="4.09651">
        <ele>633</ele>
        <time>2009-11-29T08:47:19Z</time>
      </trkpt>
      <trkpt lat="45.51245" lon="4.09636">
        <ele>633.3</ele>
        <time>2009-11-29T08:47:22Z</time>
      </trkpt>
      <trkpt lat="45.51246" lon="4.09621">
        <ele>633.9</ele>
        <time>2009-11-29T08:47:27Z</time>
      </trkpt>
      <trkpt lat="45.51244" lon="4.09603">
        <ele>634.2</ele>
        <time>2009-11-29T08:47:36Z</time>
      </trkpt>
      <trkpt lat="45.51226" lon="4.09612">
        <ele>633.5</ele>
        <time>2009-11-29T08:47:45Z</time>
      </trkpt>
      <trkpt lat="45.51211" lon="4.09613">
        <ele>633.6</ele>
        <time>2009-11-29T08:47:49Z</time>
      </trkpt>
      <trkpt lat="45.51201" lon="4.096">
        <ele>633.6</ele>
        <time>2009-11-29T08:47:55Z</time>
      </trkpt>
      <trkpt lat="45.51187" lon="4.09588">
        <ele>630.5</ele>
        <time>2009-11-29T08:47:59Z</time>
      </trkpt>
      <trkpt lat="45.51186" lon="4.09584">
        <ele>636</ele>
        <time>2009-11-29T08:50:46Z</time>
      </trkpt>
      <trkpt lat="45.54671" lon="4.08634">
        <ele>512</ele>
        <time>2009-11-29T09:25:09Z</time>
      </trkpt>
    </trkseg>
  </trk>
</gpx>